<?xml version="1.0" encoding="UTF-8" standalone="no" ?>
<gpx xmlns="http://www.topografix.com/GPX/1/1" xmlns:xsi="http://www.w3.org/2001/XMLSchema-instance" xsi:schemaLocation="http://www.topografix.com/GPX/1/1 http://www.topografix.com/GPX/1/1/gpx.xsd" version="1.1" creator="VisuGPX - https://www.visugpx.com">
  <metadata>
    <name>Randonnée AN ATH </name>
    <desc><![CDATA[Belle randonnée effectué le 12 février 2017.guide Philippe Verset.
temps sec ,nuageux.]]></desc>
  </metadata>
  <trk>
    <name><![CDATA[2017-02-12 16:26:56]]></name>
    <trkseg>
      <trkpt lat="50.71046" lon="3.82911">
        <ele>28.5</ele>
        <time>2017-02-12T07:50:48Z</time>
      </trkpt>
      <trkpt lat="50.71046" lon="3.82911">
        <ele>28.5</ele>
        <time>2017-02-12T07:50:49Z</time>
      </trkpt>
      <trkpt lat="50.71046" lon="3.82911">
        <ele>28.5</ele>
        <time>2017-02-12T07:51:06Z</time>
      </trkpt>
      <trkpt lat="50.71047" lon="3.82913">
        <ele>28.5</ele>
        <time>2017-02-12T07:51:34Z</time>
      </trkpt>
      <trkpt lat="50.71047" lon="3.82912">
        <ele>27.53</ele>
        <time>2017-02-12T07:51:55Z</time>
      </trkpt>
      <trkpt lat="50.71049" lon="3.82914">
        <ele>28.98</ele>
        <time>2017-02-12T07:52:15Z</time>
      </trkpt>
      <trkpt lat="50.71049" lon="3.82914">
        <ele>27.05</ele>
        <time>2017-02-12T07:52:17Z</time>
      </trkpt>
      <trkpt lat="50.7105" lon="3.82914">
        <ele>27.53</ele>
        <time>2017-02-12T07:52:44Z</time>
      </trkpt>
      <trkpt lat="50.7105" lon="3.82914">
        <ele>27.53</ele>
        <time>2017-02-12T07:53:12Z</time>
      </trkpt>
      <trkpt lat="50.71052" lon="3.82914">
        <ele>26.57</ele>
        <time>2017-02-12T07:53:34Z</time>
      </trkpt>
      <trkpt lat="50.71051" lon="3.82918">
        <ele>26.57</ele>
        <time>2017-02-12T07:54:00Z</time>
      </trkpt>
      <trkpt lat="50.71051" lon="3.82916">
        <ele>26.57</ele>
        <time>2017-02-12T07:54:32Z</time>
      </trkpt>
      <trkpt lat="50.71049" lon="3.82916">
        <ele>27.05</ele>
        <time>2017-02-12T07:54:56Z</time>
      </trkpt>
      <trkpt lat="50.71049" lon="3.82913">
        <ele>27.05</ele>
        <time>2017-02-12T07:55:19Z</time>
      </trkpt>
      <trkpt lat="50.7105" lon="3.82916">
        <ele>27.05</ele>
        <time>2017-02-12T07:55:46Z</time>
      </trkpt>
      <trkpt lat="50.7105" lon="3.82916">
        <ele>27.05</ele>
        <time>2017-02-12T07:56:14Z</time>
      </trkpt>
      <trkpt lat="50.7105" lon="3.82913">
        <ele>27.05</ele>
        <time>2017-02-12T07:56:38Z</time>
      </trkpt>
      <trkpt lat="50.7105" lon="3.82912">
        <ele>27.05</ele>
        <time>2017-02-12T07:57:03Z</time>
      </trkpt>
      <trkpt lat="50.71048" lon="3.82913">
        <ele>27.05</ele>
        <time>2017-02-12T07:57:26Z</time>
      </trkpt>
      <trkpt lat="50.71046" lon="3.82914">
        <ele>27.05</ele>
        <time>2017-02-12T07:57:49Z</time>
      </trkpt>
      <trkpt lat="50.71047" lon="3.8291">
        <ele>19.84</ele>
        <time>2017-02-12T07:58:01Z</time>
      </trkpt>
      <trkpt lat="50.71047" lon="3.8291">
        <ele>29.46</ele>
        <time>2017-02-12T07:58:02Z</time>
      </trkpt>
      <trkpt lat="50.71047" lon="3.8291">
        <ele>26.09</ele>
        <time>2017-02-12T07:58:03Z</time>
      </trkpt>
      <trkpt lat="50.71047" lon="3.8291">
        <ele>31.38</ele>
        <time>2017-02-12T07:58:04Z</time>
      </trkpt>
      <trkpt lat="50.71047" lon="3.8291">
        <ele>28.5</ele>
        <time>2017-02-12T07:58:05Z</time>
      </trkpt>
      <trkpt lat="50.71046" lon="3.82914">
        <ele>28.02</ele>
        <time>2017-02-12T07:58:19Z</time>
      </trkpt>
      <trkpt lat="50.71047" lon="3.82914">
        <ele>28.02</ele>
        <time>2017-02-12T07:58:40Z</time>
      </trkpt>
      <trkpt lat="50.71048" lon="3.82915">
        <ele>28.02</ele>
        <time>2017-02-12T07:59:09Z</time>
      </trkpt>
      <trkpt lat="50.71046" lon="3.82919">
        <ele>28.02</ele>
        <time>2017-02-12T07:59:40Z</time>
      </trkpt>
      <trkpt lat="50.71049" lon="3.8292">
        <ele>28.02</ele>
        <time>2017-02-12T08:00:08Z</time>
      </trkpt>
      <trkpt lat="50.71051" lon="3.82918">
        <ele>28.02</ele>
        <time>2017-02-12T08:00:32Z</time>
      </trkpt>
      <trkpt lat="50.71051" lon="3.82918">
        <ele>28.02</ele>
        <time>2017-02-12T08:01:03Z</time>
      </trkpt>
      <trkpt lat="50.71051" lon="3.82919">
        <ele>27.05</ele>
        <time>2017-02-12T08:01:12Z</time>
      </trkpt>
      <trkpt lat="50.7105" lon="3.82916">
        <ele>27.05</ele>
        <time>2017-02-12T08:01:42Z</time>
      </trkpt>
      <trkpt lat="50.71049" lon="3.82918">
        <ele>27.05</ele>
        <time>2017-02-12T08:02:06Z</time>
      </trkpt>
      <trkpt lat="50.7105" lon="3.82919">
        <ele>27.53</ele>
        <time>2017-02-12T08:02:26Z</time>
      </trkpt>
      <trkpt lat="50.71046" lon="3.82917">
        <ele>27.05</ele>
        <time>2017-02-12T08:02:57Z</time>
      </trkpt>
      <trkpt lat="50.71048" lon="3.82919">
        <ele>27.05</ele>
        <time>2017-02-12T08:03:28Z</time>
      </trkpt>
      <trkpt lat="50.7105" lon="3.82921">
        <ele>27.53</ele>
        <time>2017-02-12T08:03:58Z</time>
      </trkpt>
      <trkpt lat="50.71056" lon="3.82922">
        <ele>27.53</ele>
        <time>2017-02-12T08:04:13Z</time>
      </trkpt>
      <trkpt lat="50.7106" lon="3.82932">
        <ele>27.53</ele>
        <time>2017-02-12T08:04:26Z</time>
      </trkpt>
      <trkpt lat="50.71063" lon="3.82939">
        <ele>27.53</ele>
        <time>2017-02-12T08:04:33Z</time>
      </trkpt>
      <trkpt lat="50.71075" lon="3.82957">
        <ele>27.53</ele>
        <time>2017-02-12T08:04:50Z</time>
      </trkpt>
      <trkpt lat="50.71086" lon="3.82959">
        <ele>27.53</ele>
        <time>2017-02-12T08:05:04Z</time>
      </trkpt>
      <trkpt lat="50.71098" lon="3.82977">
        <ele>26.57</ele>
        <time>2017-02-12T08:05:16Z</time>
      </trkpt>
      <trkpt lat="50.71114" lon="3.82993">
        <ele>26.57</ele>
        <time>2017-02-12T08:05:32Z</time>
      </trkpt>
      <trkpt lat="50.71118" lon="3.83001">
        <ele>26.57</ele>
        <time>2017-02-12T08:05:38Z</time>
      </trkpt>
      <trkpt lat="50.71135" lon="3.83026">
        <ele>26.09</ele>
        <time>2017-02-12T08:05:57Z</time>
      </trkpt>
      <trkpt lat="50.71142" lon="3.8304">
        <ele>26.09</ele>
        <time>2017-02-12T08:06:11Z</time>
      </trkpt>
      <trkpt lat="50.71149" lon="3.83035">
        <ele>26.09</ele>
        <time>2017-02-12T08:06:22Z</time>
      </trkpt>
      <trkpt lat="50.71153" lon="3.83033">
        <ele>26.09</ele>
        <time>2017-02-12T08:06:25Z</time>
      </trkpt>
      <trkpt lat="50.71172" lon="3.83019">
        <ele>25.13</ele>
        <time>2017-02-12T08:06:42Z</time>
      </trkpt>
      <trkpt lat="50.71178" lon="3.8302">
        <ele>25.13</ele>
        <time>2017-02-12T08:06:51Z</time>
      </trkpt>
      <trkpt lat="50.71187" lon="3.83016">
        <ele>26.09</ele>
        <time>2017-02-12T08:07:02Z</time>
      </trkpt>
      <trkpt lat="50.71195" lon="3.83018">
        <ele>26.57</ele>
        <time>2017-02-12T08:07:12Z</time>
      </trkpt>
      <trkpt lat="50.71202" lon="3.83023">
        <ele>26.57</ele>
        <time>2017-02-12T08:07:17Z</time>
      </trkpt>
      <trkpt lat="50.71209" lon="3.83045">
        <ele>26.57</ele>
        <time>2017-02-12T08:07:33Z</time>
      </trkpt>
      <trkpt lat="50.71208" lon="3.83049">
        <ele>25.13</ele>
        <time>2017-02-12T08:07:35Z</time>
      </trkpt>
      <trkpt lat="50.71213" lon="3.83064">
        <ele>24.17</ele>
        <time>2017-02-12T08:07:43Z</time>
      </trkpt>
      <trkpt lat="50.71207" lon="3.83082">
        <ele>23.69</ele>
        <time>2017-02-12T08:07:54Z</time>
      </trkpt>
      <trkpt lat="50.71204" lon="3.83094">
        <ele>23.21</ele>
        <time>2017-02-12T08:08:00Z</time>
      </trkpt>
      <trkpt lat="50.71209" lon="3.83122">
        <ele>22.73</ele>
        <time>2017-02-12T08:08:16Z</time>
      </trkpt>
      <trkpt lat="50.71216" lon="3.83147">
        <ele>22.25</ele>
        <time>2017-02-12T08:08:31Z</time>
      </trkpt>
      <trkpt lat="50.71219" lon="3.83149">
        <ele>22.25</ele>
        <time>2017-02-12T08:08:34Z</time>
      </trkpt>
      <trkpt lat="50.71233" lon="3.8315">
        <ele>22.25</ele>
        <time>2017-02-12T08:08:49Z</time>
      </trkpt>
      <trkpt lat="50.71234" lon="3.8315">
        <ele>22.25</ele>
        <time>2017-02-12T08:08:50Z</time>
      </trkpt>
      <trkpt lat="50.71236" lon="3.83146">
        <ele>22.25</ele>
        <time>2017-02-12T08:08:53Z</time>
      </trkpt>
      <trkpt lat="50.71246" lon="3.83125">
        <ele>21.77</ele>
        <time>2017-02-12T08:09:08Z</time>
      </trkpt>
      <trkpt lat="50.71261" lon="3.83111">
        <ele>20.81</ele>
        <time>2017-02-12T08:09:25Z</time>
      </trkpt>
      <trkpt lat="50.71268" lon="3.83109">
        <ele>19.84</ele>
        <time>2017-02-12T08:09:33Z</time>
      </trkpt>
      <trkpt lat="50.7128" lon="3.83106">
        <ele>18.4</ele>
        <time>2017-02-12T08:09:46Z</time>
      </trkpt>
      <trkpt lat="50.71292" lon="3.83107">
        <ele>17.44</ele>
        <time>2017-02-12T08:09:59Z</time>
      </trkpt>
      <trkpt lat="50.71294" lon="3.83104">
        <ele>17.92</ele>
        <time>2017-02-12T08:10:02Z</time>
      </trkpt>
      <trkpt lat="50.71297" lon="3.83097">
        <ele>17.92</ele>
        <time>2017-02-12T08:10:07Z</time>
      </trkpt>
      <trkpt lat="50.71299" lon="3.83091">
        <ele>17.92</ele>
        <time>2017-02-12T08:10:11Z</time>
      </trkpt>
      <trkpt lat="50.71302" lon="3.83077">
        <ele>18.88</ele>
        <time>2017-02-12T08:10:20Z</time>
      </trkpt>
      <trkpt lat="50.71303" lon="3.83052">
        <ele>19.84</ele>
        <time>2017-02-12T08:10:33Z</time>
      </trkpt>
      <trkpt lat="50.71305" lon="3.83022">
        <ele>20.81</ele>
        <time>2017-02-12T08:10:50Z</time>
      </trkpt>
      <trkpt lat="50.71303" lon="3.83">
        <ele>23.21</ele>
        <time>2017-02-12T08:11:05Z</time>
      </trkpt>
      <trkpt lat="50.713" lon="3.82975">
        <ele>26.09</ele>
        <time>2017-02-12T08:11:22Z</time>
      </trkpt>
      <trkpt lat="50.71296" lon="3.82956">
        <ele>28.02</ele>
        <time>2017-02-12T08:11:36Z</time>
      </trkpt>
      <trkpt lat="50.71292" lon="3.82928">
        <ele>29.94</ele>
        <time>2017-02-12T08:11:52Z</time>
      </trkpt>
      <trkpt lat="50.71294" lon="3.8292">
        <ele>30.42</ele>
        <time>2017-02-12T08:11:58Z</time>
      </trkpt>
      <trkpt lat="50.71303" lon="3.82911">
        <ele>30.42</ele>
        <time>2017-02-12T08:12:09Z</time>
      </trkpt>
      <trkpt lat="50.71319" lon="3.82917">
        <ele>30.42</ele>
        <time>2017-02-12T08:12:23Z</time>
      </trkpt>
      <trkpt lat="50.71335" lon="3.82919">
        <ele>30.42</ele>
        <time>2017-02-12T08:12:36Z</time>
      </trkpt>
      <trkpt lat="50.71357" lon="3.82912">
        <ele>30.42</ele>
        <time>2017-02-12T08:12:53Z</time>
      </trkpt>
      <trkpt lat="50.71359" lon="3.8291">
        <ele>29.46</ele>
        <time>2017-02-12T08:12:55Z</time>
      </trkpt>
      <trkpt lat="50.71374" lon="3.82897">
        <ele>28.98</ele>
        <time>2017-02-12T08:13:09Z</time>
      </trkpt>
      <trkpt lat="50.71379" lon="3.82896">
        <ele>28.5</ele>
        <time>2017-02-12T08:13:13Z</time>
      </trkpt>
      <trkpt lat="50.71386" lon="3.8289">
        <ele>28.5</ele>
        <time>2017-02-12T08:13:20Z</time>
      </trkpt>
      <trkpt lat="50.71397" lon="3.82883">
        <ele>28.02</ele>
        <time>2017-02-12T08:13:34Z</time>
      </trkpt>
      <trkpt lat="50.71422" lon="3.82876">
        <ele>27.05</ele>
        <time>2017-02-12T08:13:55Z</time>
      </trkpt>
      <trkpt lat="50.71429" lon="3.82873">
        <ele>26.57</ele>
        <time>2017-02-12T08:14:02Z</time>
      </trkpt>
      <trkpt lat="50.71446" lon="3.82862">
        <ele>26.57</ele>
        <time>2017-02-12T08:14:19Z</time>
      </trkpt>
      <trkpt lat="50.71451" lon="3.82852">
        <ele>26.09</ele>
        <time>2017-02-12T08:14:27Z</time>
      </trkpt>
      <trkpt lat="50.7145" lon="3.82847">
        <ele>26.09</ele>
        <time>2017-02-12T08:14:29Z</time>
      </trkpt>
      <trkpt lat="50.71444" lon="3.8282">
        <ele>27.53</ele>
        <time>2017-02-12T08:14:43Z</time>
      </trkpt>
      <trkpt lat="50.71438" lon="3.82804">
        <ele>27.53</ele>
        <time>2017-02-12T08:14:54Z</time>
      </trkpt>
      <trkpt lat="50.71433" lon="3.82792">
        <ele>28.02</ele>
        <time>2017-02-12T08:15:03Z</time>
      </trkpt>
      <trkpt lat="50.71424" lon="3.82774">
        <ele>28.5</ele>
        <time>2017-02-12T08:15:17Z</time>
      </trkpt>
      <trkpt lat="50.71412" lon="3.82748">
        <ele>28.98</ele>
        <time>2017-02-12T08:15:34Z</time>
      </trkpt>
      <trkpt lat="50.71406" lon="3.82729">
        <ele>29.46</ele>
        <time>2017-02-12T08:15:47Z</time>
      </trkpt>
      <trkpt lat="50.71408" lon="3.82718">
        <ele>30.42</ele>
        <time>2017-02-12T08:15:56Z</time>
      </trkpt>
      <trkpt lat="50.71408" lon="3.82705">
        <ele>30.9</ele>
        <time>2017-02-12T08:16:03Z</time>
      </trkpt>
      <trkpt lat="50.7141" lon="3.82682">
        <ele>30.9</ele>
        <time>2017-02-12T08:16:17Z</time>
      </trkpt>
      <trkpt lat="50.71415" lon="3.82665">
        <ele>31.38</ele>
        <time>2017-02-12T08:16:28Z</time>
      </trkpt>
      <trkpt lat="50.71418" lon="3.82659">
        <ele>31.86</ele>
        <time>2017-02-12T08:16:31Z</time>
      </trkpt>
      <trkpt lat="50.71421" lon="3.8264">
        <ele>33.3</ele>
        <time>2017-02-12T08:16:42Z</time>
      </trkpt>
      <trkpt lat="50.71416" lon="3.82631">
        <ele>33.3</ele>
        <time>2017-02-12T08:16:47Z</time>
      </trkpt>
      <trkpt lat="50.71398" lon="3.82611">
        <ele>33.78</ele>
        <time>2017-02-12T08:17:05Z</time>
      </trkpt>
      <trkpt lat="50.71387" lon="3.82597">
        <ele>34.74</ele>
        <time>2017-02-12T08:17:17Z</time>
      </trkpt>
      <trkpt lat="50.7138" lon="3.82589">
        <ele>34.74</ele>
        <time>2017-02-12T08:17:25Z</time>
      </trkpt>
      <trkpt lat="50.71379" lon="3.82586">
        <ele>34.74</ele>
        <time>2017-02-12T08:17:27Z</time>
      </trkpt>
      <trkpt lat="50.71379" lon="3.8256">
        <ele>34.74</ele>
        <time>2017-02-12T08:17:40Z</time>
      </trkpt>
      <trkpt lat="50.71382" lon="3.82553">
        <ele>34.74</ele>
        <time>2017-02-12T08:17:45Z</time>
      </trkpt>
      <trkpt lat="50.71393" lon="3.8254">
        <ele>35.23</ele>
        <time>2017-02-12T08:18:01Z</time>
      </trkpt>
      <trkpt lat="50.71411" lon="3.82514">
        <ele>35.23</ele>
        <time>2017-02-12T08:18:21Z</time>
      </trkpt>
      <trkpt lat="50.71421" lon="3.82485">
        <ele>36.19</ele>
        <time>2017-02-12T08:18:38Z</time>
      </trkpt>
      <trkpt lat="50.71427" lon="3.8246">
        <ele>36.19</ele>
        <time>2017-02-12T08:18:53Z</time>
      </trkpt>
      <trkpt lat="50.71436" lon="3.82424">
        <ele>36.19</ele>
        <time>2017-02-12T08:19:13Z</time>
      </trkpt>
      <trkpt lat="50.71444" lon="3.82393">
        <ele>34.74</ele>
        <time>2017-02-12T08:19:30Z</time>
      </trkpt>
      <trkpt lat="50.71445" lon="3.82387">
        <ele>34.74</ele>
        <time>2017-02-12T08:19:33Z</time>
      </trkpt>
      <trkpt lat="50.71452" lon="3.82351">
        <ele>34.26</ele>
        <time>2017-02-12T08:19:53Z</time>
      </trkpt>
      <trkpt lat="50.71458" lon="3.82318">
        <ele>33.78</ele>
        <time>2017-02-12T08:20:11Z</time>
      </trkpt>
      <trkpt lat="50.71466" lon="3.82279">
        <ele>33.3</ele>
        <time>2017-02-12T08:20:33Z</time>
      </trkpt>
      <trkpt lat="50.71472" lon="3.82245">
        <ele>32.82</ele>
        <time>2017-02-12T08:20:52Z</time>
      </trkpt>
      <trkpt lat="50.71478" lon="3.8221">
        <ele>32.82</ele>
        <time>2017-02-12T08:21:11Z</time>
      </trkpt>
      <trkpt lat="50.71484" lon="3.82175">
        <ele>32.82</ele>
        <time>2017-02-12T08:21:30Z</time>
      </trkpt>
      <trkpt lat="50.7149" lon="3.82143">
        <ele>32.82</ele>
        <time>2017-02-12T08:21:47Z</time>
      </trkpt>
      <trkpt lat="50.71495" lon="3.8211">
        <ele>31.86</ele>
        <time>2017-02-12T08:22:06Z</time>
      </trkpt>
      <trkpt lat="50.71498" lon="3.82079">
        <ele>30.9</ele>
        <time>2017-02-12T08:22:24Z</time>
      </trkpt>
      <trkpt lat="50.71501" lon="3.82061">
        <ele>29.94</ele>
        <time>2017-02-12T08:22:37Z</time>
      </trkpt>
      <trkpt lat="50.71506" lon="3.82033">
        <ele>28.5</ele>
        <time>2017-02-12T08:22:54Z</time>
      </trkpt>
      <trkpt lat="50.71515" lon="3.82014">
        <ele>27.53</ele>
        <time>2017-02-12T08:23:09Z</time>
      </trkpt>
      <trkpt lat="50.71527" lon="3.81996">
        <ele>26.09</ele>
        <time>2017-02-12T08:23:23Z</time>
      </trkpt>
      <trkpt lat="50.71542" lon="3.81977">
        <ele>25.13</ele>
        <time>2017-02-12T08:23:39Z</time>
      </trkpt>
      <trkpt lat="50.71561" lon="3.81948">
        <ele>25.13</ele>
        <time>2017-02-12T08:23:59Z</time>
      </trkpt>
      <trkpt lat="50.71574" lon="3.81927">
        <ele>24.17</ele>
        <time>2017-02-12T08:24:15Z</time>
      </trkpt>
      <trkpt lat="50.71586" lon="3.81904">
        <ele>24.17</ele>
        <time>2017-02-12T08:24:31Z</time>
      </trkpt>
      <trkpt lat="50.71602" lon="3.81881">
        <ele>24.17</ele>
        <time>2017-02-12T08:24:49Z</time>
      </trkpt>
      <trkpt lat="50.71614" lon="3.81863">
        <ele>24.17</ele>
        <time>2017-02-12T08:25:03Z</time>
      </trkpt>
      <trkpt lat="50.71627" lon="3.81845">
        <ele>26.09</ele>
        <time>2017-02-12T08:25:18Z</time>
      </trkpt>
      <trkpt lat="50.71639" lon="3.81823">
        <ele>26.09</ele>
        <time>2017-02-12T08:25:33Z</time>
      </trkpt>
      <trkpt lat="50.71648" lon="3.81807">
        <ele>26.57</ele>
        <time>2017-02-12T08:25:47Z</time>
      </trkpt>
      <trkpt lat="50.71658" lon="3.81797">
        <ele>26.57</ele>
        <time>2017-02-12T08:26:00Z</time>
      </trkpt>
      <trkpt lat="50.71669" lon="3.81786">
        <ele>24.65</ele>
        <time>2017-02-12T08:26:12Z</time>
      </trkpt>
      <trkpt lat="50.71677" lon="3.81777">
        <ele>24.17</ele>
        <time>2017-02-12T08:26:22Z</time>
      </trkpt>
      <trkpt lat="50.7169" lon="3.81769">
        <ele>23.21</ele>
        <time>2017-02-12T08:26:34Z</time>
      </trkpt>
      <trkpt lat="50.71692" lon="3.81768">
        <ele>23.21</ele>
        <time>2017-02-12T08:26:36Z</time>
      </trkpt>
      <trkpt lat="50.71695" lon="3.81767">
        <ele>22.73</ele>
        <time>2017-02-12T08:26:38Z</time>
      </trkpt>
      <trkpt lat="50.71707" lon="3.8176">
        <ele>22.73</ele>
        <time>2017-02-12T08:26:47Z</time>
      </trkpt>
      <trkpt lat="50.71711" lon="3.81757">
        <ele>21.77</ele>
        <time>2017-02-12T08:26:51Z</time>
      </trkpt>
      <trkpt lat="50.71726" lon="3.81744">
        <ele>20.81</ele>
        <time>2017-02-12T08:27:06Z</time>
      </trkpt>
      <trkpt lat="50.71735" lon="3.81734">
        <ele>19.84</ele>
        <time>2017-02-12T08:27:15Z</time>
      </trkpt>
      <trkpt lat="50.71745" lon="3.81722">
        <ele>19.36</ele>
        <time>2017-02-12T08:27:29Z</time>
      </trkpt>
      <trkpt lat="50.7176" lon="3.81706">
        <ele>17.92</ele>
        <time>2017-02-12T08:27:45Z</time>
      </trkpt>
      <trkpt lat="50.71775" lon="3.81688">
        <ele>18.4</ele>
        <time>2017-02-12T08:28:01Z</time>
      </trkpt>
      <trkpt lat="50.71782" lon="3.81679">
        <ele>17.44</ele>
        <time>2017-02-12T08:28:11Z</time>
      </trkpt>
      <trkpt lat="50.71784" lon="3.81677">
        <ele>17.44</ele>
        <time>2017-02-12T08:28:14Z</time>
      </trkpt>
      <trkpt lat="50.71787" lon="3.81674">
        <ele>17.92</ele>
        <time>2017-02-12T08:28:17Z</time>
      </trkpt>
      <trkpt lat="50.71791" lon="3.81668">
        <ele>17.44</ele>
        <time>2017-02-12T08:28:22Z</time>
      </trkpt>
      <trkpt lat="50.71808" lon="3.81648">
        <ele>17.92</ele>
        <time>2017-02-12T08:28:40Z</time>
      </trkpt>
      <trkpt lat="50.71824" lon="3.81627">
        <ele>17.92</ele>
        <time>2017-02-12T08:28:57Z</time>
      </trkpt>
      <trkpt lat="50.71829" lon="3.81615">
        <ele>17.44</ele>
        <time>2017-02-12T08:29:05Z</time>
      </trkpt>
      <trkpt lat="50.71842" lon="3.81608">
        <ele>17.44</ele>
        <time>2017-02-12T08:29:16Z</time>
      </trkpt>
      <trkpt lat="50.71863" lon="3.81601">
        <ele>17.44</ele>
        <time>2017-02-12T08:29:33Z</time>
      </trkpt>
      <trkpt lat="50.71887" lon="3.81595">
        <ele>17.44</ele>
        <time>2017-02-12T08:29:52Z</time>
      </trkpt>
      <trkpt lat="50.71909" lon="3.81587">
        <ele>16.96</ele>
        <time>2017-02-12T08:30:09Z</time>
      </trkpt>
      <trkpt lat="50.7193" lon="3.81592">
        <ele>16.96</ele>
        <time>2017-02-12T08:30:26Z</time>
      </trkpt>
      <trkpt lat="50.71936" lon="3.81596">
        <ele>16.96</ele>
        <time>2017-02-12T08:30:30Z</time>
      </trkpt>
      <trkpt lat="50.71948" lon="3.81613">
        <ele>16.96</ele>
        <time>2017-02-12T08:30:44Z</time>
      </trkpt>
      <trkpt lat="50.71956" lon="3.81644">
        <ele>16.96</ele>
        <time>2017-02-12T08:31:00Z</time>
      </trkpt>
      <trkpt lat="50.71962" lon="3.81682">
        <ele>16.96</ele>
        <time>2017-02-12T08:31:17Z</time>
      </trkpt>
      <trkpt lat="50.7197" lon="3.8169">
        <ele>17.44</ele>
        <time>2017-02-12T08:31:32Z</time>
      </trkpt>
      <trkpt lat="50.71972" lon="3.81694">
        <ele>17.44</ele>
        <time>2017-02-12T08:31:50Z</time>
      </trkpt>
      <trkpt lat="50.71973" lon="3.81693">
        <ele>18.4</ele>
        <time>2017-02-12T08:31:56Z</time>
      </trkpt>
      <trkpt lat="50.71972" lon="3.81693">
        <ele>17.44</ele>
        <time>2017-02-12T08:31:58Z</time>
      </trkpt>
      <trkpt lat="50.71973" lon="3.81692">
        <ele>17.44</ele>
        <time>2017-02-12T08:32:27Z</time>
      </trkpt>
      <trkpt lat="50.71976" lon="3.81691">
        <ele>16.96</ele>
        <time>2017-02-12T08:32:48Z</time>
      </trkpt>
      <trkpt lat="50.7198" lon="3.81691">
        <ele>16.96</ele>
        <time>2017-02-12T08:32:52Z</time>
      </trkpt>
      <trkpt lat="50.71993" lon="3.81681">
        <ele>16.96</ele>
        <time>2017-02-12T08:33:05Z</time>
      </trkpt>
      <trkpt lat="50.72002" lon="3.81672">
        <ele>16.96</ele>
        <time>2017-02-12T08:33:15Z</time>
      </trkpt>
      <trkpt lat="50.72008" lon="3.81668">
        <ele>16.48</ele>
        <time>2017-02-12T08:33:22Z</time>
      </trkpt>
      <trkpt lat="50.72023" lon="3.81658">
        <ele>16</ele>
        <time>2017-02-12T08:33:40Z</time>
      </trkpt>
      <trkpt lat="50.72023" lon="3.81658">
        <ele>16</ele>
        <time>2017-02-12T08:33:41Z</time>
      </trkpt>
      <trkpt lat="50.72039" lon="3.81648">
        <ele>16</ele>
        <time>2017-02-12T08:33:56Z</time>
      </trkpt>
      <trkpt lat="50.72062" lon="3.81633">
        <ele>16</ele>
        <time>2017-02-12T08:34:14Z</time>
      </trkpt>
      <trkpt lat="50.72083" lon="3.81623">
        <ele>16</ele>
        <time>2017-02-12T08:34:31Z</time>
      </trkpt>
      <trkpt lat="50.72091" lon="3.81612">
        <ele>17.44</ele>
        <time>2017-02-12T08:34:44Z</time>
      </trkpt>
      <trkpt lat="50.72096" lon="3.81599">
        <ele>17.44</ele>
        <time>2017-02-12T08:34:56Z</time>
      </trkpt>
      <trkpt lat="50.72106" lon="3.81579">
        <ele>17.44</ele>
        <time>2017-02-12T08:35:10Z</time>
      </trkpt>
      <trkpt lat="50.72117" lon="3.81559">
        <ele>17.44</ele>
        <time>2017-02-12T08:35:26Z</time>
      </trkpt>
      <trkpt lat="50.72126" lon="3.81543">
        <ele>17.92</ele>
        <time>2017-02-12T08:35:39Z</time>
      </trkpt>
      <trkpt lat="50.72139" lon="3.81521">
        <ele>18.88</ele>
        <time>2017-02-12T08:35:55Z</time>
      </trkpt>
      <trkpt lat="50.72146" lon="3.81511">
        <ele>19.36</ele>
        <time>2017-02-12T08:36:04Z</time>
      </trkpt>
      <trkpt lat="50.72159" lon="3.81489">
        <ele>20.32</ele>
        <time>2017-02-12T08:36:23Z</time>
      </trkpt>
      <trkpt lat="50.72171" lon="3.81469">
        <ele>20.81</ele>
        <time>2017-02-12T08:36:39Z</time>
      </trkpt>
      <trkpt lat="50.72184" lon="3.81455">
        <ele>22.73</ele>
        <time>2017-02-12T08:36:55Z</time>
      </trkpt>
      <trkpt lat="50.72185" lon="3.81454">
        <ele>23.21</ele>
        <time>2017-02-12T08:36:56Z</time>
      </trkpt>
      <trkpt lat="50.72195" lon="3.81435">
        <ele>23.69</ele>
        <time>2017-02-12T08:37:11Z</time>
      </trkpt>
      <trkpt lat="50.7221" lon="3.81415">
        <ele>23.69</ele>
        <time>2017-02-12T08:37:27Z</time>
      </trkpt>
      <trkpt lat="50.72228" lon="3.81393">
        <ele>24.65</ele>
        <time>2017-02-12T08:37:46Z</time>
      </trkpt>
      <trkpt lat="50.72244" lon="3.81371">
        <ele>25.61</ele>
        <time>2017-02-12T08:38:03Z</time>
      </trkpt>
      <trkpt lat="50.72262" lon="3.81348">
        <ele>26.09</ele>
        <time>2017-02-12T08:38:21Z</time>
      </trkpt>
      <trkpt lat="50.72277" lon="3.81327">
        <ele>27.53</ele>
        <time>2017-02-12T08:38:38Z</time>
      </trkpt>
      <trkpt lat="50.72292" lon="3.81306">
        <ele>28.02</ele>
        <time>2017-02-12T08:38:54Z</time>
      </trkpt>
      <trkpt lat="50.72307" lon="3.81282">
        <ele>28.5</ele>
        <time>2017-02-12T08:39:13Z</time>
      </trkpt>
      <trkpt lat="50.72326" lon="3.81255">
        <ele>28.98</ele>
        <time>2017-02-12T08:39:33Z</time>
      </trkpt>
      <trkpt lat="50.72343" lon="3.81232">
        <ele>29.46</ele>
        <time>2017-02-12T08:39:50Z</time>
      </trkpt>
      <trkpt lat="50.72358" lon="3.81211">
        <ele>29.46</ele>
        <time>2017-02-12T08:40:07Z</time>
      </trkpt>
      <trkpt lat="50.72374" lon="3.81185">
        <ele>29.94</ele>
        <time>2017-02-12T08:40:25Z</time>
      </trkpt>
      <trkpt lat="50.72392" lon="3.8116">
        <ele>30.42</ele>
        <time>2017-02-12T08:40:43Z</time>
      </trkpt>
      <trkpt lat="50.72408" lon="3.81137">
        <ele>30.9</ele>
        <time>2017-02-12T08:41:00Z</time>
      </trkpt>
      <trkpt lat="50.72423" lon="3.81113">
        <ele>31.86</ele>
        <time>2017-02-12T08:41:17Z</time>
      </trkpt>
      <trkpt lat="50.7244" lon="3.81086">
        <ele>32.34</ele>
        <time>2017-02-12T08:41:35Z</time>
      </trkpt>
      <trkpt lat="50.72458" lon="3.81056">
        <ele>32.82</ele>
        <time>2017-02-12T08:41:55Z</time>
      </trkpt>
      <trkpt lat="50.72472" lon="3.81036">
        <ele>32.82</ele>
        <time>2017-02-12T08:42:11Z</time>
      </trkpt>
      <trkpt lat="50.72478" lon="3.81025">
        <ele>31.86</ele>
        <time>2017-02-12T08:42:19Z</time>
      </trkpt>
      <trkpt lat="50.72482" lon="3.81018">
        <ele>30.9</ele>
        <time>2017-02-12T08:42:24Z</time>
      </trkpt>
      <trkpt lat="50.72493" lon="3.81">
        <ele>30.42</ele>
        <time>2017-02-12T08:42:38Z</time>
      </trkpt>
      <trkpt lat="50.72492" lon="3.80993">
        <ele>29.94</ele>
        <time>2017-02-12T08:42:42Z</time>
      </trkpt>
      <trkpt lat="50.7248" lon="3.80972">
        <ele>29.46</ele>
        <time>2017-02-12T08:42:57Z</time>
      </trkpt>
      <trkpt lat="50.72472" lon="3.80943">
        <ele>30.9</ele>
        <time>2017-02-12T08:43:13Z</time>
      </trkpt>
      <trkpt lat="50.7247" lon="3.80917">
        <ele>32.34</ele>
        <time>2017-02-12T08:43:28Z</time>
      </trkpt>
      <trkpt lat="50.72467" lon="3.80882">
        <ele>32.82</ele>
        <time>2017-02-12T08:43:47Z</time>
      </trkpt>
      <trkpt lat="50.72464" lon="3.80851">
        <ele>33.3</ele>
        <time>2017-02-12T08:44:02Z</time>
      </trkpt>
      <trkpt lat="50.7246" lon="3.80824">
        <ele>33.78</ele>
        <time>2017-02-12T08:44:17Z</time>
      </trkpt>
      <trkpt lat="50.72449" lon="3.80795">
        <ele>34.26</ele>
        <time>2017-02-12T08:44:35Z</time>
      </trkpt>
      <trkpt lat="50.72434" lon="3.8077">
        <ele>34.74</ele>
        <time>2017-02-12T08:44:53Z</time>
      </trkpt>
      <trkpt lat="50.72415" lon="3.80743">
        <ele>34.74</ele>
        <time>2017-02-12T08:45:13Z</time>
      </trkpt>
      <trkpt lat="50.72401" lon="3.80723">
        <ele>34.74</ele>
        <time>2017-02-12T08:45:28Z</time>
      </trkpt>
      <trkpt lat="50.72385" lon="3.80698">
        <ele>33.78</ele>
        <time>2017-02-12T08:45:46Z</time>
      </trkpt>
      <trkpt lat="50.72371" lon="3.80672">
        <ele>32.34</ele>
        <time>2017-02-12T08:46:03Z</time>
      </trkpt>
      <trkpt lat="50.72359" lon="3.80649">
        <ele>31.38</ele>
        <time>2017-02-12T08:46:18Z</time>
      </trkpt>
      <trkpt lat="50.72344" lon="3.80622">
        <ele>30.9</ele>
        <time>2017-02-12T08:46:36Z</time>
      </trkpt>
      <trkpt lat="50.72328" lon="3.80595">
        <ele>29.46</ele>
        <time>2017-02-12T08:46:54Z</time>
      </trkpt>
      <trkpt lat="50.72312" lon="3.80569">
        <ele>28.98</ele>
        <time>2017-02-12T08:47:11Z</time>
      </trkpt>
      <trkpt lat="50.72298" lon="3.80546">
        <ele>28.02</ele>
        <time>2017-02-12T08:47:27Z</time>
      </trkpt>
      <trkpt lat="50.72282" lon="3.80521">
        <ele>27.53</ele>
        <time>2017-02-12T08:47:44Z</time>
      </trkpt>
      <trkpt lat="50.72267" lon="3.80497">
        <ele>26.57</ele>
        <time>2017-02-12T08:48:01Z</time>
      </trkpt>
      <trkpt lat="50.72251" lon="3.8047">
        <ele>26.09</ele>
        <time>2017-02-12T08:48:19Z</time>
      </trkpt>
      <trkpt lat="50.72235" lon="3.8044">
        <ele>26.09</ele>
        <time>2017-02-12T08:48:38Z</time>
      </trkpt>
      <trkpt lat="50.7222" lon="3.80404">
        <ele>25.13</ele>
        <time>2017-02-12T08:48:59Z</time>
      </trkpt>
      <trkpt lat="50.72208" lon="3.80374">
        <ele>25.13</ele>
        <time>2017-02-12T08:49:15Z</time>
      </trkpt>
      <trkpt lat="50.72197" lon="3.8034">
        <ele>25.13</ele>
        <time>2017-02-12T08:49:34Z</time>
      </trkpt>
      <trkpt lat="50.72188" lon="3.80309">
        <ele>25.13</ele>
        <time>2017-02-12T08:49:51Z</time>
      </trkpt>
      <trkpt lat="50.72183" lon="3.8029">
        <ele>24.65</ele>
        <time>2017-02-12T08:50:02Z</time>
      </trkpt>
      <trkpt lat="50.72175" lon="3.80259">
        <ele>24.65</ele>
        <time>2017-02-12T08:50:19Z</time>
      </trkpt>
      <trkpt lat="50.72168" lon="3.80231">
        <ele>24.17</ele>
        <time>2017-02-12T08:50:34Z</time>
      </trkpt>
      <trkpt lat="50.72162" lon="3.802">
        <ele>24.17</ele>
        <time>2017-02-12T08:50:50Z</time>
      </trkpt>
      <trkpt lat="50.72155" lon="3.80172">
        <ele>23.69</ele>
        <time>2017-02-12T08:51:07Z</time>
      </trkpt>
      <trkpt lat="50.72151" lon="3.8015">
        <ele>23.21</ele>
        <time>2017-02-12T08:51:21Z</time>
      </trkpt>
      <trkpt lat="50.72144" lon="3.80123">
        <ele>23.21</ele>
        <time>2017-02-12T08:51:35Z</time>
      </trkpt>
      <trkpt lat="50.72144" lon="3.80121">
        <ele>23.21</ele>
        <time>2017-02-12T08:51:36Z</time>
      </trkpt>
      <trkpt lat="50.72141" lon="3.80108">
        <ele>23.21</ele>
        <time>2017-02-12T08:51:43Z</time>
      </trkpt>
      <trkpt lat="50.72139" lon="3.80098">
        <ele>24.65</ele>
        <time>2017-02-12T08:51:48Z</time>
      </trkpt>
      <trkpt lat="50.72132" lon="3.80065">
        <ele>24.65</ele>
        <time>2017-02-12T08:52:06Z</time>
      </trkpt>
      <trkpt lat="50.72123" lon="3.80027">
        <ele>25.13</ele>
        <time>2017-02-12T08:52:25Z</time>
      </trkpt>
      <trkpt lat="50.72115" lon="3.79994">
        <ele>25.61</ele>
        <time>2017-02-12T08:52:42Z</time>
      </trkpt>
      <trkpt lat="50.7211" lon="3.79961">
        <ele>26.09</ele>
        <time>2017-02-12T08:52:59Z</time>
      </trkpt>
      <trkpt lat="50.72103" lon="3.79927">
        <ele>26.57</ele>
        <time>2017-02-12T08:53:16Z</time>
      </trkpt>
      <trkpt lat="50.72097" lon="3.79887">
        <ele>27.05</ele>
        <time>2017-02-12T08:53:35Z</time>
      </trkpt>
      <trkpt lat="50.72092" lon="3.79848">
        <ele>27.05</ele>
        <time>2017-02-12T08:53:54Z</time>
      </trkpt>
      <trkpt lat="50.72089" lon="3.79811">
        <ele>27.05</ele>
        <time>2017-02-12T08:54:12Z</time>
      </trkpt>
      <trkpt lat="50.72088" lon="3.79801">
        <ele>27.05</ele>
        <time>2017-02-12T08:54:18Z</time>
      </trkpt>
      <trkpt lat="50.72089" lon="3.79764">
        <ele>25.13</ele>
        <time>2017-02-12T08:54:36Z</time>
      </trkpt>
      <trkpt lat="50.72088" lon="3.7973">
        <ele>24.17</ele>
        <time>2017-02-12T08:54:52Z</time>
      </trkpt>
      <trkpt lat="50.72088" lon="3.797">
        <ele>23.69</ele>
        <time>2017-02-12T08:55:07Z</time>
      </trkpt>
      <trkpt lat="50.72091" lon="3.79666">
        <ele>23.69</ele>
        <time>2017-02-12T08:55:24Z</time>
      </trkpt>
      <trkpt lat="50.72105" lon="3.79641">
        <ele>23.21</ele>
        <time>2017-02-12T08:55:41Z</time>
      </trkpt>
      <trkpt lat="50.72108" lon="3.79633">
        <ele>23.21</ele>
        <time>2017-02-12T08:55:46Z</time>
      </trkpt>
      <trkpt lat="50.72111" lon="3.79616">
        <ele>23.21</ele>
        <time>2017-02-12T08:55:55Z</time>
      </trkpt>
      <trkpt lat="50.72112" lon="3.7961">
        <ele>23.21</ele>
        <time>2017-02-12T08:55:58Z</time>
      </trkpt>
      <trkpt lat="50.72115" lon="3.79584">
        <ele>23.21</ele>
        <time>2017-02-12T08:56:12Z</time>
      </trkpt>
      <trkpt lat="50.72116" lon="3.79553">
        <ele>23.21</ele>
        <time>2017-02-12T08:56:27Z</time>
      </trkpt>
      <trkpt lat="50.72116" lon="3.79522">
        <ele>23.21</ele>
        <time>2017-02-12T08:56:42Z</time>
      </trkpt>
      <trkpt lat="50.72117" lon="3.79505">
        <ele>22.73</ele>
        <time>2017-02-12T08:56:51Z</time>
      </trkpt>
      <trkpt lat="50.72121" lon="3.79476">
        <ele>22.73</ele>
        <time>2017-02-12T08:57:07Z</time>
      </trkpt>
      <trkpt lat="50.72118" lon="3.79443">
        <ele>22.25</ele>
        <time>2017-02-12T08:57:23Z</time>
      </trkpt>
      <trkpt lat="50.72108" lon="3.79419">
        <ele>21.77</ele>
        <time>2017-02-12T08:57:37Z</time>
      </trkpt>
      <trkpt lat="50.72095" lon="3.79401">
        <ele>21.77</ele>
        <time>2017-02-12T08:57:51Z</time>
      </trkpt>
      <trkpt lat="50.72088" lon="3.7937">
        <ele>21.29</ele>
        <time>2017-02-12T08:58:07Z</time>
      </trkpt>
      <trkpt lat="50.72091" lon="3.79348">
        <ele>21.29</ele>
        <time>2017-02-12T08:58:18Z</time>
      </trkpt>
      <trkpt lat="50.72092" lon="3.79337">
        <ele>21.29</ele>
        <time>2017-02-12T08:58:24Z</time>
      </trkpt>
      <trkpt lat="50.72094" lon="3.7933">
        <ele>21.29</ele>
        <time>2017-02-12T08:58:28Z</time>
      </trkpt>
      <trkpt lat="50.72096" lon="3.7932">
        <ele>21.29</ele>
        <time>2017-02-12T08:58:33Z</time>
      </trkpt>
      <trkpt lat="50.72102" lon="3.79292">
        <ele>21.29</ele>
        <time>2017-02-12T08:58:47Z</time>
      </trkpt>
      <trkpt lat="50.72108" lon="3.79251">
        <ele>21.77</ele>
        <time>2017-02-12T08:59:07Z</time>
      </trkpt>
      <trkpt lat="50.72115" lon="3.79216">
        <ele>21.77</ele>
        <time>2017-02-12T08:59:25Z</time>
      </trkpt>
      <trkpt lat="50.72122" lon="3.79186">
        <ele>21.77</ele>
        <time>2017-02-12T08:59:41Z</time>
      </trkpt>
      <trkpt lat="50.7213" lon="3.79153">
        <ele>21.77</ele>
        <time>2017-02-12T08:59:59Z</time>
      </trkpt>
      <trkpt lat="50.72137" lon="3.79126">
        <ele>21.77</ele>
        <time>2017-02-12T09:00:14Z</time>
      </trkpt>
      <trkpt lat="50.72139" lon="3.79121">
        <ele>21.77</ele>
        <time>2017-02-12T09:00:17Z</time>
      </trkpt>
      <trkpt lat="50.72146" lon="3.79097">
        <ele>21.77</ele>
        <time>2017-02-12T09:00:31Z</time>
      </trkpt>
      <trkpt lat="50.72157" lon="3.79064">
        <ele>21.77</ele>
        <time>2017-02-12T09:00:52Z</time>
      </trkpt>
      <trkpt lat="50.7216" lon="3.79057">
        <ele>21.77</ele>
        <time>2017-02-12T09:01:09Z</time>
      </trkpt>
      <trkpt lat="50.72157" lon="3.79055">
        <ele>21.77</ele>
        <time>2017-02-12T09:01:34Z</time>
      </trkpt>
      <trkpt lat="50.72157" lon="3.79048">
        <ele>21.77</ele>
        <time>2017-02-12T09:01:55Z</time>
      </trkpt>
      <trkpt lat="50.72156" lon="3.79045">
        <ele>21.77</ele>
        <time>2017-02-12T09:02:11Z</time>
      </trkpt>
      <trkpt lat="50.72151" lon="3.79042">
        <ele>21.77</ele>
        <time>2017-02-12T09:02:21Z</time>
      </trkpt>
      <trkpt lat="50.72146" lon="3.79038">
        <ele>21.77</ele>
        <time>2017-02-12T09:02:36Z</time>
      </trkpt>
      <trkpt lat="50.72144" lon="3.79033">
        <ele>21.77</ele>
        <time>2017-02-12T09:02:59Z</time>
      </trkpt>
      <trkpt lat="50.72152" lon="3.79039">
        <ele>21.77</ele>
        <time>2017-02-12T09:03:18Z</time>
      </trkpt>
      <trkpt lat="50.72158" lon="3.79045">
        <ele>21.77</ele>
        <time>2017-02-12T09:03:31Z</time>
      </trkpt>
      <trkpt lat="50.7216" lon="3.79053">
        <ele>21.77</ele>
        <time>2017-02-12T09:03:40Z</time>
      </trkpt>
      <trkpt lat="50.72166" lon="3.79064">
        <ele>21.77</ele>
        <time>2017-02-12T09:03:48Z</time>
      </trkpt>
      <trkpt lat="50.72181" lon="3.79078">
        <ele>23.21</ele>
        <time>2017-02-12T09:04:04Z</time>
      </trkpt>
      <trkpt lat="50.72188" lon="3.79082">
        <ele>23.21</ele>
        <time>2017-02-12T09:04:11Z</time>
      </trkpt>
      <trkpt lat="50.72203" lon="3.79084">
        <ele>24.17</ele>
        <time>2017-02-12T09:04:26Z</time>
      </trkpt>
      <trkpt lat="50.72228" lon="3.79087">
        <ele>25.13</ele>
        <time>2017-02-12T09:04:45Z</time>
      </trkpt>
      <trkpt lat="50.72246" lon="3.79088">
        <ele>26.09</ele>
        <time>2017-02-12T09:05:01Z</time>
      </trkpt>
      <trkpt lat="50.72268" lon="3.79093">
        <ele>27.53</ele>
        <time>2017-02-12T09:05:19Z</time>
      </trkpt>
      <trkpt lat="50.7228" lon="3.79095">
        <ele>28.5</ele>
        <time>2017-02-12T09:05:28Z</time>
      </trkpt>
      <trkpt lat="50.72304" lon="3.79099">
        <ele>30.42</ele>
        <time>2017-02-12T09:05:49Z</time>
      </trkpt>
      <trkpt lat="50.72326" lon="3.79102">
        <ele>31.86</ele>
        <time>2017-02-12T09:06:07Z</time>
      </trkpt>
      <trkpt lat="50.72344" lon="3.79106">
        <ele>33.78</ele>
        <time>2017-02-12T09:06:23Z</time>
      </trkpt>
      <trkpt lat="50.72364" lon="3.7911">
        <ele>34.74</ele>
        <time>2017-02-12T09:06:39Z</time>
      </trkpt>
      <trkpt lat="50.7238" lon="3.7911">
        <ele>36.19</ele>
        <time>2017-02-12T09:06:53Z</time>
      </trkpt>
      <trkpt lat="50.72401" lon="3.79113">
        <ele>37.15</ele>
        <time>2017-02-12T09:07:10Z</time>
      </trkpt>
      <trkpt lat="50.72425" lon="3.79112">
        <ele>39.07</ele>
        <time>2017-02-12T09:07:32Z</time>
      </trkpt>
      <trkpt lat="50.72447" lon="3.79111">
        <ele>40.03</ele>
        <time>2017-02-12T09:07:50Z</time>
      </trkpt>
      <trkpt lat="50.72467" lon="3.79108">
        <ele>41.47</ele>
        <time>2017-02-12T09:08:06Z</time>
      </trkpt>
      <trkpt lat="50.72481" lon="3.79104">
        <ele>43.4</ele>
        <time>2017-02-12T09:08:21Z</time>
      </trkpt>
      <trkpt lat="50.72485" lon="3.79101">
        <ele>43.4</ele>
        <time>2017-02-12T09:08:30Z</time>
      </trkpt>
      <trkpt lat="50.72501" lon="3.7908">
        <ele>43.88</ele>
        <time>2017-02-12T09:08:49Z</time>
      </trkpt>
      <trkpt lat="50.72512" lon="3.79061">
        <ele>44.36</ele>
        <time>2017-02-12T09:09:03Z</time>
      </trkpt>
      <trkpt lat="50.72527" lon="3.79043">
        <ele>44.84</ele>
        <time>2017-02-12T09:09:19Z</time>
      </trkpt>
      <trkpt lat="50.72544" lon="3.79027">
        <ele>45.32</ele>
        <time>2017-02-12T09:09:37Z</time>
      </trkpt>
      <trkpt lat="50.72545" lon="3.79026">
        <ele>45.32</ele>
        <time>2017-02-12T09:09:38Z</time>
      </trkpt>
      <trkpt lat="50.72561" lon="3.79011">
        <ele>45.8</ele>
        <time>2017-02-12T09:09:54Z</time>
      </trkpt>
      <trkpt lat="50.72569" lon="3.79004">
        <ele>45.8</ele>
        <time>2017-02-12T09:10:02Z</time>
      </trkpt>
      <trkpt lat="50.72572" lon="3.79">
        <ele>46.28</ele>
        <time>2017-02-12T09:10:06Z</time>
      </trkpt>
      <trkpt lat="50.72588" lon="3.78987">
        <ele>46.28</ele>
        <time>2017-02-12T09:10:21Z</time>
      </trkpt>
      <trkpt lat="50.72603" lon="3.78974">
        <ele>46.28</ele>
        <time>2017-02-12T09:10:35Z</time>
      </trkpt>
      <trkpt lat="50.72622" lon="3.78954">
        <ele>47.24</ele>
        <time>2017-02-12T09:10:53Z</time>
      </trkpt>
      <trkpt lat="50.72634" lon="3.78937">
        <ele>47.24</ele>
        <time>2017-02-12T09:11:07Z</time>
      </trkpt>
      <trkpt lat="50.72646" lon="3.78917">
        <ele>47.72</ele>
        <time>2017-02-12T09:11:23Z</time>
      </trkpt>
      <trkpt lat="50.72659" lon="3.78895">
        <ele>48.68</ele>
        <time>2017-02-12T09:11:38Z</time>
      </trkpt>
      <trkpt lat="50.72668" lon="3.78876">
        <ele>49.65</ele>
        <time>2017-02-12T09:11:51Z</time>
      </trkpt>
      <trkpt lat="50.72671" lon="3.7887">
        <ele>49.65</ele>
        <time>2017-02-12T09:11:55Z</time>
      </trkpt>
      <trkpt lat="50.72676" lon="3.78861">
        <ele>50.61</ele>
        <time>2017-02-12T09:12:02Z</time>
      </trkpt>
      <trkpt lat="50.72683" lon="3.7885">
        <ele>51.09</ele>
        <time>2017-02-12T09:12:11Z</time>
      </trkpt>
      <trkpt lat="50.7269" lon="3.78835">
        <ele>52.05</ele>
        <time>2017-02-12T09:12:23Z</time>
      </trkpt>
      <trkpt lat="50.72692" lon="3.78827">
        <ele>52.05</ele>
        <time>2017-02-12T09:12:38Z</time>
      </trkpt>
      <trkpt lat="50.72692" lon="3.78827">
        <ele>52.05</ele>
        <time>2017-02-12T09:13:01Z</time>
      </trkpt>
      <trkpt lat="50.72694" lon="3.78828">
        <ele>52.05</ele>
        <time>2017-02-12T09:13:25Z</time>
      </trkpt>
      <trkpt lat="50.72695" lon="3.78828">
        <ele>52.53</ele>
        <time>2017-02-12T09:13:50Z</time>
      </trkpt>
      <trkpt lat="50.72695" lon="3.78828">
        <ele>52.53</ele>
        <time>2017-02-12T09:14:05Z</time>
      </trkpt>
      <trkpt lat="50.72695" lon="3.7883">
        <ele>52.53</ele>
        <time>2017-02-12T09:14:27Z</time>
      </trkpt>
      <trkpt lat="50.72696" lon="3.78829">
        <ele>52.53</ele>
        <time>2017-02-12T09:14:49Z</time>
      </trkpt>
      <trkpt lat="50.72698" lon="3.78823">
        <ele>51.57</ele>
        <time>2017-02-12T09:15:06Z</time>
      </trkpt>
      <trkpt lat="50.72701" lon="3.78802">
        <ele>51.57</ele>
        <time>2017-02-12T09:15:22Z</time>
      </trkpt>
      <trkpt lat="50.72706" lon="3.7878">
        <ele>51.09</ele>
        <time>2017-02-12T09:15:39Z</time>
      </trkpt>
      <trkpt lat="50.72712" lon="3.78751">
        <ele>52.53</ele>
        <time>2017-02-12T09:15:54Z</time>
      </trkpt>
      <trkpt lat="50.72718" lon="3.78722">
        <ele>52.53</ele>
        <time>2017-02-12T09:16:09Z</time>
      </trkpt>
      <trkpt lat="50.72725" lon="3.78689">
        <ele>53.49</ele>
        <time>2017-02-12T09:16:25Z</time>
      </trkpt>
      <trkpt lat="50.72733" lon="3.78657">
        <ele>53.97</ele>
        <time>2017-02-12T09:16:42Z</time>
      </trkpt>
      <trkpt lat="50.72741" lon="3.78626">
        <ele>54.45</ele>
        <time>2017-02-12T09:16:58Z</time>
      </trkpt>
      <trkpt lat="50.72751" lon="3.78594">
        <ele>54.93</ele>
        <time>2017-02-12T09:17:16Z</time>
      </trkpt>
      <trkpt lat="50.72764" lon="3.78559">
        <ele>55.41</ele>
        <time>2017-02-12T09:17:35Z</time>
      </trkpt>
      <trkpt lat="50.72778" lon="3.78524">
        <ele>55.41</ele>
        <time>2017-02-12T09:17:55Z</time>
      </trkpt>
      <trkpt lat="50.7279" lon="3.78492">
        <ele>54.93</ele>
        <time>2017-02-12T09:18:14Z</time>
      </trkpt>
      <trkpt lat="50.728" lon="3.78468">
        <ele>53.97</ele>
        <time>2017-02-12T09:18:28Z</time>
      </trkpt>
      <trkpt lat="50.7281" lon="3.78436">
        <ele>52.53</ele>
        <time>2017-02-12T09:18:46Z</time>
      </trkpt>
      <trkpt lat="50.72819" lon="3.78412">
        <ele>51.57</ele>
        <time>2017-02-12T09:19:02Z</time>
      </trkpt>
      <trkpt lat="50.72824" lon="3.78395">
        <ele>50.13</ele>
        <time>2017-02-12T09:19:15Z</time>
      </trkpt>
      <trkpt lat="50.72829" lon="3.78388">
        <ele>48.68</ele>
        <time>2017-02-12T09:19:22Z</time>
      </trkpt>
      <trkpt lat="50.72832" lon="3.78384">
        <ele>48.68</ele>
        <time>2017-02-12T09:19:25Z</time>
      </trkpt>
      <trkpt lat="50.7284" lon="3.78364">
        <ele>47.72</ele>
        <time>2017-02-12T09:19:39Z</time>
      </trkpt>
      <trkpt lat="50.72844" lon="3.78357">
        <ele>47.24</ele>
        <time>2017-02-12T09:19:44Z</time>
      </trkpt>
      <trkpt lat="50.72853" lon="3.78337">
        <ele>46.76</ele>
        <time>2017-02-12T09:19:58Z</time>
      </trkpt>
      <trkpt lat="50.7286" lon="3.7832">
        <ele>46.28</ele>
        <time>2017-02-12T09:20:10Z</time>
      </trkpt>
      <trkpt lat="50.72874" lon="3.783">
        <ele>44.84</ele>
        <time>2017-02-12T09:20:26Z</time>
      </trkpt>
      <trkpt lat="50.72875" lon="3.78297">
        <ele>44.36</ele>
        <time>2017-02-12T09:20:29Z</time>
      </trkpt>
      <trkpt lat="50.7289" lon="3.78279">
        <ele>43.88</ele>
        <time>2017-02-12T09:20:44Z</time>
      </trkpt>
      <trkpt lat="50.7291" lon="3.78256">
        <ele>42.44</ele>
        <time>2017-02-12T09:21:04Z</time>
      </trkpt>
      <trkpt lat="50.72931" lon="3.78241">
        <ele>41.95</ele>
        <time>2017-02-12T09:21:22Z</time>
      </trkpt>
      <trkpt lat="50.72947" lon="3.78229">
        <ele>41.47</ele>
        <time>2017-02-12T09:21:39Z</time>
      </trkpt>
      <trkpt lat="50.72962" lon="3.78216">
        <ele>41.47</ele>
        <time>2017-02-12T09:21:54Z</time>
      </trkpt>
      <trkpt lat="50.72964" lon="3.7821">
        <ele>42.92</ele>
        <time>2017-02-12T09:22:09Z</time>
      </trkpt>
      <trkpt lat="50.72965" lon="3.78208">
        <ele>42.92</ele>
        <time>2017-02-12T09:22:11Z</time>
      </trkpt>
      <trkpt lat="50.72964" lon="3.78189">
        <ele>43.4</ele>
        <time>2017-02-12T09:22:22Z</time>
      </trkpt>
      <trkpt lat="50.72971" lon="3.78178">
        <ele>43.4</ele>
        <time>2017-02-12T09:22:30Z</time>
      </trkpt>
      <trkpt lat="50.7299" lon="3.78158">
        <ele>44.36</ele>
        <time>2017-02-12T09:22:48Z</time>
      </trkpt>
      <trkpt lat="50.7301" lon="3.78139">
        <ele>45.32</ele>
        <time>2017-02-12T09:23:06Z</time>
      </trkpt>
      <trkpt lat="50.73026" lon="3.78128">
        <ele>47.24</ele>
        <time>2017-02-12T09:23:22Z</time>
      </trkpt>
      <trkpt lat="50.73043" lon="3.78128">
        <ele>49.65</ele>
        <time>2017-02-12T09:23:39Z</time>
      </trkpt>
      <trkpt lat="50.7306" lon="3.78121">
        <ele>51.09</ele>
        <time>2017-02-12T09:23:56Z</time>
      </trkpt>
      <trkpt lat="50.73076" lon="3.78113">
        <ele>53.97</ele>
        <time>2017-02-12T09:24:12Z</time>
      </trkpt>
      <trkpt lat="50.73092" lon="3.78101">
        <ele>54.93</ele>
        <time>2017-02-12T09:24:29Z</time>
      </trkpt>
      <trkpt lat="50.73098" lon="3.78093">
        <ele>54.45</ele>
        <time>2017-02-12T09:24:36Z</time>
      </trkpt>
      <trkpt lat="50.73107" lon="3.7807">
        <ele>54.45</ele>
        <time>2017-02-12T09:24:52Z</time>
      </trkpt>
      <trkpt lat="50.73108" lon="3.78066">
        <ele>53.01</ele>
        <time>2017-02-12T09:24:54Z</time>
      </trkpt>
      <trkpt lat="50.73117" lon="3.78043">
        <ele>52.05</ele>
        <time>2017-02-12T09:25:09Z</time>
      </trkpt>
      <trkpt lat="50.73127" lon="3.78018">
        <ele>51.09</ele>
        <time>2017-02-12T09:25:25Z</time>
      </trkpt>
      <trkpt lat="50.73141" lon="3.77996">
        <ele>50.61</ele>
        <time>2017-02-12T09:25:42Z</time>
      </trkpt>
      <trkpt lat="50.73155" lon="3.7798">
        <ele>49.16</ele>
        <time>2017-02-12T09:25:58Z</time>
      </trkpt>
      <trkpt lat="50.73166" lon="3.77971">
        <ele>47.72</ele>
        <time>2017-02-12T09:26:13Z</time>
      </trkpt>
      <trkpt lat="50.7318" lon="3.77963">
        <ele>45.8</ele>
        <time>2017-02-12T09:26:28Z</time>
      </trkpt>
      <trkpt lat="50.73194" lon="3.77954">
        <ele>43.4</ele>
        <time>2017-02-12T09:26:45Z</time>
      </trkpt>
      <trkpt lat="50.73205" lon="3.77947">
        <ele>40.51</ele>
        <time>2017-02-12T09:26:58Z</time>
      </trkpt>
      <trkpt lat="50.73216" lon="3.77935">
        <ele>38.11</ele>
        <time>2017-02-12T09:27:12Z</time>
      </trkpt>
      <trkpt lat="50.73229" lon="3.77914">
        <ele>35.23</ele>
        <time>2017-02-12T09:27:28Z</time>
      </trkpt>
      <trkpt lat="50.73244" lon="3.7789">
        <ele>33.3</ele>
        <time>2017-02-12T09:27:45Z</time>
      </trkpt>
      <trkpt lat="50.73261" lon="3.77865">
        <ele>31.38</ele>
        <time>2017-02-12T09:28:04Z</time>
      </trkpt>
      <trkpt lat="50.73271" lon="3.77849">
        <ele>29.94</ele>
        <time>2017-02-12T09:28:19Z</time>
      </trkpt>
      <trkpt lat="50.73277" lon="3.77829">
        <ele>29.46</ele>
        <time>2017-02-12T09:28:33Z</time>
      </trkpt>
      <trkpt lat="50.73285" lon="3.77802">
        <ele>28.98</ele>
        <time>2017-02-12T09:28:49Z</time>
      </trkpt>
      <trkpt lat="50.73287" lon="3.77798">
        <ele>28.98</ele>
        <time>2017-02-12T09:28:51Z</time>
      </trkpt>
      <trkpt lat="50.73294" lon="3.77779">
        <ele>28.98</ele>
        <time>2017-02-12T09:29:04Z</time>
      </trkpt>
      <trkpt lat="50.73301" lon="3.77752">
        <ele>28.98</ele>
        <time>2017-02-12T09:29:20Z</time>
      </trkpt>
      <trkpt lat="50.7331" lon="3.77723">
        <ele>30.9</ele>
        <time>2017-02-12T09:29:36Z</time>
      </trkpt>
      <trkpt lat="50.7332" lon="3.77693">
        <ele>31.38</ele>
        <time>2017-02-12T09:29:52Z</time>
      </trkpt>
      <trkpt lat="50.73328" lon="3.77663">
        <ele>31.38</ele>
        <time>2017-02-12T09:30:07Z</time>
      </trkpt>
      <trkpt lat="50.73341" lon="3.77629">
        <ele>31.38</ele>
        <time>2017-02-12T09:30:26Z</time>
      </trkpt>
      <trkpt lat="50.7335" lon="3.77599">
        <ele>31.38</ele>
        <time>2017-02-12T09:30:42Z</time>
      </trkpt>
      <trkpt lat="50.73363" lon="3.77565">
        <ele>31.38</ele>
        <time>2017-02-12T09:31:01Z</time>
      </trkpt>
      <trkpt lat="50.73364" lon="3.77562">
        <ele>31.38</ele>
        <time>2017-02-12T09:31:03Z</time>
      </trkpt>
      <trkpt lat="50.73369" lon="3.77552">
        <ele>31.38</ele>
        <time>2017-02-12T09:31:09Z</time>
      </trkpt>
      <trkpt lat="50.73373" lon="3.77537">
        <ele>31.38</ele>
        <time>2017-02-12T09:31:16Z</time>
      </trkpt>
      <trkpt lat="50.73373" lon="3.77532">
        <ele>31.38</ele>
        <time>2017-02-12T09:31:19Z</time>
      </trkpt>
      <trkpt lat="50.73381" lon="3.77511">
        <ele>32.82</ele>
        <time>2017-02-12T09:31:34Z</time>
      </trkpt>
      <trkpt lat="50.7339" lon="3.77483">
        <ele>32.82</ele>
        <time>2017-02-12T09:31:48Z</time>
      </trkpt>
      <trkpt lat="50.73392" lon="3.77476">
        <ele>32.82</ele>
        <time>2017-02-12T09:31:52Z</time>
      </trkpt>
      <trkpt lat="50.73411" lon="3.77445">
        <ele>32.82</ele>
        <time>2017-02-12T09:32:11Z</time>
      </trkpt>
      <trkpt lat="50.73427" lon="3.77419">
        <ele>32.82</ele>
        <time>2017-02-12T09:32:29Z</time>
      </trkpt>
      <trkpt lat="50.73431" lon="3.77419">
        <ele>32.82</ele>
        <time>2017-02-12T09:32:43Z</time>
      </trkpt>
      <trkpt lat="50.73431" lon="3.77418">
        <ele>32.82</ele>
        <time>2017-02-12T09:33:04Z</time>
      </trkpt>
      <trkpt lat="50.73432" lon="3.7742">
        <ele>32.82</ele>
        <time>2017-02-12T09:33:21Z</time>
      </trkpt>
      <trkpt lat="50.73435" lon="3.77424">
        <ele>32.82</ele>
        <time>2017-02-12T09:33:25Z</time>
      </trkpt>
      <trkpt lat="50.7344" lon="3.77432">
        <ele>33.78</ele>
        <time>2017-02-12T09:33:31Z</time>
      </trkpt>
      <trkpt lat="50.73449" lon="3.77457">
        <ele>35.23</ele>
        <time>2017-02-12T09:33:47Z</time>
      </trkpt>
      <trkpt lat="50.7346" lon="3.77482">
        <ele>37.15</ele>
        <time>2017-02-12T09:34:04Z</time>
      </trkpt>
      <trkpt lat="50.73468" lon="3.77504">
        <ele>38.11</ele>
        <time>2017-02-12T09:34:19Z</time>
      </trkpt>
      <trkpt lat="50.73479" lon="3.77531">
        <ele>40.03</ele>
        <time>2017-02-12T09:34:36Z</time>
      </trkpt>
      <trkpt lat="50.73491" lon="3.77554">
        <ele>40.99</ele>
        <time>2017-02-12T09:34:52Z</time>
      </trkpt>
      <trkpt lat="50.73502" lon="3.77577">
        <ele>41.47</ele>
        <time>2017-02-12T09:35:08Z</time>
      </trkpt>
      <trkpt lat="50.73514" lon="3.77603">
        <ele>42.44</ele>
        <time>2017-02-12T09:35:25Z</time>
      </trkpt>
      <trkpt lat="50.73526" lon="3.77627">
        <ele>42.92</ele>
        <time>2017-02-12T09:35:41Z</time>
      </trkpt>
      <trkpt lat="50.73537" lon="3.77651">
        <ele>43.88</ele>
        <time>2017-02-12T09:35:57Z</time>
      </trkpt>
      <trkpt lat="50.73546" lon="3.77676">
        <ele>43.88</ele>
        <time>2017-02-12T09:36:14Z</time>
      </trkpt>
      <trkpt lat="50.7355" lon="3.77705">
        <ele>44.36</ele>
        <time>2017-02-12T09:36:30Z</time>
      </trkpt>
      <trkpt lat="50.73553" lon="3.7772">
        <ele>44.84</ele>
        <time>2017-02-12T09:36:38Z</time>
      </trkpt>
      <trkpt lat="50.73555" lon="3.77729">
        <ele>44.84</ele>
        <time>2017-02-12T09:36:43Z</time>
      </trkpt>
      <trkpt lat="50.73559" lon="3.77754">
        <ele>44.84</ele>
        <time>2017-02-12T09:36:57Z</time>
      </trkpt>
      <trkpt lat="50.73565" lon="3.7779">
        <ele>45.32</ele>
        <time>2017-02-12T09:37:16Z</time>
      </trkpt>
      <trkpt lat="50.73571" lon="3.77826">
        <ele>45.8</ele>
        <time>2017-02-12T09:37:35Z</time>
      </trkpt>
      <trkpt lat="50.73577" lon="3.77858">
        <ele>46.76</ele>
        <time>2017-02-12T09:37:53Z</time>
      </trkpt>
      <trkpt lat="50.73585" lon="3.77891">
        <ele>47.24</ele>
        <time>2017-02-12T09:38:12Z</time>
      </trkpt>
      <trkpt lat="50.73591" lon="3.77908">
        <ele>47.24</ele>
        <time>2017-02-12T09:38:24Z</time>
      </trkpt>
      <trkpt lat="50.73601" lon="3.77938">
        <ele>47.24</ele>
        <time>2017-02-12T09:38:42Z</time>
      </trkpt>
      <trkpt lat="50.7361" lon="3.77959">
        <ele>47.72</ele>
        <time>2017-02-12T09:38:56Z</time>
      </trkpt>
      <trkpt lat="50.73618" lon="3.77982">
        <ele>47.72</ele>
        <time>2017-02-12T09:39:11Z</time>
      </trkpt>
      <trkpt lat="50.73632" lon="3.78014">
        <ele>47.72</ele>
        <time>2017-02-12T09:39:30Z</time>
      </trkpt>
      <trkpt lat="50.73644" lon="3.78048">
        <ele>48.68</ele>
        <time>2017-02-12T09:39:47Z</time>
      </trkpt>
      <trkpt lat="50.73657" lon="3.78086">
        <ele>49.16</ele>
        <time>2017-02-12T09:40:07Z</time>
      </trkpt>
      <trkpt lat="50.73669" lon="3.78119">
        <ele>49.65</ele>
        <time>2017-02-12T09:40:24Z</time>
      </trkpt>
      <trkpt lat="50.73683" lon="3.78153">
        <ele>51.09</ele>
        <time>2017-02-12T09:40:42Z</time>
      </trkpt>
      <trkpt lat="50.73693" lon="3.78187">
        <ele>51.57</ele>
        <time>2017-02-12T09:41:01Z</time>
      </trkpt>
      <trkpt lat="50.73695" lon="3.78194">
        <ele>51.57</ele>
        <time>2017-02-12T09:41:07Z</time>
      </trkpt>
      <trkpt lat="50.73698" lon="3.782">
        <ele>51.57</ele>
        <time>2017-02-12T09:41:11Z</time>
      </trkpt>
      <trkpt lat="50.73711" lon="3.78236">
        <ele>52.05</ele>
        <time>2017-02-12T09:41:30Z</time>
      </trkpt>
      <trkpt lat="50.73722" lon="3.78268">
        <ele>52.05</ele>
        <time>2017-02-12T09:41:48Z</time>
      </trkpt>
      <trkpt lat="50.73735" lon="3.78296">
        <ele>52.05</ele>
        <time>2017-02-12T09:42:05Z</time>
      </trkpt>
      <trkpt lat="50.73746" lon="3.78284">
        <ele>51.09</ele>
        <time>2017-02-12T09:42:19Z</time>
      </trkpt>
      <trkpt lat="50.73747" lon="3.78284">
        <ele>51.09</ele>
        <time>2017-02-12T09:42:20Z</time>
      </trkpt>
      <trkpt lat="50.73749" lon="3.78276">
        <ele>51.09</ele>
        <time>2017-02-12T09:42:25Z</time>
      </trkpt>
      <trkpt lat="50.73762" lon="3.78243">
        <ele>51.09</ele>
        <time>2017-02-12T09:42:44Z</time>
      </trkpt>
      <trkpt lat="50.73777" lon="3.78208">
        <ele>50.61</ele>
        <time>2017-02-12T09:43:04Z</time>
      </trkpt>
      <trkpt lat="50.73788" lon="3.78183">
        <ele>49.16</ele>
        <time>2017-02-12T09:43:20Z</time>
      </trkpt>
      <trkpt lat="50.73795" lon="3.78164">
        <ele>48.68</ele>
        <time>2017-02-12T09:43:31Z</time>
      </trkpt>
      <trkpt lat="50.73805" lon="3.78137">
        <ele>47.72</ele>
        <time>2017-02-12T09:43:46Z</time>
      </trkpt>
      <trkpt lat="50.73818" lon="3.78105">
        <ele>46.28</ele>
        <time>2017-02-12T09:44:04Z</time>
      </trkpt>
      <trkpt lat="50.73832" lon="3.78073">
        <ele>44.84</ele>
        <time>2017-02-12T09:44:22Z</time>
      </trkpt>
      <trkpt lat="50.7384" lon="3.78047">
        <ele>42.44</ele>
        <time>2017-02-12T09:44:38Z</time>
      </trkpt>
      <trkpt lat="50.7384" lon="3.78046">
        <ele>42.44</ele>
        <time>2017-02-12T09:44:39Z</time>
      </trkpt>
      <trkpt lat="50.7385" lon="3.7803">
        <ele>41.47</ele>
        <time>2017-02-12T09:44:50Z</time>
      </trkpt>
      <trkpt lat="50.73852" lon="3.78025">
        <ele>40.99</ele>
        <time>2017-02-12T09:44:54Z</time>
      </trkpt>
      <trkpt lat="50.73867" lon="3.78009">
        <ele>39.07</ele>
        <time>2017-02-12T09:45:09Z</time>
      </trkpt>
      <trkpt lat="50.73881" lon="3.77985">
        <ele>37.63</ele>
        <time>2017-02-12T09:45:23Z</time>
      </trkpt>
      <trkpt lat="50.73885" lon="3.77978">
        <ele>37.15</ele>
        <time>2017-02-12T09:45:27Z</time>
      </trkpt>
      <trkpt lat="50.73903" lon="3.77953">
        <ele>35.23</ele>
        <time>2017-02-12T09:45:44Z</time>
      </trkpt>
      <trkpt lat="50.73907" lon="3.77921">
        <ele>33.78</ele>
        <time>2017-02-12T09:46:00Z</time>
      </trkpt>
      <trkpt lat="50.73905" lon="3.77911">
        <ele>33.3</ele>
        <time>2017-02-12T09:46:06Z</time>
      </trkpt>
      <trkpt lat="50.73905" lon="3.77882">
        <ele>32.34</ele>
        <time>2017-02-12T09:46:19Z</time>
      </trkpt>
      <trkpt lat="50.73913" lon="3.77856">
        <ele>30.9</ele>
        <time>2017-02-12T09:46:34Z</time>
      </trkpt>
      <trkpt lat="50.73927" lon="3.77831">
        <ele>29.46</ele>
        <time>2017-02-12T09:46:49Z</time>
      </trkpt>
      <trkpt lat="50.7394" lon="3.77802">
        <ele>28.5</ele>
        <time>2017-02-12T09:47:05Z</time>
      </trkpt>
      <trkpt lat="50.73955" lon="3.77773">
        <ele>28.02</ele>
        <time>2017-02-12T09:47:25Z</time>
      </trkpt>
      <trkpt lat="50.73959" lon="3.77766">
        <ele>28.02</ele>
        <time>2017-02-12T09:47:30Z</time>
      </trkpt>
      <trkpt lat="50.73966" lon="3.77745">
        <ele>27.05</ele>
        <time>2017-02-12T09:47:47Z</time>
      </trkpt>
      <trkpt lat="50.73968" lon="3.77731">
        <ele>27.05</ele>
        <time>2017-02-12T09:48:02Z</time>
      </trkpt>
      <trkpt lat="50.7397" lon="3.77694">
        <ele>27.05</ele>
        <time>2017-02-12T09:48:19Z</time>
      </trkpt>
      <trkpt lat="50.7397" lon="3.77665">
        <ele>26.57</ele>
        <time>2017-02-12T09:48:34Z</time>
      </trkpt>
      <trkpt lat="50.73972" lon="3.77628">
        <ele>26.57</ele>
        <time>2017-02-12T09:48:51Z</time>
      </trkpt>
      <trkpt lat="50.73983" lon="3.77581">
        <ele>26.57</ele>
        <time>2017-02-12T09:49:14Z</time>
      </trkpt>
      <trkpt lat="50.73995" lon="3.77555">
        <ele>28.02</ele>
        <time>2017-02-12T09:49:30Z</time>
      </trkpt>
      <trkpt lat="50.74011" lon="3.77522">
        <ele>28.98</ele>
        <time>2017-02-12T09:49:50Z</time>
      </trkpt>
      <trkpt lat="50.74018" lon="3.77506">
        <ele>29.46</ele>
        <time>2017-02-12T09:49:59Z</time>
      </trkpt>
      <trkpt lat="50.74022" lon="3.77491">
        <ele>29.94</ele>
        <time>2017-02-12T09:50:07Z</time>
      </trkpt>
      <trkpt lat="50.74031" lon="3.77472">
        <ele>30.9</ele>
        <time>2017-02-12T09:50:19Z</time>
      </trkpt>
      <trkpt lat="50.7405" lon="3.77478">
        <ele>32.34</ele>
        <time>2017-02-12T09:50:36Z</time>
      </trkpt>
      <trkpt lat="50.74065" lon="3.77469">
        <ele>32.82</ele>
        <time>2017-02-12T09:50:49Z</time>
      </trkpt>
      <trkpt lat="50.74082" lon="3.77453">
        <ele>33.78</ele>
        <time>2017-02-12T09:51:06Z</time>
      </trkpt>
      <trkpt lat="50.74102" lon="3.77435">
        <ele>34.26</ele>
        <time>2017-02-12T09:51:23Z</time>
      </trkpt>
      <trkpt lat="50.74122" lon="3.77421">
        <ele>34.74</ele>
        <time>2017-02-12T09:51:40Z</time>
      </trkpt>
      <trkpt lat="50.74138" lon="3.77409">
        <ele>34.74</ele>
        <time>2017-02-12T09:51:55Z</time>
      </trkpt>
      <trkpt lat="50.7416" lon="3.77389">
        <ele>34.74</ele>
        <time>2017-02-12T09:52:14Z</time>
      </trkpt>
      <trkpt lat="50.74177" lon="3.77372">
        <ele>36.19</ele>
        <time>2017-02-12T09:52:30Z</time>
      </trkpt>
      <trkpt lat="50.74195" lon="3.7735">
        <ele>36.67</ele>
        <time>2017-02-12T09:52:48Z</time>
      </trkpt>
      <trkpt lat="50.74212" lon="3.77331">
        <ele>37.63</ele>
        <time>2017-02-12T09:53:05Z</time>
      </trkpt>
      <trkpt lat="50.74231" lon="3.77305">
        <ele>38.59</ele>
        <time>2017-02-12T09:53:25Z</time>
      </trkpt>
      <trkpt lat="50.74248" lon="3.7728">
        <ele>40.03</ele>
        <time>2017-02-12T09:53:43Z</time>
      </trkpt>
      <trkpt lat="50.74266" lon="3.77253">
        <ele>40.51</ele>
        <time>2017-02-12T09:54:03Z</time>
      </trkpt>
      <trkpt lat="50.74281" lon="3.7723">
        <ele>41.47</ele>
        <time>2017-02-12T09:54:19Z</time>
      </trkpt>
      <trkpt lat="50.74294" lon="3.77207">
        <ele>41.95</ele>
        <time>2017-02-12T09:54:35Z</time>
      </trkpt>
      <trkpt lat="50.743" lon="3.77194">
        <ele>41.95</ele>
        <time>2017-02-12T09:54:44Z</time>
      </trkpt>
      <trkpt lat="50.74315" lon="3.77167">
        <ele>42.44</ele>
        <time>2017-02-12T09:55:04Z</time>
      </trkpt>
      <trkpt lat="50.7433" lon="3.77141">
        <ele>42.44</ele>
        <time>2017-02-12T09:55:22Z</time>
      </trkpt>
      <trkpt lat="50.74342" lon="3.77117">
        <ele>42.92</ele>
        <time>2017-02-12T09:55:38Z</time>
      </trkpt>
      <trkpt lat="50.74359" lon="3.77088">
        <ele>42.92</ele>
        <time>2017-02-12T09:55:57Z</time>
      </trkpt>
      <trkpt lat="50.74379" lon="3.77056">
        <ele>43.4</ele>
        <time>2017-02-12T09:56:17Z</time>
      </trkpt>
      <trkpt lat="50.74397" lon="3.77028">
        <ele>43.88</ele>
        <time>2017-02-12T09:56:36Z</time>
      </trkpt>
      <trkpt lat="50.74413" lon="3.77002">
        <ele>44.84</ele>
        <time>2017-02-12T09:56:55Z</time>
      </trkpt>
      <trkpt lat="50.74433" lon="3.76976">
        <ele>45.32</ele>
        <time>2017-02-12T09:57:14Z</time>
      </trkpt>
      <trkpt lat="50.74454" lon="3.76954">
        <ele>45.8</ele>
        <time>2017-02-12T09:57:33Z</time>
      </trkpt>
      <trkpt lat="50.74473" lon="3.76934">
        <ele>46.28</ele>
        <time>2017-02-12T09:57:51Z</time>
      </trkpt>
      <trkpt lat="50.74493" lon="3.76912">
        <ele>47.72</ele>
        <time>2017-02-12T09:58:10Z</time>
      </trkpt>
      <trkpt lat="50.74509" lon="3.76891">
        <ele>47.72</ele>
        <time>2017-02-12T09:58:27Z</time>
      </trkpt>
      <trkpt lat="50.74527" lon="3.76869">
        <ele>49.16</ele>
        <time>2017-02-12T09:58:45Z</time>
      </trkpt>
      <trkpt lat="50.74543" lon="3.7685">
        <ele>49.65</ele>
        <time>2017-02-12T09:59:01Z</time>
      </trkpt>
      <trkpt lat="50.74551" lon="3.7684">
        <ele>50.13</ele>
        <time>2017-02-12T09:59:10Z</time>
      </trkpt>
      <trkpt lat="50.74565" lon="3.76818">
        <ele>50.61</ele>
        <time>2017-02-12T09:59:26Z</time>
      </trkpt>
      <trkpt lat="50.74576" lon="3.76804">
        <ele>51.09</ele>
        <time>2017-02-12T09:59:38Z</time>
      </trkpt>
      <trkpt lat="50.74592" lon="3.76784">
        <ele>51.57</ele>
        <time>2017-02-12T09:59:55Z</time>
      </trkpt>
      <trkpt lat="50.74604" lon="3.76767">
        <ele>50.61</ele>
        <time>2017-02-12T10:00:10Z</time>
      </trkpt>
      <trkpt lat="50.74606" lon="3.76764">
        <ele>50.61</ele>
        <time>2017-02-12T10:00:13Z</time>
      </trkpt>
      <trkpt lat="50.74606" lon="3.76757">
        <ele>50.61</ele>
        <time>2017-02-12T10:00:17Z</time>
      </trkpt>
      <trkpt lat="50.74601" lon="3.76751">
        <ele>50.13</ele>
        <time>2017-02-12T10:00:22Z</time>
      </trkpt>
      <trkpt lat="50.74583" lon="3.76727">
        <ele>49.65</ele>
        <time>2017-02-12T10:00:40Z</time>
      </trkpt>
      <trkpt lat="50.74567" lon="3.76703">
        <ele>49.16</ele>
        <time>2017-02-12T10:00:57Z</time>
      </trkpt>
      <trkpt lat="50.7455" lon="3.76678">
        <ele>48.2</ele>
        <time>2017-02-12T10:01:15Z</time>
      </trkpt>
      <trkpt lat="50.74534" lon="3.76656">
        <ele>47.24</ele>
        <time>2017-02-12T10:01:31Z</time>
      </trkpt>
      <trkpt lat="50.74515" lon="3.76629">
        <ele>46.76</ele>
        <time>2017-02-12T10:01:51Z</time>
      </trkpt>
      <trkpt lat="50.7451" lon="3.76622">
        <ele>46.76</ele>
        <time>2017-02-12T10:01:56Z</time>
      </trkpt>
      <trkpt lat="50.74506" lon="3.76615">
        <ele>46.28</ele>
        <time>2017-02-12T10:02:00Z</time>
      </trkpt>
      <trkpt lat="50.74489" lon="3.76588">
        <ele>45.8</ele>
        <time>2017-02-12T10:02:18Z</time>
      </trkpt>
      <trkpt lat="50.74478" lon="3.76572">
        <ele>45.8</ele>
        <time>2017-02-12T10:02:30Z</time>
      </trkpt>
      <trkpt lat="50.74469" lon="3.76554">
        <ele>45.32</ele>
        <time>2017-02-12T10:02:42Z</time>
      </trkpt>
      <trkpt lat="50.74472" lon="3.76546">
        <ele>45.32</ele>
        <time>2017-02-12T10:02:46Z</time>
      </trkpt>
      <trkpt lat="50.74489" lon="3.76522">
        <ele>45.32</ele>
        <time>2017-02-12T10:03:04Z</time>
      </trkpt>
      <trkpt lat="50.74501" lon="3.76501">
        <ele>45.32</ele>
        <time>2017-02-12T10:03:19Z</time>
      </trkpt>
      <trkpt lat="50.74507" lon="3.76492">
        <ele>45.32</ele>
        <time>2017-02-12T10:03:26Z</time>
      </trkpt>
      <trkpt lat="50.74521" lon="3.76468">
        <ele>46.76</ele>
        <time>2017-02-12T10:03:43Z</time>
      </trkpt>
      <trkpt lat="50.74536" lon="3.76445">
        <ele>47.24</ele>
        <time>2017-02-12T10:03:59Z</time>
      </trkpt>
      <trkpt lat="50.74548" lon="3.76425">
        <ele>48.2</ele>
        <time>2017-02-12T10:04:14Z</time>
      </trkpt>
      <trkpt lat="50.74562" lon="3.76402">
        <ele>48.2</ele>
        <time>2017-02-12T10:04:30Z</time>
      </trkpt>
      <trkpt lat="50.74577" lon="3.76378">
        <ele>49.65</ele>
        <time>2017-02-12T10:04:47Z</time>
      </trkpt>
      <trkpt lat="50.7458" lon="3.76373">
        <ele>50.13</ele>
        <time>2017-02-12T10:04:51Z</time>
      </trkpt>
      <trkpt lat="50.7458" lon="3.76367">
        <ele>50.13</ele>
        <time>2017-02-12T10:05:04Z</time>
      </trkpt>
      <trkpt lat="50.74591" lon="3.76355">
        <ele>50.61</ele>
        <time>2017-02-12T10:05:16Z</time>
      </trkpt>
      <trkpt lat="50.74605" lon="3.76332">
        <ele>51.09</ele>
        <time>2017-02-12T10:05:32Z</time>
      </trkpt>
      <trkpt lat="50.74617" lon="3.76315">
        <ele>52.05</ele>
        <time>2017-02-12T10:05:45Z</time>
      </trkpt>
      <trkpt lat="50.74626" lon="3.76289">
        <ele>53.01</ele>
        <time>2017-02-12T10:06:00Z</time>
      </trkpt>
      <trkpt lat="50.74631" lon="3.76263">
        <ele>53.49</ele>
        <time>2017-02-12T10:06:15Z</time>
      </trkpt>
      <trkpt lat="50.74643" lon="3.76241">
        <ele>54.93</ele>
        <time>2017-02-12T10:06:32Z</time>
      </trkpt>
      <trkpt lat="50.74654" lon="3.7622">
        <ele>55.89</ele>
        <time>2017-02-12T10:06:47Z</time>
      </trkpt>
      <trkpt lat="50.74662" lon="3.76198">
        <ele>57.34</ele>
        <time>2017-02-12T10:07:02Z</time>
      </trkpt>
      <trkpt lat="50.74662" lon="3.76188">
        <ele>57.82</ele>
        <time>2017-02-12T10:07:09Z</time>
      </trkpt>
      <trkpt lat="50.7466" lon="3.7616">
        <ele>59.26</ele>
        <time>2017-02-12T10:07:26Z</time>
      </trkpt>
      <trkpt lat="50.74661" lon="3.7615">
        <ele>59.74</ele>
        <time>2017-02-12T10:07:34Z</time>
      </trkpt>
      <trkpt lat="50.74663" lon="3.76127">
        <ele>60.22</ele>
        <time>2017-02-12T10:07:49Z</time>
      </trkpt>
      <trkpt lat="50.74673" lon="3.76103">
        <ele>61.66</ele>
        <time>2017-02-12T10:08:06Z</time>
      </trkpt>
      <trkpt lat="50.74683" lon="3.76082">
        <ele>63.58</ele>
        <time>2017-02-12T10:08:22Z</time>
      </trkpt>
      <trkpt lat="50.74668" lon="3.76056">
        <ele>65.51</ele>
        <time>2017-02-12T10:08:40Z</time>
      </trkpt>
      <trkpt lat="50.74663" lon="3.7605">
        <ele>66.47</ele>
        <time>2017-02-12T10:08:48Z</time>
      </trkpt>
      <trkpt lat="50.74648" lon="3.76026">
        <ele>66.47</ele>
        <time>2017-02-12T10:09:06Z</time>
      </trkpt>
      <trkpt lat="50.74635" lon="3.76011">
        <ele>66.47</ele>
        <time>2017-02-12T10:09:19Z</time>
      </trkpt>
      <trkpt lat="50.74635" lon="3.76009">
        <ele>65.03</ele>
        <time>2017-02-12T10:09:21Z</time>
      </trkpt>
      <trkpt lat="50.7462" lon="3.7599">
        <ele>63.58</ele>
        <time>2017-02-12T10:09:37Z</time>
      </trkpt>
      <trkpt lat="50.74618" lon="3.75985">
        <ele>63.58</ele>
        <time>2017-02-12T10:09:39Z</time>
      </trkpt>
      <trkpt lat="50.74606" lon="3.75965">
        <ele>61.66</ele>
        <time>2017-02-12T10:09:52Z</time>
      </trkpt>
      <trkpt lat="50.74605" lon="3.75964">
        <ele>62.14</ele>
        <time>2017-02-12T10:09:53Z</time>
      </trkpt>
      <trkpt lat="50.74598" lon="3.75955">
        <ele>61.18</ele>
        <time>2017-02-12T10:09:59Z</time>
      </trkpt>
      <trkpt lat="50.74578" lon="3.75941">
        <ele>61.18</ele>
        <time>2017-02-12T10:10:16Z</time>
      </trkpt>
      <trkpt lat="50.74566" lon="3.75934">
        <ele>61.18</ele>
        <time>2017-02-12T10:10:30Z</time>
      </trkpt>
      <trkpt lat="50.74563" lon="3.75932">
        <ele>61.18</ele>
        <time>2017-02-12T10:10:34Z</time>
      </trkpt>
      <trkpt lat="50.74559" lon="3.7593">
        <ele>61.18</ele>
        <time>2017-02-12T10:10:37Z</time>
      </trkpt>
      <trkpt lat="50.74554" lon="3.75928">
        <ele>60.7</ele>
        <time>2017-02-12T10:10:41Z</time>
      </trkpt>
      <trkpt lat="50.7454" lon="3.75912">
        <ele>58.3</ele>
        <time>2017-02-12T10:10:56Z</time>
      </trkpt>
      <trkpt lat="50.74528" lon="3.75895">
        <ele>55.89</ele>
        <time>2017-02-12T10:11:12Z</time>
      </trkpt>
      <trkpt lat="50.74526" lon="3.75891">
        <ele>55.41</ele>
        <time>2017-02-12T10:11:16Z</time>
      </trkpt>
      <trkpt lat="50.74514" lon="3.75878">
        <ele>53.49</ele>
        <time>2017-02-12T10:11:31Z</time>
      </trkpt>
      <trkpt lat="50.74506" lon="3.75865">
        <ele>51.09</ele>
        <time>2017-02-12T10:11:44Z</time>
      </trkpt>
      <trkpt lat="50.74492" lon="3.75848">
        <ele>48.68</ele>
        <time>2017-02-12T10:12:01Z</time>
      </trkpt>
      <trkpt lat="50.74481" lon="3.7583">
        <ele>45.8</ele>
        <time>2017-02-12T10:12:18Z</time>
      </trkpt>
      <trkpt lat="50.74468" lon="3.75811">
        <ele>42.92</ele>
        <time>2017-02-12T10:12:36Z</time>
      </trkpt>
      <trkpt lat="50.74456" lon="3.758">
        <ele>40.03</ele>
        <time>2017-02-12T10:12:52Z</time>
      </trkpt>
      <trkpt lat="50.74442" lon="3.75792">
        <ele>37.15</ele>
        <time>2017-02-12T10:13:09Z</time>
      </trkpt>
      <trkpt lat="50.74428" lon="3.75773">
        <ele>35.71</ele>
        <time>2017-02-12T10:13:25Z</time>
      </trkpt>
      <trkpt lat="50.74415" lon="3.75754">
        <ele>33.78</ele>
        <time>2017-02-12T10:13:41Z</time>
      </trkpt>
      <trkpt lat="50.74406" lon="3.75737">
        <ele>31.86</ele>
        <time>2017-02-12T10:13:55Z</time>
      </trkpt>
      <trkpt lat="50.74397" lon="3.75709">
        <ele>30.9</ele>
        <time>2017-02-12T10:14:11Z</time>
      </trkpt>
      <trkpt lat="50.74392" lon="3.75688">
        <ele>30.42</ele>
        <time>2017-02-12T10:14:24Z</time>
      </trkpt>
      <trkpt lat="50.74388" lon="3.75654">
        <ele>29.46</ele>
        <time>2017-02-12T10:14:40Z</time>
      </trkpt>
      <trkpt lat="50.74384" lon="3.75623">
        <ele>28.98</ele>
        <time>2017-02-12T10:14:58Z</time>
      </trkpt>
      <trkpt lat="50.74381" lon="3.75601">
        <ele>28.98</ele>
        <time>2017-02-12T10:15:15Z</time>
      </trkpt>
      <trkpt lat="50.74377" lon="3.75586">
        <ele>28.5</ele>
        <time>2017-02-12T10:15:27Z</time>
      </trkpt>
      <trkpt lat="50.74365" lon="3.7557">
        <ele>28.5</ele>
        <time>2017-02-12T10:15:42Z</time>
      </trkpt>
      <trkpt lat="50.74352" lon="3.75553">
        <ele>28.02</ele>
        <time>2017-02-12T10:15:59Z</time>
      </trkpt>
      <trkpt lat="50.74342" lon="3.75536">
        <ele>27.53</ele>
        <time>2017-02-12T10:16:14Z</time>
      </trkpt>
      <trkpt lat="50.74336" lon="3.75528">
        <ele>28.5</ele>
        <time>2017-02-12T10:16:21Z</time>
      </trkpt>
      <trkpt lat="50.74334" lon="3.75524">
        <ele>28.5</ele>
        <time>2017-02-12T10:16:24Z</time>
      </trkpt>
      <trkpt lat="50.74328" lon="3.75507">
        <ele>28.98</ele>
        <time>2017-02-12T10:16:34Z</time>
      </trkpt>
      <trkpt lat="50.74314" lon="3.75488">
        <ele>28.98</ele>
        <time>2017-02-12T10:16:53Z</time>
      </trkpt>
      <trkpt lat="50.74303" lon="3.75464">
        <ele>29.46</ele>
        <time>2017-02-12T10:17:09Z</time>
      </trkpt>
      <trkpt lat="50.74293" lon="3.75439">
        <ele>29.46</ele>
        <time>2017-02-12T10:17:24Z</time>
      </trkpt>
      <trkpt lat="50.74283" lon="3.75412">
        <ele>29.94</ele>
        <time>2017-02-12T10:17:41Z</time>
      </trkpt>
      <trkpt lat="50.74274" lon="3.7539">
        <ele>30.42</ele>
        <time>2017-02-12T10:17:55Z</time>
      </trkpt>
      <trkpt lat="50.74265" lon="3.75363">
        <ele>31.38</ele>
        <time>2017-02-12T10:18:11Z</time>
      </trkpt>
      <trkpt lat="50.74257" lon="3.75335">
        <ele>31.86</ele>
        <time>2017-02-12T10:18:28Z</time>
      </trkpt>
      <trkpt lat="50.74247" lon="3.75308">
        <ele>33.78</ele>
        <time>2017-02-12T10:18:45Z</time>
      </trkpt>
      <trkpt lat="50.74241" lon="3.75284">
        <ele>34.74</ele>
        <time>2017-02-12T10:18:59Z</time>
      </trkpt>
      <trkpt lat="50.74235" lon="3.75265">
        <ele>36.19</ele>
        <time>2017-02-12T10:19:10Z</time>
      </trkpt>
      <trkpt lat="50.74228" lon="3.75237">
        <ele>37.15</ele>
        <time>2017-02-12T10:19:26Z</time>
      </trkpt>
      <trkpt lat="50.74221" lon="3.75211">
        <ele>38.59</ele>
        <time>2017-02-12T10:19:41Z</time>
      </trkpt>
      <trkpt lat="50.74211" lon="3.75183">
        <ele>39.55</ele>
        <time>2017-02-12T10:19:58Z</time>
      </trkpt>
      <trkpt lat="50.74194" lon="3.75156">
        <ele>40.03</ele>
        <time>2017-02-12T10:20:16Z</time>
      </trkpt>
      <trkpt lat="50.74178" lon="3.75141">
        <ele>40.03</ele>
        <time>2017-02-12T10:20:30Z</time>
      </trkpt>
      <trkpt lat="50.74162" lon="3.75123">
        <ele>40.03</ele>
        <time>2017-02-12T10:20:46Z</time>
      </trkpt>
      <trkpt lat="50.74149" lon="3.75095">
        <ele>40.03</ele>
        <time>2017-02-12T10:21:05Z</time>
      </trkpt>
      <trkpt lat="50.74143" lon="3.75068">
        <ele>38.59</ele>
        <time>2017-02-12T10:21:19Z</time>
      </trkpt>
      <trkpt lat="50.74143" lon="3.75066">
        <ele>38.59</ele>
        <time>2017-02-12T10:21:20Z</time>
      </trkpt>
      <trkpt lat="50.74137" lon="3.7503">
        <ele>37.63</ele>
        <time>2017-02-12T10:21:39Z</time>
      </trkpt>
      <trkpt lat="50.74136" lon="3.75017">
        <ele>37.63</ele>
        <time>2017-02-12T10:21:46Z</time>
      </trkpt>
      <trkpt lat="50.74136" lon="3.7501">
        <ele>37.63</ele>
        <time>2017-02-12T10:21:50Z</time>
      </trkpt>
      <trkpt lat="50.74135" lon="3.74983">
        <ele>37.63</ele>
        <time>2017-02-12T10:22:06Z</time>
      </trkpt>
      <trkpt lat="50.74136" lon="3.74975">
        <ele>37.63</ele>
        <time>2017-02-12T10:22:10Z</time>
      </trkpt>
      <trkpt lat="50.74137" lon="3.74946">
        <ele>37.15</ele>
        <time>2017-02-12T10:22:25Z</time>
      </trkpt>
      <trkpt lat="50.74137" lon="3.74942">
        <ele>37.15</ele>
        <time>2017-02-12T10:22:27Z</time>
      </trkpt>
      <trkpt lat="50.74139" lon="3.74925">
        <ele>37.15</ele>
        <time>2017-02-12T10:22:44Z</time>
      </trkpt>
      <trkpt lat="50.74139" lon="3.74927">
        <ele>37.15</ele>
        <time>2017-02-12T10:23:04Z</time>
      </trkpt>
      <trkpt lat="50.7414" lon="3.74909">
        <ele>36.67</ele>
        <time>2017-02-12T10:23:22Z</time>
      </trkpt>
      <trkpt lat="50.74142" lon="3.74893">
        <ele>35.71</ele>
        <time>2017-02-12T10:23:37Z</time>
      </trkpt>
      <trkpt lat="50.74144" lon="3.74891">
        <ele>35.71</ele>
        <time>2017-02-12T10:23:39Z</time>
      </trkpt>
      <trkpt lat="50.74147" lon="3.74886">
        <ele>35.71</ele>
        <time>2017-02-12T10:23:44Z</time>
      </trkpt>
      <trkpt lat="50.74157" lon="3.7487">
        <ele>35.71</ele>
        <time>2017-02-12T10:24:00Z</time>
      </trkpt>
      <trkpt lat="50.74153" lon="3.74861">
        <ele>36.67</ele>
        <time>2017-02-12T10:24:13Z</time>
      </trkpt>
      <trkpt lat="50.74155" lon="3.74854">
        <ele>36.67</ele>
        <time>2017-02-12T10:24:26Z</time>
      </trkpt>
      <trkpt lat="50.74155" lon="3.74853">
        <ele>37.15</ele>
        <time>2017-02-12T10:24:44Z</time>
      </trkpt>
      <trkpt lat="50.74155" lon="3.74855">
        <ele>37.15</ele>
        <time>2017-02-12T10:25:05Z</time>
      </trkpt>
      <trkpt lat="50.74155" lon="3.74854">
        <ele>37.15</ele>
        <time>2017-02-12T10:25:25Z</time>
      </trkpt>
      <trkpt lat="50.74157" lon="3.74854">
        <ele>36.19</ele>
        <time>2017-02-12T10:25:45Z</time>
      </trkpt>
      <trkpt lat="50.74154" lon="3.74852">
        <ele>36.19</ele>
        <time>2017-02-12T10:26:14Z</time>
      </trkpt>
      <trkpt lat="50.74155" lon="3.74853">
        <ele>36.19</ele>
        <time>2017-02-12T10:26:37Z</time>
      </trkpt>
      <trkpt lat="50.74155" lon="3.74851">
        <ele>36.19</ele>
        <time>2017-02-12T10:27:00Z</time>
      </trkpt>
      <trkpt lat="50.74154" lon="3.74847">
        <ele>36.19</ele>
        <time>2017-02-12T10:27:32Z</time>
      </trkpt>
      <trkpt lat="50.74154" lon="3.74846">
        <ele>35.71</ele>
        <time>2017-02-12T10:28:02Z</time>
      </trkpt>
      <trkpt lat="50.74152" lon="3.74853">
        <ele>35.71</ele>
        <time>2017-02-12T10:28:27Z</time>
      </trkpt>
      <trkpt lat="50.74152" lon="3.74854">
        <ele>35.71</ele>
        <time>2017-02-12T10:28:48Z</time>
      </trkpt>
      <trkpt lat="50.74152" lon="3.74856">
        <ele>35.71</ele>
        <time>2017-02-12T10:29:18Z</time>
      </trkpt>
      <trkpt lat="50.74152" lon="3.74857">
        <ele>35.71</ele>
        <time>2017-02-12T10:29:38Z</time>
      </trkpt>
      <trkpt lat="50.74152" lon="3.74855">
        <ele>35.71</ele>
        <time>2017-02-12T10:30:04Z</time>
      </trkpt>
      <trkpt lat="50.74151" lon="3.74857">
        <ele>35.71</ele>
        <time>2017-02-12T10:30:26Z</time>
      </trkpt>
      <trkpt lat="50.7415" lon="3.74858">
        <ele>35.71</ele>
        <time>2017-02-12T10:30:56Z</time>
      </trkpt>
      <trkpt lat="50.74154" lon="3.74854">
        <ele>35.71</ele>
        <time>2017-02-12T10:31:27Z</time>
      </trkpt>
      <trkpt lat="50.74151" lon="3.74857">
        <ele>35.71</ele>
        <time>2017-02-12T10:31:45Z</time>
      </trkpt>
      <trkpt lat="50.74154" lon="3.74856">
        <ele>35.71</ele>
        <time>2017-02-12T10:32:05Z</time>
      </trkpt>
      <trkpt lat="50.74155" lon="3.74855">
        <ele>35.71</ele>
        <time>2017-02-12T10:32:20Z</time>
      </trkpt>
      <trkpt lat="50.74155" lon="3.74854">
        <ele>35.71</ele>
        <time>2017-02-12T10:32:46Z</time>
      </trkpt>
      <trkpt lat="50.74154" lon="3.74852">
        <ele>35.71</ele>
        <time>2017-02-12T10:33:06Z</time>
      </trkpt>
      <trkpt lat="50.74156" lon="3.74854">
        <ele>35.71</ele>
        <time>2017-02-12T10:33:34Z</time>
      </trkpt>
      <trkpt lat="50.74154" lon="3.74852">
        <ele>35.71</ele>
        <time>2017-02-12T10:33:53Z</time>
      </trkpt>
      <trkpt lat="50.74153" lon="3.74853">
        <ele>35.71</ele>
        <time>2017-02-12T10:34:20Z</time>
      </trkpt>
      <trkpt lat="50.74154" lon="3.74854">
        <ele>35.71</ele>
        <time>2017-02-12T10:34:53Z</time>
      </trkpt>
      <trkpt lat="50.74153" lon="3.74854">
        <ele>36.19</ele>
        <time>2017-02-12T10:35:24Z</time>
      </trkpt>
      <trkpt lat="50.74153" lon="3.74855">
        <ele>36.19</ele>
        <time>2017-02-12T10:35:55Z</time>
      </trkpt>
      <trkpt lat="50.74154" lon="3.74859">
        <ele>36.19</ele>
        <time>2017-02-12T10:36:19Z</time>
      </trkpt>
      <trkpt lat="50.74153" lon="3.74855">
        <ele>36.19</ele>
        <time>2017-02-12T10:36:39Z</time>
      </trkpt>
      <trkpt lat="50.74153" lon="3.74855">
        <ele>36.19</ele>
        <time>2017-02-12T10:37:03Z</time>
      </trkpt>
      <trkpt lat="50.74153" lon="3.74851">
        <ele>36.19</ele>
        <time>2017-02-12T10:37:21Z</time>
      </trkpt>
      <trkpt lat="50.74153" lon="3.74856">
        <ele>36.19</ele>
        <time>2017-02-12T10:37:43Z</time>
      </trkpt>
      <trkpt lat="50.74151" lon="3.74855">
        <ele>36.19</ele>
        <time>2017-02-12T10:38:08Z</time>
      </trkpt>
      <trkpt lat="50.74153" lon="3.74854">
        <ele>36.19</ele>
        <time>2017-02-12T10:38:32Z</time>
      </trkpt>
      <trkpt lat="50.74154" lon="3.74856">
        <ele>36.19</ele>
        <time>2017-02-12T10:38:48Z</time>
      </trkpt>
      <trkpt lat="50.74156" lon="3.74855">
        <ele>36.19</ele>
        <time>2017-02-12T10:39:13Z</time>
      </trkpt>
      <trkpt lat="50.74155" lon="3.74857">
        <ele>36.19</ele>
        <time>2017-02-12T10:39:41Z</time>
      </trkpt>
      <trkpt lat="50.74156" lon="3.74856">
        <ele>36.19</ele>
        <time>2017-02-12T10:40:08Z</time>
      </trkpt>
      <trkpt lat="50.74155" lon="3.74855">
        <ele>36.19</ele>
        <time>2017-02-12T10:40:27Z</time>
      </trkpt>
      <trkpt lat="50.74156" lon="3.74856">
        <ele>36.19</ele>
        <time>2017-02-12T10:40:55Z</time>
      </trkpt>
      <trkpt lat="50.74156" lon="3.74858">
        <ele>36.67</ele>
        <time>2017-02-12T10:41:18Z</time>
      </trkpt>
      <trkpt lat="50.74157" lon="3.74853">
        <ele>36.67</ele>
        <time>2017-02-12T10:41:44Z</time>
      </trkpt>
      <trkpt lat="50.74156" lon="3.74853">
        <ele>36.67</ele>
        <time>2017-02-12T10:42:14Z</time>
      </trkpt>
      <trkpt lat="50.74156" lon="3.74853">
        <ele>36.67</ele>
        <time>2017-02-12T10:42:38Z</time>
      </trkpt>
      <trkpt lat="50.74157" lon="3.74854">
        <ele>36.67</ele>
        <time>2017-02-12T10:43:01Z</time>
      </trkpt>
      <trkpt lat="50.74157" lon="3.74854">
        <ele>36.67</ele>
        <time>2017-02-12T10:43:24Z</time>
      </trkpt>
      <trkpt lat="50.74155" lon="3.74855">
        <ele>36.67</ele>
        <time>2017-02-12T10:43:46Z</time>
      </trkpt>
      <trkpt lat="50.74155" lon="3.74857">
        <ele>36.67</ele>
        <time>2017-02-12T10:44:08Z</time>
      </trkpt>
      <trkpt lat="50.74156" lon="3.74855">
        <ele>36.67</ele>
        <time>2017-02-12T10:44:23Z</time>
      </trkpt>
      <trkpt lat="50.74154" lon="3.74854">
        <ele>36.67</ele>
        <time>2017-02-12T10:44:45Z</time>
      </trkpt>
      <trkpt lat="50.74153" lon="3.74858">
        <ele>37.15</ele>
        <time>2017-02-12T10:45:09Z</time>
      </trkpt>
      <trkpt lat="50.74149" lon="3.74852">
        <ele>37.15</ele>
        <time>2017-02-12T10:45:23Z</time>
      </trkpt>
      <trkpt lat="50.74144" lon="3.7485">
        <ele>37.15</ele>
        <time>2017-02-12T10:45:36Z</time>
      </trkpt>
      <trkpt lat="50.74135" lon="3.74847">
        <ele>36.67</ele>
        <time>2017-02-12T10:45:53Z</time>
      </trkpt>
      <trkpt lat="50.74135" lon="3.74846">
        <ele>36.67</ele>
        <time>2017-02-12T10:45:54Z</time>
      </trkpt>
      <trkpt lat="50.74124" lon="3.74845">
        <ele>36.67</ele>
        <time>2017-02-12T10:46:07Z</time>
      </trkpt>
      <trkpt lat="50.74114" lon="3.74841">
        <ele>36.19</ele>
        <time>2017-02-12T10:46:20Z</time>
      </trkpt>
      <trkpt lat="50.74105" lon="3.74836">
        <ele>35.71</ele>
        <time>2017-02-12T10:46:35Z</time>
      </trkpt>
      <trkpt lat="50.74098" lon="3.74831">
        <ele>34.74</ele>
        <time>2017-02-12T10:46:48Z</time>
      </trkpt>
      <trkpt lat="50.74087" lon="3.74819">
        <ele>33.78</ele>
        <time>2017-02-12T10:47:01Z</time>
      </trkpt>
      <trkpt lat="50.7408" lon="3.74812">
        <ele>33.3</ele>
        <time>2017-02-12T10:47:12Z</time>
      </trkpt>
      <trkpt lat="50.74075" lon="3.74789">
        <ele>32.34</ele>
        <time>2017-02-12T10:47:25Z</time>
      </trkpt>
      <trkpt lat="50.74074" lon="3.74784">
        <ele>32.34</ele>
        <time>2017-02-12T10:47:28Z</time>
      </trkpt>
      <trkpt lat="50.74071" lon="3.74755">
        <ele>30.9</ele>
        <time>2017-02-12T10:47:42Z</time>
      </trkpt>
      <trkpt lat="50.7407" lon="3.74748">
        <ele>30.9</ele>
        <time>2017-02-12T10:47:45Z</time>
      </trkpt>
      <trkpt lat="50.74069" lon="3.7472">
        <ele>29.46</ele>
        <time>2017-02-12T10:48:00Z</time>
      </trkpt>
      <trkpt lat="50.74066" lon="3.74698">
        <ele>28.5</ele>
        <time>2017-02-12T10:48:15Z</time>
      </trkpt>
      <trkpt lat="50.74065" lon="3.74691">
        <ele>28.5</ele>
        <time>2017-02-12T10:48:19Z</time>
      </trkpt>
      <trkpt lat="50.74066" lon="3.74678">
        <ele>28.02</ele>
        <time>2017-02-12T10:48:26Z</time>
      </trkpt>
      <trkpt lat="50.74066" lon="3.74667">
        <ele>28.02</ele>
        <time>2017-02-12T10:48:31Z</time>
      </trkpt>
      <trkpt lat="50.74068" lon="3.7465">
        <ele>28.02</ele>
        <time>2017-02-12T10:48:39Z</time>
      </trkpt>
      <trkpt lat="50.74072" lon="3.74619">
        <ele>27.53</ele>
        <time>2017-02-12T10:48:56Z</time>
      </trkpt>
      <trkpt lat="50.74072" lon="3.74612">
        <ele>27.53</ele>
        <time>2017-02-12T10:48:59Z</time>
      </trkpt>
      <trkpt lat="50.74071" lon="3.74605">
        <ele>27.53</ele>
        <time>2017-02-12T10:49:02Z</time>
      </trkpt>
      <trkpt lat="50.74071" lon="3.74574">
        <ele>27.53</ele>
        <time>2017-02-12T10:49:18Z</time>
      </trkpt>
      <trkpt lat="50.74072" lon="3.74552">
        <ele>27.53</ele>
        <time>2017-02-12T10:49:31Z</time>
      </trkpt>
      <trkpt lat="50.74073" lon="3.74527">
        <ele>27.53</ele>
        <time>2017-02-12T10:49:44Z</time>
      </trkpt>
      <trkpt lat="50.74075" lon="3.74505">
        <ele>27.53</ele>
        <time>2017-02-12T10:49:57Z</time>
      </trkpt>
      <trkpt lat="50.74075" lon="3.74503">
        <ele>27.53</ele>
        <time>2017-02-12T10:49:58Z</time>
      </trkpt>
      <trkpt lat="50.74076" lon="3.74499">
        <ele>27.53</ele>
        <time>2017-02-12T10:50:01Z</time>
      </trkpt>
      <trkpt lat="50.7407" lon="3.74482">
        <ele>27.05</ele>
        <time>2017-02-12T10:50:10Z</time>
      </trkpt>
      <trkpt lat="50.74059" lon="3.74458">
        <ele>27.05</ele>
        <time>2017-02-12T10:50:25Z</time>
      </trkpt>
      <trkpt lat="50.74048" lon="3.74435">
        <ele>27.05</ele>
        <time>2017-02-12T10:50:38Z</time>
      </trkpt>
      <trkpt lat="50.74044" lon="3.74426">
        <ele>27.05</ele>
        <time>2017-02-12T10:50:44Z</time>
      </trkpt>
      <trkpt lat="50.74053" lon="3.74395">
        <ele>27.05</ele>
        <time>2017-02-12T10:51:00Z</time>
      </trkpt>
      <trkpt lat="50.74055" lon="3.74384">
        <ele>27.05</ele>
        <time>2017-02-12T10:51:06Z</time>
      </trkpt>
      <trkpt lat="50.74055" lon="3.74379">
        <ele>27.05</ele>
        <time>2017-02-12T10:51:09Z</time>
      </trkpt>
      <trkpt lat="50.74045" lon="3.74359">
        <ele>28.02</ele>
        <time>2017-02-12T10:51:21Z</time>
      </trkpt>
      <trkpt lat="50.7404" lon="3.74348">
        <ele>28.98</ele>
        <time>2017-02-12T10:51:27Z</time>
      </trkpt>
      <trkpt lat="50.74033" lon="3.74335">
        <ele>28.98</ele>
        <time>2017-02-12T10:51:42Z</time>
      </trkpt>
      <trkpt lat="50.74024" lon="3.74322">
        <ele>28.98</ele>
        <time>2017-02-12T10:51:56Z</time>
      </trkpt>
      <trkpt lat="50.74015" lon="3.74307">
        <ele>29.46</ele>
        <time>2017-02-12T10:52:07Z</time>
      </trkpt>
      <trkpt lat="50.7401" lon="3.74302">
        <ele>29.46</ele>
        <time>2017-02-12T10:52:12Z</time>
      </trkpt>
      <trkpt lat="50.73993" lon="3.74294">
        <ele>28.02</ele>
        <time>2017-02-12T10:52:26Z</time>
      </trkpt>
      <trkpt lat="50.73974" lon="3.7431">
        <ele>28.02</ele>
        <time>2017-02-12T10:52:41Z</time>
      </trkpt>
      <trkpt lat="50.7396" lon="3.74321">
        <ele>27.53</ele>
        <time>2017-02-12T10:52:54Z</time>
      </trkpt>
      <trkpt lat="50.73954" lon="3.74327">
        <ele>27.53</ele>
        <time>2017-02-12T10:53:05Z</time>
      </trkpt>
      <trkpt lat="50.73949" lon="3.74334">
        <ele>27.53</ele>
        <time>2017-02-12T10:53:09Z</time>
      </trkpt>
      <trkpt lat="50.73926" lon="3.74355">
        <ele>27.53</ele>
        <time>2017-02-12T10:53:25Z</time>
      </trkpt>
      <trkpt lat="50.73911" lon="3.74365">
        <ele>27.53</ele>
        <time>2017-02-12T10:53:38Z</time>
      </trkpt>
      <trkpt lat="50.73895" lon="3.74376">
        <ele>27.05</ele>
        <time>2017-02-12T10:53:51Z</time>
      </trkpt>
      <trkpt lat="50.73878" lon="3.74388">
        <ele>27.53</ele>
        <time>2017-02-12T10:54:06Z</time>
      </trkpt>
      <trkpt lat="50.73872" lon="3.7439">
        <ele>27.53</ele>
        <time>2017-02-12T10:54:17Z</time>
      </trkpt>
      <trkpt lat="50.73862" lon="3.74397">
        <ele>27.53</ele>
        <time>2017-02-12T10:54:28Z</time>
      </trkpt>
      <trkpt lat="50.73859" lon="3.744">
        <ele>27.53</ele>
        <time>2017-02-12T10:54:34Z</time>
      </trkpt>
      <trkpt lat="50.7385" lon="3.74406">
        <ele>27.53</ele>
        <time>2017-02-12T10:54:46Z</time>
      </trkpt>
      <trkpt lat="50.73845" lon="3.74418">
        <ele>27.53</ele>
        <time>2017-02-12T10:55:00Z</time>
      </trkpt>
      <trkpt lat="50.73855" lon="3.7441">
        <ele>27.53</ele>
        <time>2017-02-12T10:55:08Z</time>
      </trkpt>
      <trkpt lat="50.73878" lon="3.74394">
        <ele>28.02</ele>
        <time>2017-02-12T10:55:24Z</time>
      </trkpt>
      <trkpt lat="50.73879" lon="3.74393">
        <ele>28.02</ele>
        <time>2017-02-12T10:55:26Z</time>
      </trkpt>
      <trkpt lat="50.73879" lon="3.74376">
        <ele>28.02</ele>
        <time>2017-02-12T10:55:39Z</time>
      </trkpt>
      <trkpt lat="50.73885" lon="3.74366">
        <ele>28.02</ele>
        <time>2017-02-12T10:55:52Z</time>
      </trkpt>
      <trkpt lat="50.73889" lon="3.74351">
        <ele>28.02</ele>
        <time>2017-02-12T10:56:07Z</time>
      </trkpt>
      <trkpt lat="50.7389" lon="3.7434">
        <ele>28.02</ele>
        <time>2017-02-12T10:56:13Z</time>
      </trkpt>
      <trkpt lat="50.73893" lon="3.74307">
        <ele>28.02</ele>
        <time>2017-02-12T10:56:27Z</time>
      </trkpt>
      <trkpt lat="50.73891" lon="3.74296">
        <ele>28.02</ele>
        <time>2017-02-12T10:56:33Z</time>
      </trkpt>
      <trkpt lat="50.73887" lon="3.74266">
        <ele>27.53</ele>
        <time>2017-02-12T10:56:46Z</time>
      </trkpt>
      <trkpt lat="50.73882" lon="3.74235">
        <ele>27.53</ele>
        <time>2017-02-12T10:56:59Z</time>
      </trkpt>
      <trkpt lat="50.73881" lon="3.74234">
        <ele>27.53</ele>
        <time>2017-02-12T10:57:03Z</time>
      </trkpt>
      <trkpt lat="50.73868" lon="3.74235">
        <ele>28.5</ele>
        <time>2017-02-12T10:57:17Z</time>
      </trkpt>
      <trkpt lat="50.7385" lon="3.74245">
        <ele>29.46</ele>
        <time>2017-02-12T10:57:31Z</time>
      </trkpt>
      <trkpt lat="50.73835" lon="3.7425">
        <ele>30.42</ele>
        <time>2017-02-12T10:57:45Z</time>
      </trkpt>
      <trkpt lat="50.73819" lon="3.74257">
        <ele>31.38</ele>
        <time>2017-02-12T10:58:01Z</time>
      </trkpt>
      <trkpt lat="50.73802" lon="3.74264">
        <ele>32.82</ele>
        <time>2017-02-12T10:58:15Z</time>
      </trkpt>
      <trkpt lat="50.73787" lon="3.74271">
        <ele>34.26</ele>
        <time>2017-02-12T10:58:32Z</time>
      </trkpt>
      <trkpt lat="50.73779" lon="3.7426">
        <ele>35.23</ele>
        <time>2017-02-12T10:58:47Z</time>
      </trkpt>
      <trkpt lat="50.73778" lon="3.74254">
        <ele>35.23</ele>
        <time>2017-02-12T10:58:52Z</time>
      </trkpt>
      <trkpt lat="50.73777" lon="3.74222">
        <ele>35.23</ele>
        <time>2017-02-12T10:59:10Z</time>
      </trkpt>
      <trkpt lat="50.73776" lon="3.74209">
        <ele>35.23</ele>
        <time>2017-02-12T10:59:18Z</time>
      </trkpt>
      <trkpt lat="50.73777" lon="3.74187">
        <ele>35.23</ele>
        <time>2017-02-12T10:59:31Z</time>
      </trkpt>
      <trkpt lat="50.73777" lon="3.74177">
        <ele>35.71</ele>
        <time>2017-02-12T10:59:36Z</time>
      </trkpt>
      <trkpt lat="50.73774" lon="3.74147">
        <ele>36.67</ele>
        <time>2017-02-12T10:59:53Z</time>
      </trkpt>
      <trkpt lat="50.73773" lon="3.7414">
        <ele>37.15</ele>
        <time>2017-02-12T10:59:56Z</time>
      </trkpt>
      <trkpt lat="50.73771" lon="3.74106">
        <ele>37.63</ele>
        <time>2017-02-12T11:00:15Z</time>
      </trkpt>
      <trkpt lat="50.7377" lon="3.74082">
        <ele>37.63</ele>
        <time>2017-02-12T11:00:30Z</time>
      </trkpt>
      <trkpt lat="50.73769" lon="3.74074">
        <ele>37.63</ele>
        <time>2017-02-12T11:00:34Z</time>
      </trkpt>
      <trkpt lat="50.7377" lon="3.74056">
        <ele>36.67</ele>
        <time>2017-02-12T11:00:45Z</time>
      </trkpt>
      <trkpt lat="50.7377" lon="3.74047">
        <ele>36.19</ele>
        <time>2017-02-12T11:00:49Z</time>
      </trkpt>
      <trkpt lat="50.73772" lon="3.74037">
        <ele>35.71</ele>
        <time>2017-02-12T11:00:53Z</time>
      </trkpt>
      <trkpt lat="50.73773" lon="3.74018">
        <ele>34.74</ele>
        <time>2017-02-12T11:01:02Z</time>
      </trkpt>
      <trkpt lat="50.73775" lon="3.73991">
        <ele>33.3</ele>
        <time>2017-02-12T11:01:17Z</time>
      </trkpt>
      <trkpt lat="50.73775" lon="3.7398">
        <ele>32.82</ele>
        <time>2017-02-12T11:01:28Z</time>
      </trkpt>
      <trkpt lat="50.73767" lon="3.73958">
        <ele>32.82</ele>
        <time>2017-02-12T11:01:42Z</time>
      </trkpt>
      <trkpt lat="50.73761" lon="3.73937">
        <ele>32.82</ele>
        <time>2017-02-12T11:01:54Z</time>
      </trkpt>
      <trkpt lat="50.73759" lon="3.73924">
        <ele>32.82</ele>
        <time>2017-02-12T11:02:02Z</time>
      </trkpt>
      <trkpt lat="50.73757" lon="3.73915">
        <ele>33.78</ele>
        <time>2017-02-12T11:02:07Z</time>
      </trkpt>
      <trkpt lat="50.73745" lon="3.73905">
        <ele>34.74</ele>
        <time>2017-02-12T11:02:20Z</time>
      </trkpt>
      <trkpt lat="50.73731" lon="3.73908">
        <ele>35.71</ele>
        <time>2017-02-12T11:02:32Z</time>
      </trkpt>
      <trkpt lat="50.73723" lon="3.7391">
        <ele>36.19</ele>
        <time>2017-02-12T11:02:39Z</time>
      </trkpt>
      <trkpt lat="50.73712" lon="3.73895">
        <ele>37.15</ele>
        <time>2017-02-12T11:02:53Z</time>
      </trkpt>
      <trkpt lat="50.73703" lon="3.73882">
        <ele>38.11</ele>
        <time>2017-02-12T11:03:04Z</time>
      </trkpt>
      <trkpt lat="50.73698" lon="3.73878">
        <ele>38.11</ele>
        <time>2017-02-12T11:03:08Z</time>
      </trkpt>
      <trkpt lat="50.73692" lon="3.73876">
        <ele>38.59</ele>
        <time>2017-02-12T11:03:20Z</time>
      </trkpt>
      <trkpt lat="50.73691" lon="3.73881">
        <ele>38.59</ele>
        <time>2017-02-12T11:03:31Z</time>
      </trkpt>
      <trkpt lat="50.73685" lon="3.73884">
        <ele>39.07</ele>
        <time>2017-02-12T11:03:47Z</time>
      </trkpt>
      <trkpt lat="50.73681" lon="3.73885">
        <ele>39.07</ele>
        <time>2017-02-12T11:04:01Z</time>
      </trkpt>
      <trkpt lat="50.7368" lon="3.73882">
        <ele>39.55</ele>
        <time>2017-02-12T11:04:17Z</time>
      </trkpt>
      <trkpt lat="50.73681" lon="3.73878">
        <ele>39.55</ele>
        <time>2017-02-12T11:04:30Z</time>
      </trkpt>
      <trkpt lat="50.73679" lon="3.73882">
        <ele>40.03</ele>
        <time>2017-02-12T11:04:44Z</time>
      </trkpt>
      <trkpt lat="50.73688" lon="3.73899">
        <ele>40.03</ele>
        <time>2017-02-12T11:05:07Z</time>
      </trkpt>
      <trkpt lat="50.73694" lon="3.73907">
        <ele>40.03</ele>
        <time>2017-02-12T11:05:27Z</time>
      </trkpt>
      <trkpt lat="50.73686" lon="3.73909">
        <ele>40.03</ele>
        <time>2017-02-12T11:05:45Z</time>
      </trkpt>
      <trkpt lat="50.73689" lon="3.7391">
        <ele>39.07</ele>
        <time>2017-02-12T11:06:01Z</time>
      </trkpt>
      <trkpt lat="50.7369" lon="3.73909">
        <ele>40.51</ele>
        <time>2017-02-12T11:06:03Z</time>
      </trkpt>
      <trkpt lat="50.73695" lon="3.73909">
        <ele>40.03</ele>
        <time>2017-02-12T11:06:18Z</time>
      </trkpt>
      <trkpt lat="50.73691" lon="3.73907">
        <ele>40.03</ele>
        <time>2017-02-12T11:06:34Z</time>
      </trkpt>
      <trkpt lat="50.73693" lon="3.73906">
        <ele>40.03</ele>
        <time>2017-02-12T11:06:50Z</time>
      </trkpt>
      <trkpt lat="50.7369" lon="3.73907">
        <ele>40.03</ele>
        <time>2017-02-12T11:07:11Z</time>
      </trkpt>
      <trkpt lat="50.73689" lon="3.73906">
        <ele>40.03</ele>
        <time>2017-02-12T11:07:34Z</time>
      </trkpt>
      <trkpt lat="50.7369" lon="3.73906">
        <ele>40.03</ele>
        <time>2017-02-12T11:07:53Z</time>
      </trkpt>
      <trkpt lat="50.7369" lon="3.73905">
        <ele>40.03</ele>
        <time>2017-02-12T11:08:16Z</time>
      </trkpt>
      <trkpt lat="50.73693" lon="3.73903">
        <ele>40.03</ele>
        <time>2017-02-12T11:08:33Z</time>
      </trkpt>
      <trkpt lat="50.73693" lon="3.73902">
        <ele>40.03</ele>
        <time>2017-02-12T11:08:48Z</time>
      </trkpt>
      <trkpt lat="50.73695" lon="3.73899">
        <ele>40.03</ele>
        <time>2017-02-12T11:09:12Z</time>
      </trkpt>
      <trkpt lat="50.73695" lon="3.73897">
        <ele>40.03</ele>
        <time>2017-02-12T11:09:29Z</time>
      </trkpt>
      <trkpt lat="50.73693" lon="3.73897">
        <ele>40.03</ele>
        <time>2017-02-12T11:09:51Z</time>
      </trkpt>
      <trkpt lat="50.73692" lon="3.739">
        <ele>40.03</ele>
        <time>2017-02-12T11:10:18Z</time>
      </trkpt>
      <trkpt lat="50.73692" lon="3.73902">
        <ele>39.55</ele>
        <time>2017-02-12T11:10:37Z</time>
      </trkpt>
      <trkpt lat="50.73692" lon="3.73906">
        <ele>39.55</ele>
        <time>2017-02-12T11:11:05Z</time>
      </trkpt>
      <trkpt lat="50.73692" lon="3.73909">
        <ele>39.55</ele>
        <time>2017-02-12T11:11:31Z</time>
      </trkpt>
      <trkpt lat="50.73694" lon="3.73907">
        <ele>39.55</ele>
        <time>2017-02-12T11:11:53Z</time>
      </trkpt>
      <trkpt lat="50.73695" lon="3.739">
        <ele>39.55</ele>
        <time>2017-02-12T11:12:15Z</time>
      </trkpt>
      <trkpt lat="50.73694" lon="3.73906">
        <ele>39.55</ele>
        <time>2017-02-12T11:12:36Z</time>
      </trkpt>
      <trkpt lat="50.73695" lon="3.73908">
        <ele>39.55</ele>
        <time>2017-02-12T11:12:38Z</time>
      </trkpt>
      <trkpt lat="50.73725" lon="3.73922">
        <ele>39.55</ele>
        <time>2017-02-12T11:13:01Z</time>
      </trkpt>
      <trkpt lat="50.73726" lon="3.73921">
        <ele>39.55</ele>
        <time>2017-02-12T11:13:20Z</time>
      </trkpt>
      <trkpt lat="50.73703" lon="3.73911">
        <ele>39.55</ele>
        <time>2017-02-12T11:13:42Z</time>
      </trkpt>
      <trkpt lat="50.73694" lon="3.73908">
        <ele>39.55</ele>
        <time>2017-02-12T11:14:08Z</time>
      </trkpt>
      <trkpt lat="50.73694" lon="3.73906">
        <ele>39.55</ele>
        <time>2017-02-12T11:14:33Z</time>
      </trkpt>
      <trkpt lat="50.73695" lon="3.73905">
        <ele>39.55</ele>
        <time>2017-02-12T11:14:58Z</time>
      </trkpt>
      <trkpt lat="50.73694" lon="3.73902">
        <ele>39.55</ele>
        <time>2017-02-12T11:15:21Z</time>
      </trkpt>
      <trkpt lat="50.73693" lon="3.73899">
        <ele>39.55</ele>
        <time>2017-02-12T11:15:46Z</time>
      </trkpt>
      <trkpt lat="50.73693" lon="3.73898">
        <ele>39.55</ele>
        <time>2017-02-12T11:16:09Z</time>
      </trkpt>
      <trkpt lat="50.73693" lon="3.739">
        <ele>39.07</ele>
        <time>2017-02-12T11:16:41Z</time>
      </trkpt>
      <trkpt lat="50.73695" lon="3.7389">
        <ele>39.07</ele>
        <time>2017-02-12T11:17:19Z</time>
      </trkpt>
      <trkpt lat="50.73693" lon="3.73896">
        <ele>39.07</ele>
        <time>2017-02-12T11:17:44Z</time>
      </trkpt>
      <trkpt lat="50.73692" lon="3.73896">
        <ele>39.07</ele>
        <time>2017-02-12T11:18:19Z</time>
      </trkpt>
      <trkpt lat="50.73687" lon="3.73908">
        <ele>39.07</ele>
        <time>2017-02-12T11:18:54Z</time>
      </trkpt>
      <trkpt lat="50.73686" lon="3.73906">
        <ele>39.07</ele>
        <time>2017-02-12T11:19:23Z</time>
      </trkpt>
      <trkpt lat="50.73688" lon="3.73904">
        <ele>39.07</ele>
        <time>2017-02-12T11:19:46Z</time>
      </trkpt>
      <trkpt lat="50.73689" lon="3.73903">
        <ele>39.07</ele>
        <time>2017-02-12T11:20:08Z</time>
      </trkpt>
      <trkpt lat="50.73689" lon="3.73903">
        <ele>39.07</ele>
        <time>2017-02-12T11:20:39Z</time>
      </trkpt>
      <trkpt lat="50.73689" lon="3.73903">
        <ele>39.07</ele>
        <time>2017-02-12T11:21:07Z</time>
      </trkpt>
      <trkpt lat="50.7369" lon="3.73905">
        <ele>39.07</ele>
        <time>2017-02-12T11:21:30Z</time>
      </trkpt>
      <trkpt lat="50.73689" lon="3.73905">
        <ele>39.07</ele>
        <time>2017-02-12T11:21:47Z</time>
      </trkpt>
      <trkpt lat="50.73688" lon="3.73904">
        <ele>39.07</ele>
        <time>2017-02-12T11:22:17Z</time>
      </trkpt>
      <trkpt lat="50.73688" lon="3.73904">
        <ele>39.07</ele>
        <time>2017-02-12T11:22:42Z</time>
      </trkpt>
      <trkpt lat="50.7369" lon="3.73904">
        <ele>39.07</ele>
        <time>2017-02-12T11:23:10Z</time>
      </trkpt>
      <trkpt lat="50.7369" lon="3.73903">
        <ele>39.55</ele>
        <time>2017-02-12T11:23:35Z</time>
      </trkpt>
      <trkpt lat="50.73689" lon="3.73903">
        <ele>39.55</ele>
        <time>2017-02-12T11:23:51Z</time>
      </trkpt>
      <trkpt lat="50.73689" lon="3.73893">
        <ele>39.55</ele>
        <time>2017-02-12T11:24:20Z</time>
      </trkpt>
      <trkpt lat="50.7369" lon="3.73895">
        <ele>39.55</ele>
        <time>2017-02-12T11:24:45Z</time>
      </trkpt>
      <trkpt lat="50.73689" lon="3.73896">
        <ele>39.07</ele>
        <time>2017-02-12T11:25:09Z</time>
      </trkpt>
      <trkpt lat="50.73688" lon="3.739">
        <ele>39.07</ele>
        <time>2017-02-12T11:25:30Z</time>
      </trkpt>
      <trkpt lat="50.73687" lon="3.73904">
        <ele>39.07</ele>
        <time>2017-02-12T11:26:10Z</time>
      </trkpt>
      <trkpt lat="50.73688" lon="3.73903">
        <ele>39.07</ele>
        <time>2017-02-12T11:26:45Z</time>
      </trkpt>
      <trkpt lat="50.73685" lon="3.73904">
        <ele>39.07</ele>
        <time>2017-02-12T11:27:10Z</time>
      </trkpt>
      <trkpt lat="50.73685" lon="3.73912">
        <ele>39.07</ele>
        <time>2017-02-12T11:27:43Z</time>
      </trkpt>
      <trkpt lat="50.73683" lon="3.73914">
        <ele>39.55</ele>
        <time>2017-02-12T11:28:08Z</time>
      </trkpt>
      <trkpt lat="50.73682" lon="3.73911">
        <ele>39.55</ele>
        <time>2017-02-12T11:28:30Z</time>
      </trkpt>
      <trkpt lat="50.73686" lon="3.73914">
        <ele>39.55</ele>
        <time>2017-02-12T11:28:52Z</time>
      </trkpt>
      <trkpt lat="50.73683" lon="3.73911">
        <ele>39.55</ele>
        <time>2017-02-12T11:29:20Z</time>
      </trkpt>
      <trkpt lat="50.73685" lon="3.73914">
        <ele>39.55</ele>
        <time>2017-02-12T11:29:47Z</time>
      </trkpt>
      <trkpt lat="50.73685" lon="3.73916">
        <ele>40.03</ele>
        <time>2017-02-12T11:30:20Z</time>
      </trkpt>
      <trkpt lat="50.73688" lon="3.73913">
        <ele>40.03</ele>
        <time>2017-02-12T11:30:52Z</time>
      </trkpt>
      <trkpt lat="50.73687" lon="3.73913">
        <ele>40.03</ele>
        <time>2017-02-12T11:31:15Z</time>
      </trkpt>
      <trkpt lat="50.73687" lon="3.73913">
        <ele>40.51</ele>
        <time>2017-02-12T11:31:54Z</time>
      </trkpt>
      <trkpt lat="50.7369" lon="3.7391">
        <ele>40.51</ele>
        <time>2017-02-12T11:32:32Z</time>
      </trkpt>
      <trkpt lat="50.73689" lon="3.73911">
        <ele>40.51</ele>
        <time>2017-02-12T11:33:08Z</time>
      </trkpt>
      <trkpt lat="50.73688" lon="3.73913">
        <ele>40.99</ele>
        <time>2017-02-12T11:33:38Z</time>
      </trkpt>
      <trkpt lat="50.73686" lon="3.73917">
        <ele>40.99</ele>
        <time>2017-02-12T11:34:13Z</time>
      </trkpt>
      <trkpt lat="50.73683" lon="3.73927">
        <ele>40.99</ele>
        <time>2017-02-12T11:34:47Z</time>
      </trkpt>
      <trkpt lat="50.73684" lon="3.73927">
        <ele>40.99</ele>
        <time>2017-02-12T11:35:14Z</time>
      </trkpt>
      <trkpt lat="50.73684" lon="3.73925">
        <ele>41.47</ele>
        <time>2017-02-12T11:35:39Z</time>
      </trkpt>
      <trkpt lat="50.73684" lon="3.73917">
        <ele>41.47</ele>
        <time>2017-02-12T11:36:16Z</time>
      </trkpt>
      <trkpt lat="50.73683" lon="3.73911">
        <ele>41.47</ele>
        <time>2017-02-12T11:36:50Z</time>
      </trkpt>
      <trkpt lat="50.73683" lon="3.7391">
        <ele>41.95</ele>
        <time>2017-02-12T11:37:24Z</time>
      </trkpt>
      <trkpt lat="50.73682" lon="3.7391">
        <ele>41.95</ele>
        <time>2017-02-12T11:38:00Z</time>
      </trkpt>
      <trkpt lat="50.73683" lon="3.73908">
        <ele>41.95</ele>
        <time>2017-02-12T11:38:36Z</time>
      </trkpt>
      <trkpt lat="50.73682" lon="3.73912">
        <ele>42.44</ele>
        <time>2017-02-12T11:39:14Z</time>
      </trkpt>
      <trkpt lat="50.73683" lon="3.73913">
        <ele>42.44</ele>
        <time>2017-02-12T11:39:57Z</time>
      </trkpt>
      <trkpt lat="50.73683" lon="3.73911">
        <ele>42.44</ele>
        <time>2017-02-12T11:40:26Z</time>
      </trkpt>
      <trkpt lat="50.73684" lon="3.7391">
        <ele>42.44</ele>
        <time>2017-02-12T11:41:05Z</time>
      </trkpt>
      <trkpt lat="50.73683" lon="3.7391">
        <ele>42.44</ele>
        <time>2017-02-12T11:41:33Z</time>
      </trkpt>
      <trkpt lat="50.73685" lon="3.73909">
        <ele>42.44</ele>
        <time>2017-02-12T11:42:02Z</time>
      </trkpt>
      <trkpt lat="50.73686" lon="3.73907">
        <ele>42.44</ele>
        <time>2017-02-12T11:42:39Z</time>
      </trkpt>
      <trkpt lat="50.73687" lon="3.73909">
        <ele>42.44</ele>
        <time>2017-02-12T11:43:12Z</time>
      </trkpt>
      <trkpt lat="50.73686" lon="3.73912">
        <ele>42.44</ele>
        <time>2017-02-12T11:43:37Z</time>
      </trkpt>
      <trkpt lat="50.73688" lon="3.73911">
        <ele>42.44</ele>
        <time>2017-02-12T11:44:02Z</time>
      </trkpt>
      <trkpt lat="50.73687" lon="3.73914">
        <ele>42.44</ele>
        <time>2017-02-12T11:44:27Z</time>
      </trkpt>
      <trkpt lat="50.73687" lon="3.73916">
        <ele>42.44</ele>
        <time>2017-02-12T11:44:55Z</time>
      </trkpt>
      <trkpt lat="50.73686" lon="3.73918">
        <ele>42.44</ele>
        <time>2017-02-12T11:45:19Z</time>
      </trkpt>
      <trkpt lat="50.73687" lon="3.73908">
        <ele>42.44</ele>
        <time>2017-02-12T11:45:39Z</time>
      </trkpt>
      <trkpt lat="50.73688" lon="3.73901">
        <ele>42.44</ele>
        <time>2017-02-12T11:46:09Z</time>
      </trkpt>
      <trkpt lat="50.73689" lon="3.73897">
        <ele>42.44</ele>
        <time>2017-02-12T11:46:34Z</time>
      </trkpt>
      <trkpt lat="50.73688" lon="3.73897">
        <ele>42.44</ele>
        <time>2017-02-12T11:47:06Z</time>
      </trkpt>
      <trkpt lat="50.73685" lon="3.73911">
        <ele>42.44</ele>
        <time>2017-02-12T11:47:39Z</time>
      </trkpt>
      <trkpt lat="50.73684" lon="3.73914">
        <ele>42.44</ele>
        <time>2017-02-12T11:48:16Z</time>
      </trkpt>
      <trkpt lat="50.73682" lon="3.73916">
        <ele>42.44</ele>
        <time>2017-02-12T11:48:44Z</time>
      </trkpt>
      <trkpt lat="50.73682" lon="3.73916">
        <ele>42.92</ele>
        <time>2017-02-12T11:49:14Z</time>
      </trkpt>
      <trkpt lat="50.73683" lon="3.73914">
        <ele>42.92</ele>
        <time>2017-02-12T11:49:38Z</time>
      </trkpt>
      <trkpt lat="50.73685" lon="3.73914">
        <ele>42.92</ele>
        <time>2017-02-12T11:50:05Z</time>
      </trkpt>
      <trkpt lat="50.73684" lon="3.73917">
        <ele>42.92</ele>
        <time>2017-02-12T11:50:34Z</time>
      </trkpt>
      <trkpt lat="50.73684" lon="3.73918">
        <ele>42.92</ele>
        <time>2017-02-12T11:51:12Z</time>
      </trkpt>
      <trkpt lat="50.73685" lon="3.73914">
        <ele>42.92</ele>
        <time>2017-02-12T11:51:42Z</time>
      </trkpt>
      <trkpt lat="50.73686" lon="3.73915">
        <ele>43.4</ele>
        <time>2017-02-12T11:52:21Z</time>
      </trkpt>
      <trkpt lat="50.73684" lon="3.73907">
        <ele>43.4</ele>
        <time>2017-02-12T11:53:01Z</time>
      </trkpt>
      <trkpt lat="50.73684" lon="3.73909">
        <ele>43.4</ele>
        <time>2017-02-12T11:53:37Z</time>
      </trkpt>
      <trkpt lat="50.73684" lon="3.73908">
        <ele>43.4</ele>
        <time>2017-02-12T11:54:09Z</time>
      </trkpt>
      <trkpt lat="50.73684" lon="3.7391">
        <ele>43.4</ele>
        <time>2017-02-12T11:54:43Z</time>
      </trkpt>
      <trkpt lat="50.73684" lon="3.73911">
        <ele>43.4</ele>
        <time>2017-02-12T11:55:13Z</time>
      </trkpt>
      <trkpt lat="50.73684" lon="3.73913">
        <ele>44.36</ele>
        <time>2017-02-12T11:55:40Z</time>
      </trkpt>
      <trkpt lat="50.73684" lon="3.73913">
        <ele>44.36</ele>
        <time>2017-02-12T11:56:11Z</time>
      </trkpt>
      <trkpt lat="50.73684" lon="3.73914">
        <ele>44.36</ele>
        <time>2017-02-12T11:56:42Z</time>
      </trkpt>
      <trkpt lat="50.73685" lon="3.73916">
        <ele>44.36</ele>
        <time>2017-02-12T11:57:16Z</time>
      </trkpt>
      <trkpt lat="50.73685" lon="3.73916">
        <ele>44.36</ele>
        <time>2017-02-12T11:57:46Z</time>
      </trkpt>
      <trkpt lat="50.73685" lon="3.73918">
        <ele>44.36</ele>
        <time>2017-02-12T11:58:20Z</time>
      </trkpt>
      <trkpt lat="50.73686" lon="3.73919">
        <ele>44.36</ele>
        <time>2017-02-12T11:58:52Z</time>
      </trkpt>
      <trkpt lat="50.73686" lon="3.73918">
        <ele>44.36</ele>
        <time>2017-02-12T11:59:22Z</time>
      </trkpt>
      <trkpt lat="50.73687" lon="3.73919">
        <ele>44.84</ele>
        <time>2017-02-12T11:59:46Z</time>
      </trkpt>
      <trkpt lat="50.73686" lon="3.73919">
        <ele>44.84</ele>
        <time>2017-02-12T12:00:14Z</time>
      </trkpt>
      <trkpt lat="50.73686" lon="3.73916">
        <ele>44.84</ele>
        <time>2017-02-12T12:00:39Z</time>
      </trkpt>
      <trkpt lat="50.73685" lon="3.73909">
        <ele>44.84</ele>
        <time>2017-02-12T12:01:21Z</time>
      </trkpt>
      <trkpt lat="50.73685" lon="3.73907">
        <ele>44.84</ele>
        <time>2017-02-12T12:01:44Z</time>
      </trkpt>
      <trkpt lat="50.73685" lon="3.73908">
        <ele>44.84</ele>
        <time>2017-02-12T12:02:15Z</time>
      </trkpt>
      <trkpt lat="50.73685" lon="3.73908">
        <ele>44.84</ele>
        <time>2017-02-12T12:02:44Z</time>
      </trkpt>
      <trkpt lat="50.73687" lon="3.73907">
        <ele>44.84</ele>
        <time>2017-02-12T12:03:17Z</time>
      </trkpt>
      <trkpt lat="50.73687" lon="3.73905">
        <ele>44.84</ele>
        <time>2017-02-12T12:03:50Z</time>
      </trkpt>
      <trkpt lat="50.73687" lon="3.73905">
        <ele>44.84</ele>
        <time>2017-02-12T12:04:27Z</time>
      </trkpt>
      <trkpt lat="50.73687" lon="3.73908">
        <ele>44.84</ele>
        <time>2017-02-12T12:04:59Z</time>
      </trkpt>
      <trkpt lat="50.73688" lon="3.73907">
        <ele>44.84</ele>
        <time>2017-02-12T12:05:30Z</time>
      </trkpt>
      <trkpt lat="50.73685" lon="3.73908">
        <ele>44.84</ele>
        <time>2017-02-12T12:06:00Z</time>
      </trkpt>
      <trkpt lat="50.73683" lon="3.73906">
        <ele>44.84</ele>
        <time>2017-02-12T12:06:33Z</time>
      </trkpt>
      <trkpt lat="50.73686" lon="3.73908">
        <ele>45.8</ele>
        <time>2017-02-12T12:07:08Z</time>
      </trkpt>
      <trkpt lat="50.7369" lon="3.73906">
        <ele>45.8</ele>
        <time>2017-02-12T12:07:46Z</time>
      </trkpt>
      <trkpt lat="50.7369" lon="3.73905">
        <ele>45.8</ele>
        <time>2017-02-12T12:08:17Z</time>
      </trkpt>
      <trkpt lat="50.7369" lon="3.73906">
        <ele>45.8</ele>
        <time>2017-02-12T12:08:52Z</time>
      </trkpt>
      <trkpt lat="50.73688" lon="3.73906">
        <ele>45.8</ele>
        <time>2017-02-12T12:09:26Z</time>
      </trkpt>
      <trkpt lat="50.73686" lon="3.73905">
        <ele>45.8</ele>
        <time>2017-02-12T12:09:56Z</time>
      </trkpt>
      <trkpt lat="50.73686" lon="3.73908">
        <ele>45.8</ele>
        <time>2017-02-12T12:10:31Z</time>
      </trkpt>
      <trkpt lat="50.73685" lon="3.73908">
        <ele>46.28</ele>
        <time>2017-02-12T12:11:06Z</time>
      </trkpt>
      <trkpt lat="50.73684" lon="3.73907">
        <ele>46.28</ele>
        <time>2017-02-12T12:11:39Z</time>
      </trkpt>
      <trkpt lat="50.73686" lon="3.73908">
        <ele>46.28</ele>
        <time>2017-02-12T12:12:06Z</time>
      </trkpt>
      <trkpt lat="50.73687" lon="3.73909">
        <ele>46.28</ele>
        <time>2017-02-12T12:12:31Z</time>
      </trkpt>
      <trkpt lat="50.73688" lon="3.73911">
        <ele>46.28</ele>
        <time>2017-02-12T12:13:05Z</time>
      </trkpt>
      <trkpt lat="50.73687" lon="3.73908">
        <ele>46.28</ele>
        <time>2017-02-12T12:13:39Z</time>
      </trkpt>
      <trkpt lat="50.73687" lon="3.73909">
        <ele>46.76</ele>
        <time>2017-02-12T12:14:10Z</time>
      </trkpt>
      <trkpt lat="50.73687" lon="3.73908">
        <ele>46.76</ele>
        <time>2017-02-12T12:14:40Z</time>
      </trkpt>
      <trkpt lat="50.73686" lon="3.73909">
        <ele>46.76</ele>
        <time>2017-02-12T12:15:08Z</time>
      </trkpt>
      <trkpt lat="50.73686" lon="3.73909">
        <ele>46.76</ele>
        <time>2017-02-12T12:15:38Z</time>
      </trkpt>
      <trkpt lat="50.73689" lon="3.73908">
        <ele>46.76</ele>
        <time>2017-02-12T12:16:07Z</time>
      </trkpt>
      <trkpt lat="50.7369" lon="3.7391">
        <ele>46.76</ele>
        <time>2017-02-12T12:16:35Z</time>
      </trkpt>
      <trkpt lat="50.73688" lon="3.73913">
        <ele>46.76</ele>
        <time>2017-02-12T12:17:01Z</time>
      </trkpt>
      <trkpt lat="50.7369" lon="3.73907">
        <ele>46.76</ele>
        <time>2017-02-12T12:17:35Z</time>
      </trkpt>
      <trkpt lat="50.73691" lon="3.73907">
        <ele>46.76</ele>
        <time>2017-02-12T12:18:02Z</time>
      </trkpt>
      <trkpt lat="50.7369" lon="3.73907">
        <ele>47.24</ele>
        <time>2017-02-12T12:18:26Z</time>
      </trkpt>
      <trkpt lat="50.73691" lon="3.73907">
        <ele>47.24</ele>
        <time>2017-02-12T12:18:53Z</time>
      </trkpt>
      <trkpt lat="50.73694" lon="3.73899">
        <ele>47.24</ele>
        <time>2017-02-12T12:19:24Z</time>
      </trkpt>
      <trkpt lat="50.73693" lon="3.739">
        <ele>47.24</ele>
        <time>2017-02-12T12:19:45Z</time>
      </trkpt>
      <trkpt lat="50.7369" lon="3.73903">
        <ele>47.24</ele>
        <time>2017-02-12T12:20:06Z</time>
      </trkpt>
      <trkpt lat="50.73696" lon="3.73892">
        <ele>47.24</ele>
        <time>2017-02-12T12:20:36Z</time>
      </trkpt>
      <trkpt lat="50.73693" lon="3.73895">
        <ele>47.24</ele>
        <time>2017-02-12T12:20:53Z</time>
      </trkpt>
      <trkpt lat="50.73693" lon="3.73896">
        <ele>47.24</ele>
        <time>2017-02-12T12:21:07Z</time>
      </trkpt>
      <trkpt lat="50.73684" lon="3.73909">
        <ele>47.24</ele>
        <time>2017-02-12T12:21:31Z</time>
      </trkpt>
      <trkpt lat="50.73682" lon="3.73912">
        <ele>46.76</ele>
        <time>2017-02-12T12:21:54Z</time>
      </trkpt>
      <trkpt lat="50.73682" lon="3.73912">
        <ele>46.76</ele>
        <time>2017-02-12T12:22:17Z</time>
      </trkpt>
      <trkpt lat="50.73684" lon="3.73912">
        <ele>47.24</ele>
        <time>2017-02-12T12:22:33Z</time>
      </trkpt>
      <trkpt lat="50.73684" lon="3.73912">
        <ele>47.24</ele>
        <time>2017-02-12T12:22:50Z</time>
      </trkpt>
      <trkpt lat="50.73685" lon="3.7391">
        <ele>47.24</ele>
        <time>2017-02-12T12:23:03Z</time>
      </trkpt>
      <trkpt lat="50.73684" lon="3.73896">
        <ele>48.2</ele>
        <time>2017-02-12T12:23:28Z</time>
      </trkpt>
      <trkpt lat="50.73683" lon="3.73886">
        <ele>37.63</ele>
        <time>2017-02-12T12:23:35Z</time>
      </trkpt>
      <trkpt lat="50.73683" lon="3.73885">
        <ele>53.97</ele>
        <time>2017-02-12T12:23:36Z</time>
      </trkpt>
      <trkpt lat="50.73682" lon="3.73883">
        <ele>47.72</ele>
        <time>2017-02-12T12:23:37Z</time>
      </trkpt>
      <trkpt lat="50.73685" lon="3.73903">
        <ele>47.24</ele>
        <time>2017-02-12T12:23:58Z</time>
      </trkpt>
      <trkpt lat="50.73685" lon="3.73906">
        <ele>47.24</ele>
        <time>2017-02-12T12:24:20Z</time>
      </trkpt>
      <trkpt lat="50.73689" lon="3.73904">
        <ele>47.24</ele>
        <time>2017-02-12T12:24:47Z</time>
      </trkpt>
      <trkpt lat="50.73689" lon="3.73899">
        <ele>47.24</ele>
        <time>2017-02-12T12:25:06Z</time>
      </trkpt>
      <trkpt lat="50.73652" lon="3.73826">
        <ele>47.24</ele>
        <time>2017-02-12T12:25:46Z</time>
      </trkpt>
      <trkpt lat="50.73659" lon="3.7385">
        <ele>47.24</ele>
        <time>2017-02-12T12:26:01Z</time>
      </trkpt>
      <trkpt lat="50.73652" lon="3.73853">
        <ele>47.24</ele>
        <time>2017-02-12T12:26:19Z</time>
      </trkpt>
      <trkpt lat="50.73652" lon="3.7386">
        <ele>46.76</ele>
        <time>2017-02-12T12:26:41Z</time>
      </trkpt>
      <trkpt lat="50.73653" lon="3.73867">
        <ele>46.76</ele>
        <time>2017-02-12T12:27:04Z</time>
      </trkpt>
      <trkpt lat="50.73651" lon="3.73861">
        <ele>46.76</ele>
        <time>2017-02-12T12:27:24Z</time>
      </trkpt>
      <trkpt lat="50.73656" lon="3.7386">
        <ele>47.72</ele>
        <time>2017-02-12T12:27:45Z</time>
      </trkpt>
      <trkpt lat="50.7365" lon="3.73852">
        <ele>47.24</ele>
        <time>2017-02-12T12:28:03Z</time>
      </trkpt>
      <trkpt lat="50.7365" lon="3.73848">
        <ele>47.24</ele>
        <time>2017-02-12T12:28:21Z</time>
      </trkpt>
      <trkpt lat="50.73647" lon="3.73836">
        <ele>47.24</ele>
        <time>2017-02-12T12:28:44Z</time>
      </trkpt>
      <trkpt lat="50.73655" lon="3.73858">
        <ele>46.76</ele>
        <time>2017-02-12T12:29:08Z</time>
      </trkpt>
      <trkpt lat="50.73656" lon="3.73865">
        <ele>46.76</ele>
        <time>2017-02-12T12:29:39Z</time>
      </trkpt>
      <trkpt lat="50.73655" lon="3.73862">
        <ele>46.76</ele>
        <time>2017-02-12T12:29:55Z</time>
      </trkpt>
      <trkpt lat="50.73655" lon="3.73861">
        <ele>46.76</ele>
        <time>2017-02-12T12:30:07Z</time>
      </trkpt>
      <trkpt lat="50.73652" lon="3.73858">
        <ele>47.24</ele>
        <time>2017-02-12T12:30:22Z</time>
      </trkpt>
      <trkpt lat="50.73648" lon="3.73856">
        <ele>47.24</ele>
        <time>2017-02-12T12:30:27Z</time>
      </trkpt>
      <trkpt lat="50.7364" lon="3.73843">
        <ele>49.16</ele>
        <time>2017-02-12T12:30:42Z</time>
      </trkpt>
      <trkpt lat="50.73627" lon="3.73828">
        <ele>50.13</ele>
        <time>2017-02-12T12:30:59Z</time>
      </trkpt>
      <trkpt lat="50.73614" lon="3.73813">
        <ele>50.61</ele>
        <time>2017-02-12T12:31:16Z</time>
      </trkpt>
      <trkpt lat="50.73616" lon="3.73808">
        <ele>50.13</ele>
        <time>2017-02-12T12:31:36Z</time>
      </trkpt>
      <trkpt lat="50.73613" lon="3.73807">
        <ele>50.13</ele>
        <time>2017-02-12T12:31:40Z</time>
      </trkpt>
      <trkpt lat="50.73603" lon="3.73791">
        <ele>50.13</ele>
        <time>2017-02-12T12:31:53Z</time>
      </trkpt>
      <trkpt lat="50.73588" lon="3.7377">
        <ele>50.13</ele>
        <time>2017-02-12T12:32:11Z</time>
      </trkpt>
      <trkpt lat="50.73583" lon="3.73762">
        <ele>50.13</ele>
        <time>2017-02-12T12:32:20Z</time>
      </trkpt>
      <trkpt lat="50.73577" lon="3.73756">
        <ele>50.13</ele>
        <time>2017-02-12T12:32:29Z</time>
      </trkpt>
      <trkpt lat="50.73563" lon="3.73741">
        <ele>50.13</ele>
        <time>2017-02-12T12:32:45Z</time>
      </trkpt>
      <trkpt lat="50.73551" lon="3.73726">
        <ele>50.13</ele>
        <time>2017-02-12T12:32:59Z</time>
      </trkpt>
      <trkpt lat="50.7355" lon="3.73723">
        <ele>50.13</ele>
        <time>2017-02-12T12:33:01Z</time>
      </trkpt>
      <trkpt lat="50.7354" lon="3.73711">
        <ele>50.13</ele>
        <time>2017-02-12T12:33:12Z</time>
      </trkpt>
      <trkpt lat="50.73531" lon="3.73701">
        <ele>50.61</ele>
        <time>2017-02-12T12:33:22Z</time>
      </trkpt>
      <trkpt lat="50.7353" lon="3.73698">
        <ele>51.09</ele>
        <time>2017-02-12T12:33:24Z</time>
      </trkpt>
      <trkpt lat="50.73515" lon="3.73678">
        <ele>51.09</ele>
        <time>2017-02-12T12:33:39Z</time>
      </trkpt>
      <trkpt lat="50.73498" lon="3.73658">
        <ele>52.05</ele>
        <time>2017-02-12T12:33:57Z</time>
      </trkpt>
      <trkpt lat="50.73483" lon="3.7364">
        <ele>52.53</ele>
        <time>2017-02-12T12:34:10Z</time>
      </trkpt>
      <trkpt lat="50.73471" lon="3.73626">
        <ele>53.49</ele>
        <time>2017-02-12T12:34:23Z</time>
      </trkpt>
      <trkpt lat="50.73464" lon="3.73619">
        <ele>53.49</ele>
        <time>2017-02-12T12:34:29Z</time>
      </trkpt>
      <trkpt lat="50.73454" lon="3.73606">
        <ele>53.97</ele>
        <time>2017-02-12T12:34:38Z</time>
      </trkpt>
      <trkpt lat="50.73438" lon="3.73584">
        <ele>54.45</ele>
        <time>2017-02-12T12:34:54Z</time>
      </trkpt>
      <trkpt lat="50.73426" lon="3.73569">
        <ele>54.93</ele>
        <time>2017-02-12T12:35:07Z</time>
      </trkpt>
      <trkpt lat="50.73419" lon="3.7356">
        <ele>55.41</ele>
        <time>2017-02-12T12:35:15Z</time>
      </trkpt>
      <trkpt lat="50.73409" lon="3.7354">
        <ele>55.41</ele>
        <time>2017-02-12T12:35:29Z</time>
      </trkpt>
      <trkpt lat="50.73397" lon="3.73509">
        <ele>55.89</ele>
        <time>2017-02-12T12:35:45Z</time>
      </trkpt>
      <trkpt lat="50.73383" lon="3.73479">
        <ele>56.37</ele>
        <time>2017-02-12T12:36:02Z</time>
      </trkpt>
      <trkpt lat="50.73373" lon="3.73453">
        <ele>56.86</ele>
        <time>2017-02-12T12:36:18Z</time>
      </trkpt>
      <trkpt lat="50.73365" lon="3.73426">
        <ele>57.34</ele>
        <time>2017-02-12T12:36:33Z</time>
      </trkpt>
      <trkpt lat="50.73356" lon="3.73402">
        <ele>57.82</ele>
        <time>2017-02-12T12:36:47Z</time>
      </trkpt>
      <trkpt lat="50.73347" lon="3.73375">
        <ele>58.3</ele>
        <time>2017-02-12T12:37:03Z</time>
      </trkpt>
      <trkpt lat="50.73342" lon="3.73366">
        <ele>59.26</ele>
        <time>2017-02-12T12:37:09Z</time>
      </trkpt>
      <trkpt lat="50.73337" lon="3.73348">
        <ele>58.3</ele>
        <time>2017-02-12T12:37:23Z</time>
      </trkpt>
      <trkpt lat="50.73331" lon="3.73333">
        <ele>58.3</ele>
        <time>2017-02-12T12:37:36Z</time>
      </trkpt>
      <trkpt lat="50.73324" lon="3.73309">
        <ele>57.82</ele>
        <time>2017-02-12T12:37:50Z</time>
      </trkpt>
      <trkpt lat="50.73312" lon="3.73275">
        <ele>56.86</ele>
        <time>2017-02-12T12:38:09Z</time>
      </trkpt>
      <trkpt lat="50.73308" lon="3.73255">
        <ele>54.93</ele>
        <time>2017-02-12T12:38:22Z</time>
      </trkpt>
      <trkpt lat="50.73307" lon="3.73254">
        <ele>57.34</ele>
        <time>2017-02-12T12:38:24Z</time>
      </trkpt>
      <trkpt lat="50.73307" lon="3.73255">
        <ele>53.97</ele>
        <time>2017-02-12T12:38:25Z</time>
      </trkpt>
      <trkpt lat="50.73308" lon="3.73256">
        <ele>57.34</ele>
        <time>2017-02-12T12:38:26Z</time>
      </trkpt>
      <trkpt lat="50.73309" lon="3.73257">
        <ele>56.37</ele>
        <time>2017-02-12T12:38:27Z</time>
      </trkpt>
      <trkpt lat="50.73309" lon="3.73253">
        <ele>55.41</ele>
        <time>2017-02-12T12:38:45Z</time>
      </trkpt>
      <trkpt lat="50.73307" lon="3.73254">
        <ele>56.37</ele>
        <time>2017-02-12T12:39:04Z</time>
      </trkpt>
      <trkpt lat="50.73305" lon="3.73257">
        <ele>56.37</ele>
        <time>2017-02-12T12:39:08Z</time>
      </trkpt>
      <trkpt lat="50.73301" lon="3.73258">
        <ele>55.41</ele>
        <time>2017-02-12T12:39:12Z</time>
      </trkpt>
      <trkpt lat="50.73288" lon="3.73276">
        <ele>54.93</ele>
        <time>2017-02-12T12:39:28Z</time>
      </trkpt>
      <trkpt lat="50.73273" lon="3.73295">
        <ele>54.45</ele>
        <time>2017-02-12T12:39:44Z</time>
      </trkpt>
      <trkpt lat="50.73261" lon="3.73307">
        <ele>54.45</ele>
        <time>2017-02-12T12:39:58Z</time>
      </trkpt>
      <trkpt lat="50.73247" lon="3.73327">
        <ele>53.49</ele>
        <time>2017-02-12T12:40:15Z</time>
      </trkpt>
      <trkpt lat="50.73234" lon="3.73346">
        <ele>53.01</ele>
        <time>2017-02-12T12:40:30Z</time>
      </trkpt>
      <trkpt lat="50.73222" lon="3.73377">
        <ele>52.53</ele>
        <time>2017-02-12T12:40:48Z</time>
      </trkpt>
      <trkpt lat="50.73212" lon="3.73409">
        <ele>51.57</ele>
        <time>2017-02-12T12:41:05Z</time>
      </trkpt>
      <trkpt lat="50.73207" lon="3.73427">
        <ele>51.09</ele>
        <time>2017-02-12T12:41:16Z</time>
      </trkpt>
      <trkpt lat="50.73204" lon="3.73443">
        <ele>51.09</ele>
        <time>2017-02-12T12:41:26Z</time>
      </trkpt>
      <trkpt lat="50.732" lon="3.73464">
        <ele>52.53</ele>
        <time>2017-02-12T12:41:40Z</time>
      </trkpt>
      <trkpt lat="50.73192" lon="3.73491">
        <ele>53.49</ele>
        <time>2017-02-12T12:41:56Z</time>
      </trkpt>
      <trkpt lat="50.73187" lon="3.73497">
        <ele>53.49</ele>
        <time>2017-02-12T12:42:13Z</time>
      </trkpt>
      <trkpt lat="50.73185" lon="3.73496">
        <ele>53.49</ele>
        <time>2017-02-12T12:42:19Z</time>
      </trkpt>
      <trkpt lat="50.73178" lon="3.73523">
        <ele>53.97</ele>
        <time>2017-02-12T12:42:36Z</time>
      </trkpt>
      <trkpt lat="50.73171" lon="3.73547">
        <ele>54.45</ele>
        <time>2017-02-12T12:42:52Z</time>
      </trkpt>
      <trkpt lat="50.73165" lon="3.73562">
        <ele>55.41</ele>
        <time>2017-02-12T12:43:02Z</time>
      </trkpt>
      <trkpt lat="50.7316" lon="3.73586">
        <ele>55.41</ele>
        <time>2017-02-12T12:43:17Z</time>
      </trkpt>
      <trkpt lat="50.73155" lon="3.73597">
        <ele>55.41</ele>
        <time>2017-02-12T12:43:24Z</time>
      </trkpt>
      <trkpt lat="50.73153" lon="3.73605">
        <ele>55.41</ele>
        <time>2017-02-12T12:43:29Z</time>
      </trkpt>
      <trkpt lat="50.73144" lon="3.73635">
        <ele>54.93</ele>
        <time>2017-02-12T12:43:48Z</time>
      </trkpt>
      <trkpt lat="50.73134" lon="3.73661">
        <ele>55.41</ele>
        <time>2017-02-12T12:44:04Z</time>
      </trkpt>
      <trkpt lat="50.73129" lon="3.73672">
        <ele>55.41</ele>
        <time>2017-02-12T12:44:12Z</time>
      </trkpt>
      <trkpt lat="50.73122" lon="3.73695">
        <ele>55.41</ele>
        <time>2017-02-12T12:44:27Z</time>
      </trkpt>
      <trkpt lat="50.73121" lon="3.73698">
        <ele>53.97</ele>
        <time>2017-02-12T12:44:29Z</time>
      </trkpt>
      <trkpt lat="50.73113" lon="3.73723">
        <ele>53.97</ele>
        <time>2017-02-12T12:44:43Z</time>
      </trkpt>
      <trkpt lat="50.73108" lon="3.73746">
        <ele>53.49</ele>
        <time>2017-02-12T12:44:56Z</time>
      </trkpt>
      <trkpt lat="50.73103" lon="3.73767">
        <ele>52.53</ele>
        <time>2017-02-12T12:45:08Z</time>
      </trkpt>
      <trkpt lat="50.73097" lon="3.73796">
        <ele>51.57</ele>
        <time>2017-02-12T12:45:24Z</time>
      </trkpt>
      <trkpt lat="50.7309" lon="3.73828">
        <ele>51.09</ele>
        <time>2017-02-12T12:45:41Z</time>
      </trkpt>
      <trkpt lat="50.73087" lon="3.73854">
        <ele>50.61</ele>
        <time>2017-02-12T12:45:57Z</time>
      </trkpt>
      <trkpt lat="50.73083" lon="3.73876">
        <ele>50.13</ele>
        <time>2017-02-12T12:46:11Z</time>
      </trkpt>
      <trkpt lat="50.73077" lon="3.73903">
        <ele>50.13</ele>
        <time>2017-02-12T12:46:26Z</time>
      </trkpt>
      <trkpt lat="50.7307" lon="3.73926">
        <ele>50.13</ele>
        <time>2017-02-12T12:46:41Z</time>
      </trkpt>
      <trkpt lat="50.73063" lon="3.73951">
        <ele>50.13</ele>
        <time>2017-02-12T12:46:56Z</time>
      </trkpt>
      <trkpt lat="50.73054" lon="3.73971">
        <ele>50.13</ele>
        <time>2017-02-12T12:47:10Z</time>
      </trkpt>
      <trkpt lat="50.73046" lon="3.73997">
        <ele>49.65</ele>
        <time>2017-02-12T12:47:25Z</time>
      </trkpt>
      <trkpt lat="50.73035" lon="3.74028">
        <ele>49.16</ele>
        <time>2017-02-12T12:47:43Z</time>
      </trkpt>
      <trkpt lat="50.73024" lon="3.74061">
        <ele>48.68</ele>
        <time>2017-02-12T12:48:02Z</time>
      </trkpt>
      <trkpt lat="50.73017" lon="3.7409">
        <ele>48.68</ele>
        <time>2017-02-12T12:48:18Z</time>
      </trkpt>
      <trkpt lat="50.73011" lon="3.74113">
        <ele>47.72</ele>
        <time>2017-02-12T12:48:31Z</time>
      </trkpt>
      <trkpt lat="50.73003" lon="3.74142">
        <ele>47.72</ele>
        <time>2017-02-12T12:48:48Z</time>
      </trkpt>
      <trkpt lat="50.72996" lon="3.74169">
        <ele>46.76</ele>
        <time>2017-02-12T12:49:05Z</time>
      </trkpt>
      <trkpt lat="50.72989" lon="3.74197">
        <ele>46.76</ele>
        <time>2017-02-12T12:49:20Z</time>
      </trkpt>
      <trkpt lat="50.72981" lon="3.74229">
        <ele>46.76</ele>
        <time>2017-02-12T12:49:37Z</time>
      </trkpt>
      <trkpt lat="50.72973" lon="3.74258">
        <ele>46.28</ele>
        <time>2017-02-12T12:49:54Z</time>
      </trkpt>
      <trkpt lat="50.72969" lon="3.74281">
        <ele>46.28</ele>
        <time>2017-02-12T12:50:08Z</time>
      </trkpt>
      <trkpt lat="50.72966" lon="3.74311">
        <ele>45.8</ele>
        <time>2017-02-12T12:50:21Z</time>
      </trkpt>
      <trkpt lat="50.72964" lon="3.74342">
        <ele>45.8</ele>
        <time>2017-02-12T12:50:37Z</time>
      </trkpt>
      <trkpt lat="50.72961" lon="3.74372">
        <ele>45.32</ele>
        <time>2017-02-12T12:50:53Z</time>
      </trkpt>
      <trkpt lat="50.72961" lon="3.74378">
        <ele>45.32</ele>
        <time>2017-02-12T12:50:56Z</time>
      </trkpt>
      <trkpt lat="50.72961" lon="3.74386">
        <ele>45.32</ele>
        <time>2017-02-12T12:51:00Z</time>
      </trkpt>
      <trkpt lat="50.72956" lon="3.74418">
        <ele>45.32</ele>
        <time>2017-02-12T12:51:17Z</time>
      </trkpt>
      <trkpt lat="50.72953" lon="3.74427">
        <ele>46.28</ele>
        <time>2017-02-12T12:51:23Z</time>
      </trkpt>
      <trkpt lat="50.72948" lon="3.74449">
        <ele>46.28</ele>
        <time>2017-02-12T12:51:36Z</time>
      </trkpt>
      <trkpt lat="50.72946" lon="3.7446">
        <ele>46.28</ele>
        <time>2017-02-12T12:51:42Z</time>
      </trkpt>
      <trkpt lat="50.7294" lon="3.74485">
        <ele>46.76</ele>
        <time>2017-02-12T12:51:56Z</time>
      </trkpt>
      <trkpt lat="50.72933" lon="3.74515">
        <ele>47.24</ele>
        <time>2017-02-12T12:52:12Z</time>
      </trkpt>
      <trkpt lat="50.72931" lon="3.74522">
        <ele>47.24</ele>
        <time>2017-02-12T12:52:16Z</time>
      </trkpt>
      <trkpt lat="50.72925" lon="3.74546">
        <ele>47.24</ele>
        <time>2017-02-12T12:52:30Z</time>
      </trkpt>
      <trkpt lat="50.72922" lon="3.74553">
        <ele>47.24</ele>
        <time>2017-02-12T12:52:35Z</time>
      </trkpt>
      <trkpt lat="50.72916" lon="3.74579">
        <ele>47.24</ele>
        <time>2017-02-12T12:52:50Z</time>
      </trkpt>
      <trkpt lat="50.7291" lon="3.74602">
        <ele>47.72</ele>
        <time>2017-02-12T12:53:03Z</time>
      </trkpt>
      <trkpt lat="50.729" lon="3.74632">
        <ele>47.72</ele>
        <time>2017-02-12T12:53:21Z</time>
      </trkpt>
      <trkpt lat="50.72891" lon="3.74659">
        <ele>48.2</ele>
        <time>2017-02-12T12:53:36Z</time>
      </trkpt>
      <trkpt lat="50.7288" lon="3.7468">
        <ele>48.68</ele>
        <time>2017-02-12T12:53:50Z</time>
      </trkpt>
      <trkpt lat="50.7287" lon="3.74701">
        <ele>49.16</ele>
        <time>2017-02-12T12:54:04Z</time>
      </trkpt>
      <trkpt lat="50.72857" lon="3.74725">
        <ele>49.65</ele>
        <time>2017-02-12T12:54:20Z</time>
      </trkpt>
      <trkpt lat="50.72842" lon="3.74744">
        <ele>50.61</ele>
        <time>2017-02-12T12:54:38Z</time>
      </trkpt>
      <trkpt lat="50.72836" lon="3.74745">
        <ele>50.61</ele>
        <time>2017-02-12T12:54:52Z</time>
      </trkpt>
      <trkpt lat="50.72834" lon="3.74745">
        <ele>50.61</ele>
        <time>2017-02-12T12:55:16Z</time>
      </trkpt>
      <trkpt lat="50.72831" lon="3.74747">
        <ele>51.09</ele>
        <time>2017-02-12T12:55:36Z</time>
      </trkpt>
      <trkpt lat="50.72827" lon="3.74744">
        <ele>51.09</ele>
        <time>2017-02-12T12:55:51Z</time>
      </trkpt>
      <trkpt lat="50.72824" lon="3.74745">
        <ele>51.09</ele>
        <time>2017-02-12T12:55:55Z</time>
      </trkpt>
      <trkpt lat="50.7281" lon="3.74746">
        <ele>51.09</ele>
        <time>2017-02-12T12:56:11Z</time>
      </trkpt>
      <trkpt lat="50.72794" lon="3.74752">
        <ele>51.09</ele>
        <time>2017-02-12T12:56:28Z</time>
      </trkpt>
      <trkpt lat="50.72779" lon="3.74758">
        <ele>51.57</ele>
        <time>2017-02-12T12:56:41Z</time>
      </trkpt>
      <trkpt lat="50.72761" lon="3.74767">
        <ele>51.57</ele>
        <time>2017-02-12T12:56:57Z</time>
      </trkpt>
      <trkpt lat="50.72746" lon="3.74774">
        <ele>51.57</ele>
        <time>2017-02-12T12:57:12Z</time>
      </trkpt>
      <trkpt lat="50.72728" lon="3.74781">
        <ele>51.57</ele>
        <time>2017-02-12T12:57:27Z</time>
      </trkpt>
      <trkpt lat="50.72704" lon="3.74791">
        <ele>50.61</ele>
        <time>2017-02-12T12:57:46Z</time>
      </trkpt>
      <trkpt lat="50.72687" lon="3.748">
        <ele>50.61</ele>
        <time>2017-02-12T12:58:01Z</time>
      </trkpt>
      <trkpt lat="50.72665" lon="3.74807">
        <ele>50.61</ele>
        <time>2017-02-12T12:58:18Z</time>
      </trkpt>
      <trkpt lat="50.72646" lon="3.74814">
        <ele>50.13</ele>
        <time>2017-02-12T12:58:34Z</time>
      </trkpt>
      <trkpt lat="50.72625" lon="3.74819">
        <ele>49.65</ele>
        <time>2017-02-12T12:58:51Z</time>
      </trkpt>
      <trkpt lat="50.72618" lon="3.74821">
        <ele>49.65</ele>
        <time>2017-02-12T12:58:57Z</time>
      </trkpt>
      <trkpt lat="50.72599" lon="3.74821">
        <ele>49.16</ele>
        <time>2017-02-12T12:59:13Z</time>
      </trkpt>
      <trkpt lat="50.72579" lon="3.74821">
        <ele>48.68</ele>
        <time>2017-02-12T12:59:29Z</time>
      </trkpt>
      <trkpt lat="50.72557" lon="3.74821">
        <ele>47.72</ele>
        <time>2017-02-12T12:59:47Z</time>
      </trkpt>
      <trkpt lat="50.72534" lon="3.74821">
        <ele>46.28</ele>
        <time>2017-02-12T13:00:05Z</time>
      </trkpt>
      <trkpt lat="50.72516" lon="3.74822">
        <ele>46.76</ele>
        <time>2017-02-12T13:00:20Z</time>
      </trkpt>
      <trkpt lat="50.72494" lon="3.74824">
        <ele>45.8</ele>
        <time>2017-02-12T13:00:38Z</time>
      </trkpt>
      <trkpt lat="50.72473" lon="3.74824">
        <ele>45.32</ele>
        <time>2017-02-12T13:00:55Z</time>
      </trkpt>
      <trkpt lat="50.72455" lon="3.74825">
        <ele>44.36</ele>
        <time>2017-02-12T13:01:11Z</time>
      </trkpt>
      <trkpt lat="50.7243" lon="3.74825">
        <ele>43.4</ele>
        <time>2017-02-12T13:01:30Z</time>
      </trkpt>
      <trkpt lat="50.7241" lon="3.74821">
        <ele>42.44</ele>
        <time>2017-02-12T13:01:46Z</time>
      </trkpt>
      <trkpt lat="50.72392" lon="3.74811">
        <ele>40.99</ele>
        <time>2017-02-12T13:02:02Z</time>
      </trkpt>
      <trkpt lat="50.72375" lon="3.74799">
        <ele>40.03</ele>
        <time>2017-02-12T13:02:17Z</time>
      </trkpt>
      <trkpt lat="50.72374" lon="3.74798">
        <ele>40.03</ele>
        <time>2017-02-12T13:02:18Z</time>
      </trkpt>
      <trkpt lat="50.72357" lon="3.74788">
        <ele>38.59</ele>
        <time>2017-02-12T13:02:32Z</time>
      </trkpt>
      <trkpt lat="50.72338" lon="3.74777">
        <ele>38.59</ele>
        <time>2017-02-12T13:02:47Z</time>
      </trkpt>
      <trkpt lat="50.72314" lon="3.74771">
        <ele>35.71</ele>
        <time>2017-02-12T13:03:07Z</time>
      </trkpt>
      <trkpt lat="50.72296" lon="3.74766">
        <ele>34.74</ele>
        <time>2017-02-12T13:03:22Z</time>
      </trkpt>
      <trkpt lat="50.72279" lon="3.74766">
        <ele>34.26</ele>
        <time>2017-02-12T13:03:34Z</time>
      </trkpt>
      <trkpt lat="50.72273" lon="3.74764">
        <ele>33.78</ele>
        <time>2017-02-12T13:03:39Z</time>
      </trkpt>
      <trkpt lat="50.72251" lon="3.74762">
        <ele>31.86</ele>
        <time>2017-02-12T13:03:57Z</time>
      </trkpt>
      <trkpt lat="50.72231" lon="3.74764">
        <ele>30.42</ele>
        <time>2017-02-12T13:04:15Z</time>
      </trkpt>
      <trkpt lat="50.7221" lon="3.74773">
        <ele>28.5</ele>
        <time>2017-02-12T13:04:33Z</time>
      </trkpt>
      <trkpt lat="50.72186" lon="3.74782">
        <ele>27.05</ele>
        <time>2017-02-12T13:04:52Z</time>
      </trkpt>
      <trkpt lat="50.72168" lon="3.74793">
        <ele>26.57</ele>
        <time>2017-02-12T13:05:08Z</time>
      </trkpt>
      <trkpt lat="50.72148" lon="3.74809">
        <ele>26.09</ele>
        <time>2017-02-12T13:05:26Z</time>
      </trkpt>
      <trkpt lat="50.72138" lon="3.74834">
        <ele>26.09</ele>
        <time>2017-02-12T13:05:42Z</time>
      </trkpt>
      <trkpt lat="50.72135" lon="3.74855">
        <ele>27.53</ele>
        <time>2017-02-12T13:05:54Z</time>
      </trkpt>
      <trkpt lat="50.72131" lon="3.74863">
        <ele>28.02</ele>
        <time>2017-02-12T13:06:00Z</time>
      </trkpt>
      <trkpt lat="50.72114" lon="3.74861">
        <ele>28.02</ele>
        <time>2017-02-12T13:06:13Z</time>
      </trkpt>
      <trkpt lat="50.72091" lon="3.74852">
        <ele>27.05</ele>
        <time>2017-02-12T13:06:32Z</time>
      </trkpt>
      <trkpt lat="50.72069" lon="3.74846">
        <ele>26.09</ele>
        <time>2017-02-12T13:06:51Z</time>
      </trkpt>
      <trkpt lat="50.72046" lon="3.74839">
        <ele>26.09</ele>
        <time>2017-02-12T13:07:11Z</time>
      </trkpt>
      <trkpt lat="50.72022" lon="3.74834">
        <ele>26.09</ele>
        <time>2017-02-12T13:07:31Z</time>
      </trkpt>
      <trkpt lat="50.72004" lon="3.74831">
        <ele>26.09</ele>
        <time>2017-02-12T13:07:48Z</time>
      </trkpt>
      <trkpt lat="50.71984" lon="3.7483">
        <ele>26.09</ele>
        <time>2017-02-12T13:08:04Z</time>
      </trkpt>
      <trkpt lat="50.71964" lon="3.74824">
        <ele>25.61</ele>
        <time>2017-02-12T13:08:21Z</time>
      </trkpt>
      <trkpt lat="50.71945" lon="3.7482">
        <ele>25.13</ele>
        <time>2017-02-12T13:08:37Z</time>
      </trkpt>
      <trkpt lat="50.71923" lon="3.74817">
        <ele>25.13</ele>
        <time>2017-02-12T13:08:55Z</time>
      </trkpt>
      <trkpt lat="50.71907" lon="3.74805">
        <ele>25.13</ele>
        <time>2017-02-12T13:09:10Z</time>
      </trkpt>
      <trkpt lat="50.71896" lon="3.74792">
        <ele>25.13</ele>
        <time>2017-02-12T13:09:24Z</time>
      </trkpt>
      <trkpt lat="50.71886" lon="3.74775">
        <ele>26.57</ele>
        <time>2017-02-12T13:09:36Z</time>
      </trkpt>
      <trkpt lat="50.71874" lon="3.74749">
        <ele>26.57</ele>
        <time>2017-02-12T13:09:52Z</time>
      </trkpt>
      <trkpt lat="50.71864" lon="3.74724">
        <ele>27.05</ele>
        <time>2017-02-12T13:10:05Z</time>
      </trkpt>
      <trkpt lat="50.71857" lon="3.74716">
        <ele>27.05</ele>
        <time>2017-02-12T13:10:15Z</time>
      </trkpt>
      <trkpt lat="50.71855" lon="3.74715">
        <ele>27.05</ele>
        <time>2017-02-12T13:10:17Z</time>
      </trkpt>
      <trkpt lat="50.71838" lon="3.74711">
        <ele>28.5</ele>
        <time>2017-02-12T13:10:31Z</time>
      </trkpt>
      <trkpt lat="50.71837" lon="3.74712">
        <ele>28.5</ele>
        <time>2017-02-12T13:10:33Z</time>
      </trkpt>
      <trkpt lat="50.71827" lon="3.74721">
        <ele>28.98</ele>
        <time>2017-02-12T13:10:43Z</time>
      </trkpt>
      <trkpt lat="50.71817" lon="3.74729">
        <ele>29.46</ele>
        <time>2017-02-12T13:10:54Z</time>
      </trkpt>
      <trkpt lat="50.71813" lon="3.74738">
        <ele>28.98</ele>
        <time>2017-02-12T13:11:06Z</time>
      </trkpt>
      <trkpt lat="50.71802" lon="3.74747">
        <ele>29.46</ele>
        <time>2017-02-12T13:11:18Z</time>
      </trkpt>
      <trkpt lat="50.71798" lon="3.7475">
        <ele>29.46</ele>
        <time>2017-02-12T13:11:22Z</time>
      </trkpt>
      <trkpt lat="50.71783" lon="3.74754">
        <ele>29.94</ele>
        <time>2017-02-12T13:11:33Z</time>
      </trkpt>
      <trkpt lat="50.71766" lon="3.74771">
        <ele>29.94</ele>
        <time>2017-02-12T13:11:47Z</time>
      </trkpt>
      <trkpt lat="50.7176" lon="3.74774">
        <ele>28.5</ele>
        <time>2017-02-12T13:11:53Z</time>
      </trkpt>
      <trkpt lat="50.71743" lon="3.74781">
        <ele>26.57</ele>
        <time>2017-02-12T13:12:08Z</time>
      </trkpt>
      <trkpt lat="50.71742" lon="3.74781">
        <ele>26.57</ele>
        <time>2017-02-12T13:12:09Z</time>
      </trkpt>
      <trkpt lat="50.7172" lon="3.74787">
        <ele>25.61</ele>
        <time>2017-02-12T13:12:25Z</time>
      </trkpt>
      <trkpt lat="50.71703" lon="3.74788">
        <ele>25.13</ele>
        <time>2017-02-12T13:12:39Z</time>
      </trkpt>
      <trkpt lat="50.71691" lon="3.74782">
        <ele>25.13</ele>
        <time>2017-02-12T13:12:52Z</time>
      </trkpt>
      <trkpt lat="50.71686" lon="3.74783">
        <ele>24.65</ele>
        <time>2017-02-12T13:13:09Z</time>
      </trkpt>
      <trkpt lat="50.71682" lon="3.74782">
        <ele>24.65</ele>
        <time>2017-02-12T13:13:15Z</time>
      </trkpt>
      <trkpt lat="50.71679" lon="3.74782">
        <ele>24.65</ele>
        <time>2017-02-12T13:13:18Z</time>
      </trkpt>
      <trkpt lat="50.71677" lon="3.74782">
        <ele>24.65</ele>
        <time>2017-02-12T13:13:20Z</time>
      </trkpt>
      <trkpt lat="50.71666" lon="3.74783">
        <ele>26.09</ele>
        <time>2017-02-12T13:13:30Z</time>
      </trkpt>
      <trkpt lat="50.71658" lon="3.74783">
        <ele>26.09</ele>
        <time>2017-02-12T13:13:37Z</time>
      </trkpt>
      <trkpt lat="50.71642" lon="3.74792">
        <ele>26.09</ele>
        <time>2017-02-12T13:13:53Z</time>
      </trkpt>
      <trkpt lat="50.71638" lon="3.74799">
        <ele>26.09</ele>
        <time>2017-02-12T13:14:10Z</time>
      </trkpt>
      <trkpt lat="50.71634" lon="3.74805">
        <ele>26.09</ele>
        <time>2017-02-12T13:14:25Z</time>
      </trkpt>
      <trkpt lat="50.71619" lon="3.7482">
        <ele>27.05</ele>
        <time>2017-02-12T13:14:40Z</time>
      </trkpt>
      <trkpt lat="50.7161" lon="3.74828">
        <ele>27.53</ele>
        <time>2017-02-12T13:14:52Z</time>
      </trkpt>
      <trkpt lat="50.71592" lon="3.74837">
        <ele>28.02</ele>
        <time>2017-02-12T13:15:08Z</time>
      </trkpt>
      <trkpt lat="50.71574" lon="3.74845">
        <ele>28.5</ele>
        <time>2017-02-12T13:15:24Z</time>
      </trkpt>
      <trkpt lat="50.71557" lon="3.74855">
        <ele>28.98</ele>
        <time>2017-02-12T13:15:40Z</time>
      </trkpt>
      <trkpt lat="50.71541" lon="3.7486">
        <ele>30.42</ele>
        <time>2017-02-12T13:15:54Z</time>
      </trkpt>
      <trkpt lat="50.71527" lon="3.74866">
        <ele>30.9</ele>
        <time>2017-02-12T13:16:08Z</time>
      </trkpt>
      <trkpt lat="50.7151" lon="3.74872">
        <ele>31.38</ele>
        <time>2017-02-12T13:16:24Z</time>
      </trkpt>
      <trkpt lat="50.71495" lon="3.74879">
        <ele>32.34</ele>
        <time>2017-02-12T13:16:38Z</time>
      </trkpt>
      <trkpt lat="50.71478" lon="3.74886">
        <ele>32.82</ele>
        <time>2017-02-12T13:16:54Z</time>
      </trkpt>
      <trkpt lat="50.7146" lon="3.74892">
        <ele>33.3</ele>
        <time>2017-02-12T13:17:10Z</time>
      </trkpt>
      <trkpt lat="50.71443" lon="3.74899">
        <ele>34.26</ele>
        <time>2017-02-12T13:17:25Z</time>
      </trkpt>
      <trkpt lat="50.71429" lon="3.74904">
        <ele>34.74</ele>
        <time>2017-02-12T13:17:38Z</time>
      </trkpt>
      <trkpt lat="50.71412" lon="3.74913">
        <ele>35.23</ele>
        <time>2017-02-12T13:17:54Z</time>
      </trkpt>
      <trkpt lat="50.71404" lon="3.74916">
        <ele>35.71</ele>
        <time>2017-02-12T13:18:01Z</time>
      </trkpt>
      <trkpt lat="50.71399" lon="3.7492">
        <ele>35.71</ele>
        <time>2017-02-12T13:18:08Z</time>
      </trkpt>
      <trkpt lat="50.71397" lon="3.74921">
        <ele>35.71</ele>
        <time>2017-02-12T13:18:10Z</time>
      </trkpt>
      <trkpt lat="50.71383" lon="3.74931">
        <ele>36.67</ele>
        <time>2017-02-12T13:18:24Z</time>
      </trkpt>
      <trkpt lat="50.7137" lon="3.74939">
        <ele>37.15</ele>
        <time>2017-02-12T13:18:38Z</time>
      </trkpt>
      <trkpt lat="50.71354" lon="3.74948">
        <ele>38.11</ele>
        <time>2017-02-12T13:18:51Z</time>
      </trkpt>
      <trkpt lat="50.71339" lon="3.74957">
        <ele>38.59</ele>
        <time>2017-02-12T13:19:05Z</time>
      </trkpt>
      <trkpt lat="50.71323" lon="3.74963">
        <ele>39.07</ele>
        <time>2017-02-12T13:19:19Z</time>
      </trkpt>
      <trkpt lat="50.71305" lon="3.74968">
        <ele>39.55</ele>
        <time>2017-02-12T13:19:37Z</time>
      </trkpt>
      <trkpt lat="50.71291" lon="3.7497">
        <ele>40.03</ele>
        <time>2017-02-12T13:19:50Z</time>
      </trkpt>
      <trkpt lat="50.71273" lon="3.74971">
        <ele>40.99</ele>
        <time>2017-02-12T13:20:06Z</time>
      </trkpt>
      <trkpt lat="50.71256" lon="3.74974">
        <ele>41.95</ele>
        <time>2017-02-12T13:20:21Z</time>
      </trkpt>
      <trkpt lat="50.71235" lon="3.74982">
        <ele>42.92</ele>
        <time>2017-02-12T13:20:39Z</time>
      </trkpt>
      <trkpt lat="50.71234" lon="3.74984">
        <ele>44.36</ele>
        <time>2017-02-12T13:20:51Z</time>
      </trkpt>
      <trkpt lat="50.71232" lon="3.74982">
        <ele>44.36</ele>
        <time>2017-02-12T13:21:15Z</time>
      </trkpt>
      <trkpt lat="50.71232" lon="3.74982">
        <ele>42.92</ele>
        <time>2017-02-12T13:21:19Z</time>
      </trkpt>
      <trkpt lat="50.71228" lon="3.74985">
        <ele>42.92</ele>
        <time>2017-02-12T13:21:33Z</time>
      </trkpt>
      <trkpt lat="50.71222" lon="3.74989">
        <ele>42.92</ele>
        <time>2017-02-12T13:21:47Z</time>
      </trkpt>
      <trkpt lat="50.71203" lon="3.75">
        <ele>43.88</ele>
        <time>2017-02-12T13:22:04Z</time>
      </trkpt>
      <trkpt lat="50.71184" lon="3.75012">
        <ele>44.36</ele>
        <time>2017-02-12T13:22:19Z</time>
      </trkpt>
      <trkpt lat="50.71166" lon="3.75023">
        <ele>45.32</ele>
        <time>2017-02-12T13:22:35Z</time>
      </trkpt>
      <trkpt lat="50.71145" lon="3.75034">
        <ele>46.76</ele>
        <time>2017-02-12T13:22:53Z</time>
      </trkpt>
      <trkpt lat="50.71121" lon="3.75048">
        <ele>47.24</ele>
        <time>2017-02-12T13:23:13Z</time>
      </trkpt>
      <trkpt lat="50.71102" lon="3.7506">
        <ele>48.2</ele>
        <time>2017-02-12T13:23:29Z</time>
      </trkpt>
      <trkpt lat="50.71093" lon="3.75068">
        <ele>48.68</ele>
        <time>2017-02-12T13:23:37Z</time>
      </trkpt>
      <trkpt lat="50.71071" lon="3.75083">
        <ele>49.16</ele>
        <time>2017-02-12T13:23:55Z</time>
      </trkpt>
      <trkpt lat="50.71052" lon="3.75095">
        <ele>49.16</ele>
        <time>2017-02-12T13:24:11Z</time>
      </trkpt>
      <trkpt lat="50.71035" lon="3.75108">
        <ele>49.65</ele>
        <time>2017-02-12T13:24:27Z</time>
      </trkpt>
      <trkpt lat="50.7103" lon="3.7511">
        <ele>49.65</ele>
        <time>2017-02-12T13:24:34Z</time>
      </trkpt>
      <trkpt lat="50.71012" lon="3.75125">
        <ele>49.65</ele>
        <time>2017-02-12T13:24:50Z</time>
      </trkpt>
      <trkpt lat="50.70999" lon="3.75137">
        <ele>50.13</ele>
        <time>2017-02-12T13:25:04Z</time>
      </trkpt>
      <trkpt lat="50.70997" lon="3.75139">
        <ele>50.13</ele>
        <time>2017-02-12T13:25:06Z</time>
      </trkpt>
      <trkpt lat="50.70976" lon="3.75142">
        <ele>51.09</ele>
        <time>2017-02-12T13:25:22Z</time>
      </trkpt>
      <trkpt lat="50.70974" lon="3.75141">
        <ele>51.09</ele>
        <time>2017-02-12T13:25:24Z</time>
      </trkpt>
      <trkpt lat="50.70963" lon="3.7514">
        <ele>51.57</ele>
        <time>2017-02-12T13:25:35Z</time>
      </trkpt>
      <trkpt lat="50.70961" lon="3.7514">
        <ele>52.05</ele>
        <time>2017-02-12T13:25:37Z</time>
      </trkpt>
      <trkpt lat="50.70948" lon="3.7514">
        <ele>52.05</ele>
        <time>2017-02-12T13:25:51Z</time>
      </trkpt>
      <trkpt lat="50.70949" lon="3.75139">
        <ele>52.05</ele>
        <time>2017-02-12T13:26:08Z</time>
      </trkpt>
      <trkpt lat="50.70946" lon="3.75139">
        <ele>52.53</ele>
        <time>2017-02-12T13:26:23Z</time>
      </trkpt>
      <trkpt lat="50.70944" lon="3.75135">
        <ele>52.05</ele>
        <time>2017-02-12T13:26:42Z</time>
      </trkpt>
      <trkpt lat="50.70932" lon="3.75136">
        <ele>52.05</ele>
        <time>2017-02-12T13:26:58Z</time>
      </trkpt>
      <trkpt lat="50.70916" lon="3.75138">
        <ele>52.53</ele>
        <time>2017-02-12T13:27:12Z</time>
      </trkpt>
      <trkpt lat="50.70906" lon="3.75138">
        <ele>53.01</ele>
        <time>2017-02-12T13:27:18Z</time>
      </trkpt>
      <trkpt lat="50.70879" lon="3.75133">
        <ele>53.01</ele>
        <time>2017-02-12T13:27:37Z</time>
      </trkpt>
      <trkpt lat="50.70858" lon="3.75125">
        <ele>53.97</ele>
        <time>2017-02-12T13:27:53Z</time>
      </trkpt>
      <trkpt lat="50.70837" lon="3.75114">
        <ele>54.45</ele>
        <time>2017-02-12T13:28:09Z</time>
      </trkpt>
      <trkpt lat="50.70819" lon="3.75108">
        <ele>54.93</ele>
        <time>2017-02-12T13:28:27Z</time>
      </trkpt>
      <trkpt lat="50.70818" lon="3.75109">
        <ele>57.82</ele>
        <time>2017-02-12T13:28:37Z</time>
      </trkpt>
      <trkpt lat="50.70799" lon="3.75102">
        <ele>55.41</ele>
        <time>2017-02-12T13:28:51Z</time>
      </trkpt>
      <trkpt lat="50.70779" lon="3.75096">
        <ele>55.41</ele>
        <time>2017-02-12T13:29:07Z</time>
      </trkpt>
      <trkpt lat="50.70773" lon="3.75094">
        <ele>56.86</ele>
        <time>2017-02-12T13:29:12Z</time>
      </trkpt>
      <trkpt lat="50.70763" lon="3.7509">
        <ele>57.34</ele>
        <time>2017-02-12T13:29:21Z</time>
      </trkpt>
      <trkpt lat="50.7076" lon="3.75092">
        <ele>57.34</ele>
        <time>2017-02-12T13:29:35Z</time>
      </trkpt>
      <trkpt lat="50.70759" lon="3.75094">
        <ele>57.34</ele>
        <time>2017-02-12T13:29:58Z</time>
      </trkpt>
      <trkpt lat="50.70761" lon="3.75092">
        <ele>57.82</ele>
        <time>2017-02-12T13:30:18Z</time>
      </trkpt>
      <trkpt lat="50.70759" lon="3.75091">
        <ele>57.82</ele>
        <time>2017-02-12T13:30:27Z</time>
      </trkpt>
      <trkpt lat="50.70758" lon="3.75097">
        <ele>57.82</ele>
        <time>2017-02-12T13:30:41Z</time>
      </trkpt>
      <trkpt lat="50.70759" lon="3.75097">
        <ele>57.82</ele>
        <time>2017-02-12T13:30:58Z</time>
      </trkpt>
      <trkpt lat="50.7076" lon="3.75106">
        <ele>58.3</ele>
        <time>2017-02-12T13:31:07Z</time>
      </trkpt>
      <trkpt lat="50.70767" lon="3.75125">
        <ele>56.86</ele>
        <time>2017-02-12T13:31:19Z</time>
      </trkpt>
      <trkpt lat="50.70769" lon="3.75128">
        <ele>55.89</ele>
        <time>2017-02-12T13:31:21Z</time>
      </trkpt>
      <trkpt lat="50.70775" lon="3.75144">
        <ele>55.89</ele>
        <time>2017-02-12T13:31:32Z</time>
      </trkpt>
      <trkpt lat="50.70784" lon="3.75168">
        <ele>54.45</ele>
        <time>2017-02-12T13:31:46Z</time>
      </trkpt>
      <trkpt lat="50.70794" lon="3.75189">
        <ele>53.97</ele>
        <time>2017-02-12T13:31:59Z</time>
      </trkpt>
      <trkpt lat="50.70798" lon="3.75196">
        <ele>53.97</ele>
        <time>2017-02-12T13:32:03Z</time>
      </trkpt>
      <trkpt lat="50.70805" lon="3.75208">
        <ele>53.49</ele>
        <time>2017-02-12T13:32:10Z</time>
      </trkpt>
      <trkpt lat="50.70817" lon="3.75242">
        <ele>52.53</ele>
        <time>2017-02-12T13:32:27Z</time>
      </trkpt>
      <trkpt lat="50.70826" lon="3.75271">
        <ele>51.09</ele>
        <time>2017-02-12T13:32:41Z</time>
      </trkpt>
      <trkpt lat="50.70835" lon="3.75302">
        <ele>51.09</ele>
        <time>2017-02-12T13:32:55Z</time>
      </trkpt>
      <trkpt lat="50.70845" lon="3.75329">
        <ele>50.13</ele>
        <time>2017-02-12T13:33:09Z</time>
      </trkpt>
      <trkpt lat="50.7085" lon="3.75357">
        <ele>49.65</ele>
        <time>2017-02-12T13:33:25Z</time>
      </trkpt>
      <trkpt lat="50.70853" lon="3.75385">
        <ele>49.65</ele>
        <time>2017-02-12T13:33:39Z</time>
      </trkpt>
      <trkpt lat="50.70854" lon="3.75407">
        <ele>49.65</ele>
        <time>2017-02-12T13:33:50Z</time>
      </trkpt>
      <trkpt lat="50.70855" lon="3.75434">
        <ele>49.16</ele>
        <time>2017-02-12T13:34:05Z</time>
      </trkpt>
      <trkpt lat="50.70855" lon="3.75439">
        <ele>49.16</ele>
        <time>2017-02-12T13:34:08Z</time>
      </trkpt>
      <trkpt lat="50.70857" lon="3.75454">
        <ele>49.16</ele>
        <time>2017-02-12T13:34:16Z</time>
      </trkpt>
      <trkpt lat="50.70858" lon="3.75478">
        <ele>48.2</ele>
        <time>2017-02-12T13:34:30Z</time>
      </trkpt>
      <trkpt lat="50.70859" lon="3.75506">
        <ele>48.2</ele>
        <time>2017-02-12T13:34:45Z</time>
      </trkpt>
      <trkpt lat="50.7086" lon="3.75533">
        <ele>47.72</ele>
        <time>2017-02-12T13:35:00Z</time>
      </trkpt>
      <trkpt lat="50.7086" lon="3.75539">
        <ele>47.72</ele>
        <time>2017-02-12T13:35:03Z</time>
      </trkpt>
      <trkpt lat="50.70866" lon="3.75573">
        <ele>47.24</ele>
        <time>2017-02-12T13:35:21Z</time>
      </trkpt>
      <trkpt lat="50.70875" lon="3.75603">
        <ele>47.24</ele>
        <time>2017-02-12T13:35:39Z</time>
      </trkpt>
      <trkpt lat="50.70885" lon="3.75624">
        <ele>46.76</ele>
        <time>2017-02-12T13:35:54Z</time>
      </trkpt>
      <trkpt lat="50.70897" lon="3.75651">
        <ele>46.28</ele>
        <time>2017-02-12T13:36:12Z</time>
      </trkpt>
      <trkpt lat="50.70912" lon="3.75679">
        <ele>45.32</ele>
        <time>2017-02-12T13:36:31Z</time>
      </trkpt>
      <trkpt lat="50.70923" lon="3.75704">
        <ele>45.32</ele>
        <time>2017-02-12T13:36:49Z</time>
      </trkpt>
      <trkpt lat="50.70936" lon="3.75731">
        <ele>44.84</ele>
        <time>2017-02-12T13:37:06Z</time>
      </trkpt>
      <trkpt lat="50.7095" lon="3.75761">
        <ele>44.36</ele>
        <time>2017-02-12T13:37:23Z</time>
      </trkpt>
      <trkpt lat="50.70964" lon="3.75789">
        <ele>43.88</ele>
        <time>2017-02-12T13:37:41Z</time>
      </trkpt>
      <trkpt lat="50.70977" lon="3.75819">
        <ele>42.92</ele>
        <time>2017-02-12T13:37:58Z</time>
      </trkpt>
      <trkpt lat="50.70988" lon="3.75844">
        <ele>41.95</ele>
        <time>2017-02-12T13:38:13Z</time>
      </trkpt>
      <trkpt lat="50.71001" lon="3.75872">
        <ele>41.47</ele>
        <time>2017-02-12T13:38:31Z</time>
      </trkpt>
      <trkpt lat="50.71012" lon="3.75896">
        <ele>40.99</ele>
        <time>2017-02-12T13:38:46Z</time>
      </trkpt>
      <trkpt lat="50.71024" lon="3.75918">
        <ele>40.03</ele>
        <time>2017-02-12T13:39:03Z</time>
      </trkpt>
      <trkpt lat="50.71035" lon="3.75938">
        <ele>39.55</ele>
        <time>2017-02-12T13:39:17Z</time>
      </trkpt>
      <trkpt lat="50.71045" lon="3.7596">
        <ele>38.59</ele>
        <time>2017-02-12T13:39:32Z</time>
      </trkpt>
      <trkpt lat="50.71053" lon="3.75974">
        <ele>37.63</ele>
        <time>2017-02-12T13:39:42Z</time>
      </trkpt>
      <trkpt lat="50.71066" lon="3.76002">
        <ele>37.15</ele>
        <time>2017-02-12T13:39:59Z</time>
      </trkpt>
      <trkpt lat="50.71077" lon="3.76018">
        <ele>35.71</ele>
        <time>2017-02-12T13:40:14Z</time>
      </trkpt>
      <trkpt lat="50.71078" lon="3.76024">
        <ele>35.23</ele>
        <time>2017-02-12T13:40:20Z</time>
      </trkpt>
      <trkpt lat="50.71073" lon="3.76037">
        <ele>35.23</ele>
        <time>2017-02-12T13:40:34Z</time>
      </trkpt>
      <trkpt lat="50.71068" lon="3.76047">
        <ele>35.23</ele>
        <time>2017-02-12T13:40:43Z</time>
      </trkpt>
      <trkpt lat="50.71059" lon="3.76071">
        <ele>35.23</ele>
        <time>2017-02-12T13:40:59Z</time>
      </trkpt>
      <trkpt lat="50.71058" lon="3.76096">
        <ele>34.26</ele>
        <time>2017-02-12T13:41:14Z</time>
      </trkpt>
      <trkpt lat="50.71062" lon="3.76124">
        <ele>33.3</ele>
        <time>2017-02-12T13:41:29Z</time>
      </trkpt>
      <trkpt lat="50.71067" lon="3.76159">
        <ele>32.82</ele>
        <time>2017-02-12T13:41:47Z</time>
      </trkpt>
      <trkpt lat="50.71069" lon="3.76188">
        <ele>32.34</ele>
        <time>2017-02-12T13:42:02Z</time>
      </trkpt>
      <trkpt lat="50.71071" lon="3.76217">
        <ele>32.34</ele>
        <time>2017-02-12T13:42:17Z</time>
      </trkpt>
      <trkpt lat="50.71073" lon="3.76251">
        <ele>31.86</ele>
        <time>2017-02-12T13:42:34Z</time>
      </trkpt>
      <trkpt lat="50.71078" lon="3.76277">
        <ele>31.38</ele>
        <time>2017-02-12T13:42:49Z</time>
      </trkpt>
      <trkpt lat="50.71086" lon="3.76296">
        <ele>31.38</ele>
        <time>2017-02-12T13:43:02Z</time>
      </trkpt>
      <trkpt lat="50.7109" lon="3.76301">
        <ele>31.38</ele>
        <time>2017-02-12T13:43:06Z</time>
      </trkpt>
      <trkpt lat="50.71099" lon="3.76316">
        <ele>30.42</ele>
        <time>2017-02-12T13:43:17Z</time>
      </trkpt>
      <trkpt lat="50.71103" lon="3.76323">
        <ele>30.42</ele>
        <time>2017-02-12T13:43:22Z</time>
      </trkpt>
      <trkpt lat="50.71111" lon="3.76339">
        <ele>30.42</ele>
        <time>2017-02-12T13:43:34Z</time>
      </trkpt>
      <trkpt lat="50.71119" lon="3.76352">
        <ele>30.42</ele>
        <time>2017-02-12T13:43:45Z</time>
      </trkpt>
      <trkpt lat="50.71127" lon="3.76366">
        <ele>30.42</ele>
        <time>2017-02-12T13:43:57Z</time>
      </trkpt>
      <trkpt lat="50.71134" lon="3.76379">
        <ele>31.86</ele>
        <time>2017-02-12T13:44:06Z</time>
      </trkpt>
      <trkpt lat="50.71134" lon="3.7638">
        <ele>31.86</ele>
        <time>2017-02-12T13:44:07Z</time>
      </trkpt>
      <trkpt lat="50.71147" lon="3.76405">
        <ele>31.86</ele>
        <time>2017-02-12T13:44:25Z</time>
      </trkpt>
      <trkpt lat="50.71156" lon="3.76423">
        <ele>31.86</ele>
        <time>2017-02-12T13:44:37Z</time>
      </trkpt>
      <trkpt lat="50.71164" lon="3.76443">
        <ele>31.86</ele>
        <time>2017-02-12T13:44:49Z</time>
      </trkpt>
      <trkpt lat="50.71171" lon="3.76459">
        <ele>31.86</ele>
        <time>2017-02-12T13:45:00Z</time>
      </trkpt>
      <trkpt lat="50.71176" lon="3.76474">
        <ele>32.34</ele>
        <time>2017-02-12T13:45:09Z</time>
      </trkpt>
      <trkpt lat="50.71182" lon="3.76505">
        <ele>32.34</ele>
        <time>2017-02-12T13:45:26Z</time>
      </trkpt>
      <trkpt lat="50.71187" lon="3.76535">
        <ele>32.82</ele>
        <time>2017-02-12T13:45:42Z</time>
      </trkpt>
      <trkpt lat="50.71191" lon="3.76565">
        <ele>33.3</ele>
        <time>2017-02-12T13:45:58Z</time>
      </trkpt>
      <trkpt lat="50.71191" lon="3.76597">
        <ele>33.78</ele>
        <time>2017-02-12T13:46:14Z</time>
      </trkpt>
      <trkpt lat="50.71188" lon="3.76628">
        <ele>34.74</ele>
        <time>2017-02-12T13:46:30Z</time>
      </trkpt>
      <trkpt lat="50.71186" lon="3.76662">
        <ele>33.78</ele>
        <time>2017-02-12T13:46:47Z</time>
      </trkpt>
      <trkpt lat="50.71182" lon="3.76696">
        <ele>33.3</ele>
        <time>2017-02-12T13:47:04Z</time>
      </trkpt>
      <trkpt lat="50.71177" lon="3.76726">
        <ele>32.82</ele>
        <time>2017-02-12T13:47:19Z</time>
      </trkpt>
      <trkpt lat="50.71174" lon="3.76753">
        <ele>32.82</ele>
        <time>2017-02-12T13:47:35Z</time>
      </trkpt>
      <trkpt lat="50.71172" lon="3.7679">
        <ele>32.82</ele>
        <time>2017-02-12T13:47:55Z</time>
      </trkpt>
      <trkpt lat="50.71168" lon="3.76822">
        <ele>32.82</ele>
        <time>2017-02-12T13:48:12Z</time>
      </trkpt>
      <trkpt lat="50.71164" lon="3.76853">
        <ele>32.34</ele>
        <time>2017-02-12T13:48:28Z</time>
      </trkpt>
      <trkpt lat="50.71161" lon="3.76888">
        <ele>32.34</ele>
        <time>2017-02-12T13:48:46Z</time>
      </trkpt>
      <trkpt lat="50.71156" lon="3.76928">
        <ele>31.38</ele>
        <time>2017-02-12T13:49:07Z</time>
      </trkpt>
      <trkpt lat="50.71152" lon="3.76961">
        <ele>30.9</ele>
        <time>2017-02-12T13:49:25Z</time>
      </trkpt>
      <trkpt lat="50.71148" lon="3.76994">
        <ele>30.42</ele>
        <time>2017-02-12T13:49:43Z</time>
      </trkpt>
      <trkpt lat="50.71149" lon="3.77012">
        <ele>29.94</ele>
        <time>2017-02-12T13:49:52Z</time>
      </trkpt>
      <trkpt lat="50.7115" lon="3.77016">
        <ele>29.94</ele>
        <time>2017-02-12T13:49:54Z</time>
      </trkpt>
      <trkpt lat="50.71167" lon="3.77033">
        <ele>28.98</ele>
        <time>2017-02-12T13:50:10Z</time>
      </trkpt>
      <trkpt lat="50.71183" lon="3.77047">
        <ele>28.5</ele>
        <time>2017-02-12T13:50:25Z</time>
      </trkpt>
      <trkpt lat="50.71202" lon="3.77066">
        <ele>27.53</ele>
        <time>2017-02-12T13:50:44Z</time>
      </trkpt>
      <trkpt lat="50.71213" lon="3.77077">
        <ele>27.53</ele>
        <time>2017-02-12T13:50:55Z</time>
      </trkpt>
      <trkpt lat="50.71217" lon="3.77084">
        <ele>27.05</ele>
        <time>2017-02-12T13:51:00Z</time>
      </trkpt>
      <trkpt lat="50.71219" lon="3.77085">
        <ele>27.05</ele>
        <time>2017-02-12T13:51:01Z</time>
      </trkpt>
      <trkpt lat="50.7122" lon="3.77086">
        <ele>26.57</ele>
        <time>2017-02-12T13:51:02Z</time>
      </trkpt>
      <trkpt lat="50.71221" lon="3.77088">
        <ele>26.57</ele>
        <time>2017-02-12T13:51:03Z</time>
      </trkpt>
      <trkpt lat="50.7122" lon="3.7709">
        <ele>26.57</ele>
        <time>2017-02-12T13:51:04Z</time>
      </trkpt>
      <trkpt lat="50.71221" lon="3.77098">
        <ele>26.57</ele>
        <time>2017-02-12T13:51:09Z</time>
      </trkpt>
      <trkpt lat="50.71221" lon="3.77099">
        <ele>26.57</ele>
        <time>2017-02-12T13:51:10Z</time>
      </trkpt>
      <trkpt lat="50.71209" lon="3.77131">
        <ele>26.09</ele>
        <time>2017-02-12T13:51:30Z</time>
      </trkpt>
      <trkpt lat="50.71203" lon="3.77144">
        <ele>25.61</ele>
        <time>2017-02-12T13:51:39Z</time>
      </trkpt>
      <trkpt lat="50.71191" lon="3.77173">
        <ele>25.13</ele>
        <time>2017-02-12T13:51:57Z</time>
      </trkpt>
      <trkpt lat="50.71177" lon="3.77207">
        <ele>24.17</ele>
        <time>2017-02-12T13:52:16Z</time>
      </trkpt>
      <trkpt lat="50.71163" lon="3.77235">
        <ele>23.21</ele>
        <time>2017-02-12T13:52:33Z</time>
      </trkpt>
      <trkpt lat="50.71154" lon="3.77265">
        <ele>23.21</ele>
        <time>2017-02-12T13:52:50Z</time>
      </trkpt>
      <trkpt lat="50.7115" lon="3.77283">
        <ele>22.73</ele>
        <time>2017-02-12T13:53:06Z</time>
      </trkpt>
      <trkpt lat="50.71149" lon="3.773">
        <ele>22.25</ele>
        <time>2017-02-12T13:53:21Z</time>
      </trkpt>
      <trkpt lat="50.71145" lon="3.77307">
        <ele>22.25</ele>
        <time>2017-02-12T13:53:39Z</time>
      </trkpt>
      <trkpt lat="50.71149" lon="3.77313">
        <ele>22.25</ele>
        <time>2017-02-12T13:53:49Z</time>
      </trkpt>
      <trkpt lat="50.7116" lon="3.7732">
        <ele>22.25</ele>
        <time>2017-02-12T13:54:02Z</time>
      </trkpt>
      <trkpt lat="50.71164" lon="3.77323">
        <ele>22.25</ele>
        <time>2017-02-12T13:54:06Z</time>
      </trkpt>
      <trkpt lat="50.71182" lon="3.77335">
        <ele>21.77</ele>
        <time>2017-02-12T13:54:20Z</time>
      </trkpt>
      <trkpt lat="50.71193" lon="3.77349">
        <ele>21.77</ele>
        <time>2017-02-12T13:54:30Z</time>
      </trkpt>
      <trkpt lat="50.71194" lon="3.77349">
        <ele>21.77</ele>
        <time>2017-02-12T13:54:31Z</time>
      </trkpt>
      <trkpt lat="50.71195" lon="3.7735">
        <ele>21.77</ele>
        <time>2017-02-12T13:54:32Z</time>
      </trkpt>
      <trkpt lat="50.71196" lon="3.77351">
        <ele>21.77</ele>
        <time>2017-02-12T13:54:33Z</time>
      </trkpt>
      <trkpt lat="50.71197" lon="3.77352">
        <ele>21.77</ele>
        <time>2017-02-12T13:54:34Z</time>
      </trkpt>
      <trkpt lat="50.71198" lon="3.77353">
        <ele>21.77</ele>
        <time>2017-02-12T13:54:35Z</time>
      </trkpt>
      <trkpt lat="50.71215" lon="3.77374">
        <ele>21.77</ele>
        <time>2017-02-12T13:54:52Z</time>
      </trkpt>
      <trkpt lat="50.7122" lon="3.77383">
        <ele>23.21</ele>
        <time>2017-02-12T13:54:58Z</time>
      </trkpt>
      <trkpt lat="50.71239" lon="3.77392">
        <ele>23.21</ele>
        <time>2017-02-12T13:55:14Z</time>
      </trkpt>
      <trkpt lat="50.71256" lon="3.77404">
        <ele>23.21</ele>
        <time>2017-02-12T13:55:29Z</time>
      </trkpt>
      <trkpt lat="50.71263" lon="3.77411">
        <ele>21.77</ele>
        <time>2017-02-12T13:55:45Z</time>
      </trkpt>
      <trkpt lat="50.71276" lon="3.77428">
        <ele>21.77</ele>
        <time>2017-02-12T13:55:58Z</time>
      </trkpt>
      <trkpt lat="50.71286" lon="3.77453">
        <ele>21.77</ele>
        <time>2017-02-12T13:56:13Z</time>
      </trkpt>
      <trkpt lat="50.71291" lon="3.77474">
        <ele>21.77</ele>
        <time>2017-02-12T13:56:25Z</time>
      </trkpt>
      <trkpt lat="50.71291" lon="3.77476">
        <ele>21.77</ele>
        <time>2017-02-12T13:56:26Z</time>
      </trkpt>
      <trkpt lat="50.71291" lon="3.77478">
        <ele>21.77</ele>
        <time>2017-02-12T13:56:27Z</time>
      </trkpt>
      <trkpt lat="50.71291" lon="3.7748">
        <ele>21.77</ele>
        <time>2017-02-12T13:56:28Z</time>
      </trkpt>
      <trkpt lat="50.71291" lon="3.77482">
        <ele>21.77</ele>
        <time>2017-02-12T13:56:29Z</time>
      </trkpt>
      <trkpt lat="50.7129" lon="3.775">
        <ele>21.77</ele>
        <time>2017-02-12T13:56:39Z</time>
      </trkpt>
      <trkpt lat="50.7129" lon="3.77502">
        <ele>21.77</ele>
        <time>2017-02-12T13:56:40Z</time>
      </trkpt>
      <trkpt lat="50.7129" lon="3.77528">
        <ele>23.21</ele>
        <time>2017-02-12T13:56:55Z</time>
      </trkpt>
      <trkpt lat="50.71279" lon="3.77548">
        <ele>23.21</ele>
        <time>2017-02-12T13:57:10Z</time>
      </trkpt>
      <trkpt lat="50.71266" lon="3.77558">
        <ele>23.21</ele>
        <time>2017-02-12T13:57:24Z</time>
      </trkpt>
      <trkpt lat="50.71248" lon="3.77574">
        <ele>24.65</ele>
        <time>2017-02-12T13:57:40Z</time>
      </trkpt>
      <trkpt lat="50.71226" lon="3.77593">
        <ele>26.09</ele>
        <time>2017-02-12T13:58:00Z</time>
      </trkpt>
      <trkpt lat="50.71205" lon="3.77611">
        <ele>28.02</ele>
        <time>2017-02-12T13:58:18Z</time>
      </trkpt>
      <trkpt lat="50.71188" lon="3.77625">
        <ele>29.46</ele>
        <time>2017-02-12T13:58:36Z</time>
      </trkpt>
      <trkpt lat="50.71187" lon="3.77626">
        <ele>29.46</ele>
        <time>2017-02-12T13:58:37Z</time>
      </trkpt>
      <trkpt lat="50.71177" lon="3.7764">
        <ele>29.94</ele>
        <time>2017-02-12T13:58:48Z</time>
      </trkpt>
      <trkpt lat="50.71177" lon="3.77642">
        <ele>30.9</ele>
        <time>2017-02-12T13:58:49Z</time>
      </trkpt>
      <trkpt lat="50.71177" lon="3.77643">
        <ele>30.9</ele>
        <time>2017-02-12T13:58:50Z</time>
      </trkpt>
      <trkpt lat="50.71179" lon="3.77681">
        <ele>32.34</ele>
        <time>2017-02-12T13:59:09Z</time>
      </trkpt>
      <trkpt lat="50.7118" lon="3.77714">
        <ele>33.78</ele>
        <time>2017-02-12T13:59:25Z</time>
      </trkpt>
      <trkpt lat="50.7118" lon="3.77743">
        <ele>34.74</ele>
        <time>2017-02-12T13:59:40Z</time>
      </trkpt>
      <trkpt lat="50.71182" lon="3.77778">
        <ele>34.74</ele>
        <time>2017-02-12T13:59:57Z</time>
      </trkpt>
      <trkpt lat="50.71184" lon="3.77816">
        <ele>33.78</ele>
        <time>2017-02-12T14:00:16Z</time>
      </trkpt>
      <trkpt lat="50.71188" lon="3.77831">
        <ele>33.3</ele>
        <time>2017-02-12T14:00:32Z</time>
      </trkpt>
      <trkpt lat="50.71186" lon="3.77836">
        <ele>32.82</ele>
        <time>2017-02-12T14:00:53Z</time>
      </trkpt>
      <trkpt lat="50.71185" lon="3.7784">
        <ele>32.82</ele>
        <time>2017-02-12T14:01:15Z</time>
      </trkpt>
      <trkpt lat="50.71187" lon="3.77846">
        <ele>32.82</ele>
        <time>2017-02-12T14:01:38Z</time>
      </trkpt>
      <trkpt lat="50.71188" lon="3.77847">
        <ele>32.82</ele>
        <time>2017-02-12T14:01:39Z</time>
      </trkpt>
      <trkpt lat="50.71199" lon="3.77862">
        <ele>32.34</ele>
        <time>2017-02-12T14:01:53Z</time>
      </trkpt>
      <trkpt lat="50.71199" lon="3.77864">
        <ele>32.34</ele>
        <time>2017-02-12T14:01:54Z</time>
      </trkpt>
      <trkpt lat="50.71199" lon="3.77866">
        <ele>32.34</ele>
        <time>2017-02-12T14:01:55Z</time>
      </trkpt>
      <trkpt lat="50.71199" lon="3.77868">
        <ele>32.34</ele>
        <time>2017-02-12T14:01:56Z</time>
      </trkpt>
      <trkpt lat="50.71198" lon="3.77871">
        <ele>31.86</ele>
        <time>2017-02-12T14:02:00Z</time>
      </trkpt>
      <trkpt lat="50.71197" lon="3.77872">
        <ele>31.86</ele>
        <time>2017-02-12T14:02:01Z</time>
      </trkpt>
      <trkpt lat="50.71197" lon="3.77874">
        <ele>31.86</ele>
        <time>2017-02-12T14:02:02Z</time>
      </trkpt>
      <trkpt lat="50.71196" lon="3.77876">
        <ele>31.86</ele>
        <time>2017-02-12T14:02:03Z</time>
      </trkpt>
      <trkpt lat="50.71196" lon="3.77877">
        <ele>31.86</ele>
        <time>2017-02-12T14:02:04Z</time>
      </trkpt>
      <trkpt lat="50.71185" lon="3.77897">
        <ele>30.9</ele>
        <time>2017-02-12T14:02:18Z</time>
      </trkpt>
      <trkpt lat="50.71168" lon="3.77925">
        <ele>30.9</ele>
        <time>2017-02-12T14:02:37Z</time>
      </trkpt>
      <trkpt lat="50.71157" lon="3.77946">
        <ele>30.42</ele>
        <time>2017-02-12T14:02:52Z</time>
      </trkpt>
      <trkpt lat="50.71152" lon="3.77973">
        <ele>30.42</ele>
        <time>2017-02-12T14:03:07Z</time>
      </trkpt>
      <trkpt lat="50.71153" lon="3.77994">
        <ele>30.42</ele>
        <time>2017-02-12T14:03:22Z</time>
      </trkpt>
      <trkpt lat="50.71161" lon="3.78002">
        <ele>30.42</ele>
        <time>2017-02-12T14:03:31Z</time>
      </trkpt>
      <trkpt lat="50.71175" lon="3.78025">
        <ele>30.42</ele>
        <time>2017-02-12T14:03:49Z</time>
      </trkpt>
      <trkpt lat="50.71184" lon="3.78053">
        <ele>30.42</ele>
        <time>2017-02-12T14:04:05Z</time>
      </trkpt>
      <trkpt lat="50.71188" lon="3.78083">
        <ele>30.42</ele>
        <time>2017-02-12T14:04:20Z</time>
      </trkpt>
      <trkpt lat="50.71192" lon="3.78106">
        <ele>31.86</ele>
        <time>2017-02-12T14:04:37Z</time>
      </trkpt>
      <trkpt lat="50.71195" lon="3.78129">
        <ele>31.86</ele>
        <time>2017-02-12T14:04:50Z</time>
      </trkpt>
      <trkpt lat="50.712" lon="3.7816">
        <ele>31.86</ele>
        <time>2017-02-12T14:05:08Z</time>
      </trkpt>
      <trkpt lat="50.71205" lon="3.78188">
        <ele>32.82</ele>
        <time>2017-02-12T14:05:24Z</time>
      </trkpt>
      <trkpt lat="50.71208" lon="3.78211">
        <ele>32.82</ele>
        <time>2017-02-12T14:05:38Z</time>
      </trkpt>
      <trkpt lat="50.71211" lon="3.78235">
        <ele>33.78</ele>
        <time>2017-02-12T14:05:51Z</time>
      </trkpt>
      <trkpt lat="50.71217" lon="3.7827">
        <ele>34.74</ele>
        <time>2017-02-12T14:06:11Z</time>
      </trkpt>
      <trkpt lat="50.71223" lon="3.78301">
        <ele>36.67</ele>
        <time>2017-02-12T14:06:28Z</time>
      </trkpt>
      <trkpt lat="50.71228" lon="3.78333">
        <ele>37.15</ele>
        <time>2017-02-12T14:06:47Z</time>
      </trkpt>
      <trkpt lat="50.71236" lon="3.7837">
        <ele>37.63</ele>
        <time>2017-02-12T14:07:07Z</time>
      </trkpt>
      <trkpt lat="50.71241" lon="3.78396">
        <ele>38.59</ele>
        <time>2017-02-12T14:07:24Z</time>
      </trkpt>
      <trkpt lat="50.71248" lon="3.78399">
        <ele>38.59</ele>
        <time>2017-02-12T14:07:33Z</time>
      </trkpt>
      <trkpt lat="50.71265" lon="3.78401">
        <ele>38.59</ele>
        <time>2017-02-12T14:07:49Z</time>
      </trkpt>
      <trkpt lat="50.71285" lon="3.78403">
        <ele>38.59</ele>
        <time>2017-02-12T14:08:07Z</time>
      </trkpt>
      <trkpt lat="50.71296" lon="3.78404">
        <ele>37.15</ele>
        <time>2017-02-12T14:08:17Z</time>
      </trkpt>
      <trkpt lat="50.71316" lon="3.78407">
        <ele>36.19</ele>
        <time>2017-02-12T14:08:34Z</time>
      </trkpt>
      <trkpt lat="50.71334" lon="3.78409">
        <ele>35.71</ele>
        <time>2017-02-12T14:08:49Z</time>
      </trkpt>
      <trkpt lat="50.71356" lon="3.78409">
        <ele>34.26</ele>
        <time>2017-02-12T14:09:07Z</time>
      </trkpt>
      <trkpt lat="50.71379" lon="3.78411">
        <ele>33.3</ele>
        <time>2017-02-12T14:09:26Z</time>
      </trkpt>
      <trkpt lat="50.71401" lon="3.78411">
        <ele>32.34</ele>
        <time>2017-02-12T14:09:44Z</time>
      </trkpt>
      <trkpt lat="50.71421" lon="3.78409">
        <ele>31.38</ele>
        <time>2017-02-12T14:10:00Z</time>
      </trkpt>
      <trkpt lat="50.71442" lon="3.78407">
        <ele>30.9</ele>
        <time>2017-02-12T14:10:17Z</time>
      </trkpt>
      <trkpt lat="50.71462" lon="3.78406">
        <ele>29.94</ele>
        <time>2017-02-12T14:10:34Z</time>
      </trkpt>
      <trkpt lat="50.71484" lon="3.78412">
        <ele>30.42</ele>
        <time>2017-02-12T14:10:52Z</time>
      </trkpt>
      <trkpt lat="50.715" lon="3.78427">
        <ele>30.42</ele>
        <time>2017-02-12T14:11:07Z</time>
      </trkpt>
      <trkpt lat="50.7151" lon="3.78442">
        <ele>30.42</ele>
        <time>2017-02-12T14:11:18Z</time>
      </trkpt>
      <trkpt lat="50.71521" lon="3.78462">
        <ele>30.42</ele>
        <time>2017-02-12T14:11:32Z</time>
      </trkpt>
      <trkpt lat="50.71522" lon="3.78464">
        <ele>30.42</ele>
        <time>2017-02-12T14:11:33Z</time>
      </trkpt>
      <trkpt lat="50.71522" lon="3.78466">
        <ele>30.42</ele>
        <time>2017-02-12T14:11:34Z</time>
      </trkpt>
      <trkpt lat="50.71536" lon="3.78494">
        <ele>31.38</ele>
        <time>2017-02-12T14:11:51Z</time>
      </trkpt>
      <trkpt lat="50.71546" lon="3.78517">
        <ele>31.38</ele>
        <time>2017-02-12T14:12:07Z</time>
      </trkpt>
      <trkpt lat="50.71562" lon="3.78545">
        <ele>31.38</ele>
        <time>2017-02-12T14:12:25Z</time>
      </trkpt>
      <trkpt lat="50.71574" lon="3.78574">
        <ele>29.94</ele>
        <time>2017-02-12T14:12:42Z</time>
      </trkpt>
      <trkpt lat="50.71586" lon="3.786">
        <ele>29.94</ele>
        <time>2017-02-12T14:12:58Z</time>
      </trkpt>
      <trkpt lat="50.71594" lon="3.78618">
        <ele>29.94</ele>
        <time>2017-02-12T14:13:10Z</time>
      </trkpt>
      <trkpt lat="50.71595" lon="3.7862">
        <ele>29.94</ele>
        <time>2017-02-12T14:13:11Z</time>
      </trkpt>
      <trkpt lat="50.71606" lon="3.78632">
        <ele>29.46</ele>
        <time>2017-02-12T14:13:26Z</time>
      </trkpt>
      <trkpt lat="50.71629" lon="3.78638">
        <ele>28.98</ele>
        <time>2017-02-12T14:13:45Z</time>
      </trkpt>
      <trkpt lat="50.71654" lon="3.78646">
        <ele>28.02</ele>
        <time>2017-02-12T14:14:05Z</time>
      </trkpt>
      <trkpt lat="50.71671" lon="3.78654">
        <ele>27.05</ele>
        <time>2017-02-12T14:14:20Z</time>
      </trkpt>
      <trkpt lat="50.71692" lon="3.78661">
        <ele>27.05</ele>
        <time>2017-02-12T14:14:38Z</time>
      </trkpt>
      <trkpt lat="50.71701" lon="3.78665">
        <ele>26.57</ele>
        <time>2017-02-12T14:14:52Z</time>
      </trkpt>
      <trkpt lat="50.71705" lon="3.78667">
        <ele>26.57</ele>
        <time>2017-02-12T14:15:09Z</time>
      </trkpt>
      <trkpt lat="50.71707" lon="3.7867">
        <ele>26.57</ele>
        <time>2017-02-12T14:15:34Z</time>
      </trkpt>
      <trkpt lat="50.71708" lon="3.78672">
        <ele>26.57</ele>
        <time>2017-02-12T14:15:52Z</time>
      </trkpt>
      <trkpt lat="50.71708" lon="3.78671">
        <ele>26.57</ele>
        <time>2017-02-12T14:16:15Z</time>
      </trkpt>
      <trkpt lat="50.71706" lon="3.78675">
        <ele>26.57</ele>
        <time>2017-02-12T14:16:19Z</time>
      </trkpt>
      <trkpt lat="50.71705" lon="3.78677">
        <ele>26.57</ele>
        <time>2017-02-12T14:16:20Z</time>
      </trkpt>
      <trkpt lat="50.71689" lon="3.78694">
        <ele>26.57</ele>
        <time>2017-02-12T14:16:37Z</time>
      </trkpt>
      <trkpt lat="50.71682" lon="3.78706">
        <ele>28.02</ele>
        <time>2017-02-12T14:16:56Z</time>
      </trkpt>
      <trkpt lat="50.71665" lon="3.78729">
        <ele>28.5</ele>
        <time>2017-02-12T14:17:14Z</time>
      </trkpt>
      <trkpt lat="50.71648" lon="3.78748">
        <ele>29.46</ele>
        <time>2017-02-12T14:17:31Z</time>
      </trkpt>
      <trkpt lat="50.71632" lon="3.7877">
        <ele>29.46</ele>
        <time>2017-02-12T14:17:47Z</time>
      </trkpt>
      <trkpt lat="50.71615" lon="3.78792">
        <ele>29.46</ele>
        <time>2017-02-12T14:18:04Z</time>
      </trkpt>
      <trkpt lat="50.71595" lon="3.78816">
        <ele>29.94</ele>
        <time>2017-02-12T14:18:23Z</time>
      </trkpt>
      <trkpt lat="50.71576" lon="3.7884">
        <ele>30.42</ele>
        <time>2017-02-12T14:18:42Z</time>
      </trkpt>
      <trkpt lat="50.71559" lon="3.78863">
        <ele>30.9</ele>
        <time>2017-02-12T14:19:01Z</time>
      </trkpt>
      <trkpt lat="50.71545" lon="3.78881">
        <ele>31.38</ele>
        <time>2017-02-12T14:19:17Z</time>
      </trkpt>
      <trkpt lat="50.71528" lon="3.78903">
        <ele>31.38</ele>
        <time>2017-02-12T14:19:35Z</time>
      </trkpt>
      <trkpt lat="50.71514" lon="3.78921">
        <ele>31.38</ele>
        <time>2017-02-12T14:19:51Z</time>
      </trkpt>
      <trkpt lat="50.71498" lon="3.78943">
        <ele>31.86</ele>
        <time>2017-02-12T14:20:08Z</time>
      </trkpt>
      <trkpt lat="50.71482" lon="3.78961">
        <ele>32.34</ele>
        <time>2017-02-12T14:20:25Z</time>
      </trkpt>
      <trkpt lat="50.71466" lon="3.78984">
        <ele>32.82</ele>
        <time>2017-02-12T14:20:43Z</time>
      </trkpt>
      <trkpt lat="50.71455" lon="3.79006">
        <ele>33.3</ele>
        <time>2017-02-12T14:20:57Z</time>
      </trkpt>
      <trkpt lat="50.7144" lon="3.79031">
        <ele>33.3</ele>
        <time>2017-02-12T14:21:15Z</time>
      </trkpt>
      <trkpt lat="50.71426" lon="3.79058">
        <ele>33.78</ele>
        <time>2017-02-12T14:21:32Z</time>
      </trkpt>
      <trkpt lat="50.71413" lon="3.79082">
        <ele>33.78</ele>
        <time>2017-02-12T14:21:49Z</time>
      </trkpt>
      <trkpt lat="50.714" lon="3.79106">
        <ele>33.78</ele>
        <time>2017-02-12T14:22:06Z</time>
      </trkpt>
      <trkpt lat="50.71387" lon="3.79131">
        <ele>31.86</ele>
        <time>2017-02-12T14:22:23Z</time>
      </trkpt>
      <trkpt lat="50.71374" lon="3.79156">
        <ele>31.38</ele>
        <time>2017-02-12T14:22:39Z</time>
      </trkpt>
      <trkpt lat="50.71365" lon="3.79185">
        <ele>31.38</ele>
        <time>2017-02-12T14:22:54Z</time>
      </trkpt>
      <trkpt lat="50.71361" lon="3.79204">
        <ele>31.38</ele>
        <time>2017-02-12T14:23:05Z</time>
      </trkpt>
      <trkpt lat="50.71355" lon="3.79234">
        <ele>30.9</ele>
        <time>2017-02-12T14:23:21Z</time>
      </trkpt>
      <trkpt lat="50.71348" lon="3.79264">
        <ele>30.9</ele>
        <time>2017-02-12T14:23:37Z</time>
      </trkpt>
      <trkpt lat="50.71341" lon="3.79296">
        <ele>30.9</ele>
        <time>2017-02-12T14:23:54Z</time>
      </trkpt>
      <trkpt lat="50.71336" lon="3.79324">
        <ele>30.9</ele>
        <time>2017-02-12T14:24:09Z</time>
      </trkpt>
      <trkpt lat="50.71334" lon="3.79333">
        <ele>31.86</ele>
        <time>2017-02-12T14:24:14Z</time>
      </trkpt>
      <trkpt lat="50.71329" lon="3.79353">
        <ele>32.82</ele>
        <time>2017-02-12T14:24:24Z</time>
      </trkpt>
      <trkpt lat="50.71328" lon="3.79358">
        <ele>32.82</ele>
        <time>2017-02-12T14:24:27Z</time>
      </trkpt>
      <trkpt lat="50.71327" lon="3.7936">
        <ele>32.82</ele>
        <time>2017-02-12T14:24:28Z</time>
      </trkpt>
      <trkpt lat="50.7132" lon="3.79385">
        <ele>33.78</ele>
        <time>2017-02-12T14:24:41Z</time>
      </trkpt>
      <trkpt lat="50.71314" lon="3.79418">
        <ele>34.74</ele>
        <time>2017-02-12T14:24:57Z</time>
      </trkpt>
      <trkpt lat="50.71309" lon="3.79448">
        <ele>36.19</ele>
        <time>2017-02-12T14:25:13Z</time>
      </trkpt>
      <trkpt lat="50.71309" lon="3.7945">
        <ele>36.19</ele>
        <time>2017-02-12T14:25:14Z</time>
      </trkpt>
      <trkpt lat="50.71309" lon="3.79472">
        <ele>37.15</ele>
        <time>2017-02-12T14:25:28Z</time>
      </trkpt>
      <trkpt lat="50.71314" lon="3.79492">
        <ele>38.11</ele>
        <time>2017-02-12T14:25:43Z</time>
      </trkpt>
      <trkpt lat="50.71313" lon="3.79511">
        <ele>39.55</ele>
        <time>2017-02-12T14:25:56Z</time>
      </trkpt>
      <trkpt lat="50.71308" lon="3.79538">
        <ele>40.03</ele>
        <time>2017-02-12T14:26:09Z</time>
      </trkpt>
      <trkpt lat="50.71308" lon="3.79554">
        <ele>40.99</ele>
        <time>2017-02-12T14:26:17Z</time>
      </trkpt>
      <trkpt lat="50.71308" lon="3.79556">
        <ele>40.51</ele>
        <time>2017-02-12T14:26:18Z</time>
      </trkpt>
      <trkpt lat="50.71308" lon="3.79558">
        <ele>40.51</ele>
        <time>2017-02-12T14:26:19Z</time>
      </trkpt>
      <trkpt lat="50.71307" lon="3.7956">
        <ele>40.51</ele>
        <time>2017-02-12T14:26:20Z</time>
      </trkpt>
      <trkpt lat="50.71303" lon="3.79603">
        <ele>41.95</ele>
        <time>2017-02-12T14:26:34Z</time>
      </trkpt>
      <trkpt lat="50.713" lon="3.79645">
        <ele>43.4</ele>
        <time>2017-02-12T14:26:50Z</time>
      </trkpt>
      <trkpt lat="50.71297" lon="3.79682">
        <ele>43.88</ele>
        <time>2017-02-12T14:27:07Z</time>
      </trkpt>
      <trkpt lat="50.71295" lon="3.79695">
        <ele>44.36</ele>
        <time>2017-02-12T14:27:24Z</time>
      </trkpt>
      <trkpt lat="50.71293" lon="3.79733">
        <ele>45.32</ele>
        <time>2017-02-12T14:27:42Z</time>
      </trkpt>
      <trkpt lat="50.7129" lon="3.79781">
        <ele>43.88</ele>
        <time>2017-02-12T14:28:05Z</time>
      </trkpt>
      <trkpt lat="50.71283" lon="3.79825">
        <ele>43.88</ele>
        <time>2017-02-12T14:28:25Z</time>
      </trkpt>
      <trkpt lat="50.71277" lon="3.79849">
        <ele>43.4</ele>
        <time>2017-02-12T14:28:39Z</time>
      </trkpt>
      <trkpt lat="50.71272" lon="3.79874">
        <ele>42.92</ele>
        <time>2017-02-12T14:28:53Z</time>
      </trkpt>
      <trkpt lat="50.71269" lon="3.79883">
        <ele>42.92</ele>
        <time>2017-02-12T14:29:05Z</time>
      </trkpt>
      <trkpt lat="50.71264" lon="3.79897">
        <ele>42.92</ele>
        <time>2017-02-12T14:29:19Z</time>
      </trkpt>
      <trkpt lat="50.71252" lon="3.79921">
        <ele>43.4</ele>
        <time>2017-02-12T14:29:33Z</time>
      </trkpt>
      <trkpt lat="50.71249" lon="3.79928">
        <ele>41.95</ele>
        <time>2017-02-12T14:29:37Z</time>
      </trkpt>
      <trkpt lat="50.71235" lon="3.79958">
        <ele>41.95</ele>
        <time>2017-02-12T14:29:55Z</time>
      </trkpt>
      <trkpt lat="50.71222" lon="3.79986">
        <ele>41.95</ele>
        <time>2017-02-12T14:30:11Z</time>
      </trkpt>
      <trkpt lat="50.71213" lon="3.80005">
        <ele>41.47</ele>
        <time>2017-02-12T14:30:28Z</time>
      </trkpt>
      <trkpt lat="50.71211" lon="3.80004">
        <ele>41.47</ele>
        <time>2017-02-12T14:30:49Z</time>
      </trkpt>
      <trkpt lat="50.7121" lon="3.80005">
        <ele>41.47</ele>
        <time>2017-02-12T14:31:16Z</time>
      </trkpt>
      <trkpt lat="50.71207" lon="3.80007">
        <ele>40.99</ele>
        <time>2017-02-12T14:31:36Z</time>
      </trkpt>
      <trkpt lat="50.71206" lon="3.80009">
        <ele>40.99</ele>
        <time>2017-02-12T14:31:52Z</time>
      </trkpt>
      <trkpt lat="50.71205" lon="3.80013">
        <ele>40.99</ele>
        <time>2017-02-12T14:32:15Z</time>
      </trkpt>
      <trkpt lat="50.71201" lon="3.80027">
        <ele>40.99</ele>
        <time>2017-02-12T14:32:26Z</time>
      </trkpt>
      <trkpt lat="50.71201" lon="3.80029">
        <ele>41.47</ele>
        <time>2017-02-12T14:32:27Z</time>
      </trkpt>
      <trkpt lat="50.71188" lon="3.80055">
        <ele>41.47</ele>
        <time>2017-02-12T14:32:45Z</time>
      </trkpt>
      <trkpt lat="50.71176" lon="3.80082">
        <ele>41.47</ele>
        <time>2017-02-12T14:33:03Z</time>
      </trkpt>
      <trkpt lat="50.71163" lon="3.80109">
        <ele>40.99</ele>
        <time>2017-02-12T14:33:21Z</time>
      </trkpt>
      <trkpt lat="50.71152" lon="3.80131">
        <ele>40.51</ele>
        <time>2017-02-12T14:33:37Z</time>
      </trkpt>
      <trkpt lat="50.71147" lon="3.80143">
        <ele>40.51</ele>
        <time>2017-02-12T14:33:45Z</time>
      </trkpt>
      <trkpt lat="50.71146" lon="3.80145">
        <ele>40.51</ele>
        <time>2017-02-12T14:33:46Z</time>
      </trkpt>
      <trkpt lat="50.71133" lon="3.80167">
        <ele>40.51</ele>
        <time>2017-02-12T14:34:02Z</time>
      </trkpt>
      <trkpt lat="50.71124" lon="3.80177">
        <ele>40.51</ele>
        <time>2017-02-12T14:34:12Z</time>
      </trkpt>
      <trkpt lat="50.71122" lon="3.80178">
        <ele>40.51</ele>
        <time>2017-02-12T14:34:13Z</time>
      </trkpt>
      <trkpt lat="50.71121" lon="3.80179">
        <ele>40.51</ele>
        <time>2017-02-12T14:34:14Z</time>
      </trkpt>
      <trkpt lat="50.71104" lon="3.80193">
        <ele>40.51</ele>
        <time>2017-02-12T14:34:31Z</time>
      </trkpt>
      <trkpt lat="50.71088" lon="3.80204">
        <ele>41.47</ele>
        <time>2017-02-12T14:34:46Z</time>
      </trkpt>
      <trkpt lat="50.71065" lon="3.80219">
        <ele>42.44</ele>
        <time>2017-02-12T14:35:07Z</time>
      </trkpt>
      <trkpt lat="50.71043" lon="3.80234">
        <ele>43.4</ele>
        <time>2017-02-12T14:35:26Z</time>
      </trkpt>
      <trkpt lat="50.71023" lon="3.80255">
        <ele>43.88</ele>
        <time>2017-02-12T14:35:45Z</time>
      </trkpt>
      <trkpt lat="50.71004" lon="3.8028">
        <ele>45.32</ele>
        <time>2017-02-12T14:36:04Z</time>
      </trkpt>
      <trkpt lat="50.70983" lon="3.80306">
        <ele>45.8</ele>
        <time>2017-02-12T14:36:23Z</time>
      </trkpt>
      <trkpt lat="50.70968" lon="3.80331">
        <ele>46.28</ele>
        <time>2017-02-12T14:36:40Z</time>
      </trkpt>
      <trkpt lat="50.70955" lon="3.80356">
        <ele>47.24</ele>
        <time>2017-02-12T14:36:57Z</time>
      </trkpt>
      <trkpt lat="50.70943" lon="3.80393">
        <ele>49.16</ele>
        <time>2017-02-12T14:37:17Z</time>
      </trkpt>
      <trkpt lat="50.70934" lon="3.80421">
        <ele>50.13</ele>
        <time>2017-02-12T14:37:33Z</time>
      </trkpt>
      <trkpt lat="50.70924" lon="3.80455">
        <ele>50.13</ele>
        <time>2017-02-12T14:37:52Z</time>
      </trkpt>
      <trkpt lat="50.70918" lon="3.80477">
        <ele>51.09</ele>
        <time>2017-02-12T14:38:06Z</time>
      </trkpt>
      <trkpt lat="50.7091" lon="3.80503">
        <ele>52.05</ele>
        <time>2017-02-12T14:38:21Z</time>
      </trkpt>
      <trkpt lat="50.70898" lon="3.80532">
        <ele>52.53</ele>
        <time>2017-02-12T14:38:39Z</time>
      </trkpt>
      <trkpt lat="50.70884" lon="3.80559">
        <ele>53.97</ele>
        <time>2017-02-12T14:38:57Z</time>
      </trkpt>
      <trkpt lat="50.70871" lon="3.80586">
        <ele>54.45</ele>
        <time>2017-02-12T14:39:16Z</time>
      </trkpt>
      <trkpt lat="50.70856" lon="3.80612">
        <ele>54.93</ele>
        <time>2017-02-12T14:39:33Z</time>
      </trkpt>
      <trkpt lat="50.70842" lon="3.80637">
        <ele>56.37</ele>
        <time>2017-02-12T14:39:49Z</time>
      </trkpt>
      <trkpt lat="50.70825" lon="3.80668">
        <ele>56.86</ele>
        <time>2017-02-12T14:40:09Z</time>
      </trkpt>
      <trkpt lat="50.70813" lon="3.8069">
        <ele>57.34</ele>
        <time>2017-02-12T14:40:23Z</time>
      </trkpt>
      <trkpt lat="50.70812" lon="3.80691">
        <ele>57.34</ele>
        <time>2017-02-12T14:40:24Z</time>
      </trkpt>
      <trkpt lat="50.70802" lon="3.80704">
        <ele>57.82</ele>
        <time>2017-02-12T14:40:37Z</time>
      </trkpt>
      <trkpt lat="50.7079" lon="3.80727">
        <ele>57.82</ele>
        <time>2017-02-12T14:40:52Z</time>
      </trkpt>
      <trkpt lat="50.70783" lon="3.80735">
        <ele>57.82</ele>
        <time>2017-02-12T14:41:04Z</time>
      </trkpt>
      <trkpt lat="50.70782" lon="3.80736">
        <ele>57.82</ele>
        <time>2017-02-12T14:41:05Z</time>
      </trkpt>
      <trkpt lat="50.7078" lon="3.80744">
        <ele>57.82</ele>
        <time>2017-02-12T14:41:16Z</time>
      </trkpt>
      <trkpt lat="50.70775" lon="3.80752">
        <ele>57.82</ele>
        <time>2017-02-12T14:41:33Z</time>
      </trkpt>
      <trkpt lat="50.70776" lon="3.80761">
        <ele>57.82</ele>
        <time>2017-02-12T14:41:47Z</time>
      </trkpt>
      <trkpt lat="50.70776" lon="3.80762">
        <ele>52.05</ele>
        <time>2017-02-12T14:41:50Z</time>
      </trkpt>
      <trkpt lat="50.70776" lon="3.80762">
        <ele>59.74</ele>
        <time>2017-02-12T14:41:51Z</time>
      </trkpt>
      <trkpt lat="50.70776" lon="3.80762">
        <ele>56.86</ele>
        <time>2017-02-12T14:41:52Z</time>
      </trkpt>
      <trkpt lat="50.70776" lon="3.80762">
        <ele>57.82</ele>
        <time>2017-02-12T14:42:17Z</time>
      </trkpt>
      <trkpt lat="50.70774" lon="3.80776">
        <ele>57.82</ele>
        <time>2017-02-12T14:42:34Z</time>
      </trkpt>
      <trkpt lat="50.70776" lon="3.80785">
        <ele>57.82</ele>
        <time>2017-02-12T14:42:46Z</time>
      </trkpt>
      <trkpt lat="50.70775" lon="3.80795">
        <ele>56.86</ele>
        <time>2017-02-12T14:43:02Z</time>
      </trkpt>
      <trkpt lat="50.70775" lon="3.80826">
        <ele>56.37</ele>
        <time>2017-02-12T14:43:20Z</time>
      </trkpt>
      <trkpt lat="50.70775" lon="3.80853">
        <ele>56.37</ele>
        <time>2017-02-12T14:43:34Z</time>
      </trkpt>
      <trkpt lat="50.70777" lon="3.80888">
        <ele>55.41</ele>
        <time>2017-02-12T14:43:52Z</time>
      </trkpt>
      <trkpt lat="50.70777" lon="3.80899">
        <ele>54.45</ele>
        <time>2017-02-12T14:43:58Z</time>
      </trkpt>
      <trkpt lat="50.70778" lon="3.80901">
        <ele>54.45</ele>
        <time>2017-02-12T14:43:59Z</time>
      </trkpt>
      <trkpt lat="50.70777" lon="3.80918">
        <ele>54.45</ele>
        <time>2017-02-12T14:44:08Z</time>
      </trkpt>
      <trkpt lat="50.70777" lon="3.8092">
        <ele>54.45</ele>
        <time>2017-02-12T14:44:09Z</time>
      </trkpt>
      <trkpt lat="50.70775" lon="3.8095">
        <ele>53.97</ele>
        <time>2017-02-12T14:44:27Z</time>
      </trkpt>
      <trkpt lat="50.70775" lon="3.80952">
        <ele>53.97</ele>
        <time>2017-02-12T14:44:28Z</time>
      </trkpt>
      <trkpt lat="50.70774" lon="3.80953">
        <ele>53.97</ele>
        <time>2017-02-12T14:44:29Z</time>
      </trkpt>
      <trkpt lat="50.70773" lon="3.80955">
        <ele>53.97</ele>
        <time>2017-02-12T14:44:30Z</time>
      </trkpt>
      <trkpt lat="50.70773" lon="3.80956">
        <ele>53.97</ele>
        <time>2017-02-12T14:44:31Z</time>
      </trkpt>
      <trkpt lat="50.70772" lon="3.80958">
        <ele>53.97</ele>
        <time>2017-02-12T14:44:32Z</time>
      </trkpt>
      <trkpt lat="50.70769" lon="3.80967">
        <ele>53.49</ele>
        <time>2017-02-12T14:44:38Z</time>
      </trkpt>
      <trkpt lat="50.70765" lon="3.80977">
        <ele>54.93</ele>
        <time>2017-02-12T14:44:45Z</time>
      </trkpt>
      <trkpt lat="50.70753" lon="3.81005">
        <ele>55.89</ele>
        <time>2017-02-12T14:45:03Z</time>
      </trkpt>
      <trkpt lat="50.70744" lon="3.81028">
        <ele>56.37</ele>
        <time>2017-02-12T14:45:19Z</time>
      </trkpt>
      <trkpt lat="50.70734" lon="3.81052">
        <ele>56.37</ele>
        <time>2017-02-12T14:45:36Z</time>
      </trkpt>
      <trkpt lat="50.70722" lon="3.81081">
        <ele>54.93</ele>
        <time>2017-02-12T14:45:53Z</time>
      </trkpt>
      <trkpt lat="50.70712" lon="3.81106">
        <ele>54.93</ele>
        <time>2017-02-12T14:46:09Z</time>
      </trkpt>
      <trkpt lat="50.70702" lon="3.81129">
        <ele>54.93</ele>
        <time>2017-02-12T14:46:24Z</time>
      </trkpt>
      <trkpt lat="50.7069" lon="3.81154">
        <ele>53.97</ele>
        <time>2017-02-12T14:46:40Z</time>
      </trkpt>
      <trkpt lat="50.7068" lon="3.8118">
        <ele>53.97</ele>
        <time>2017-02-12T14:46:59Z</time>
      </trkpt>
      <trkpt lat="50.70676" lon="3.812">
        <ele>53.97</ele>
        <time>2017-02-12T14:47:14Z</time>
      </trkpt>
      <trkpt lat="50.70676" lon="3.81203">
        <ele>53.97</ele>
        <time>2017-02-12T14:47:17Z</time>
      </trkpt>
      <trkpt lat="50.70676" lon="3.81207">
        <ele>53.97</ele>
        <time>2017-02-12T14:47:31Z</time>
      </trkpt>
      <trkpt lat="50.70676" lon="3.81208">
        <ele>53.97</ele>
        <time>2017-02-12T14:47:49Z</time>
      </trkpt>
      <trkpt lat="50.70679" lon="3.81206">
        <ele>53.97</ele>
        <time>2017-02-12T14:48:03Z</time>
      </trkpt>
      <trkpt lat="50.7068" lon="3.81205">
        <ele>53.97</ele>
        <time>2017-02-12T14:48:04Z</time>
      </trkpt>
      <trkpt lat="50.70681" lon="3.81204">
        <ele>53.97</ele>
        <time>2017-02-12T14:48:05Z</time>
      </trkpt>
      <trkpt lat="50.70682" lon="3.81202">
        <ele>53.97</ele>
        <time>2017-02-12T14:48:06Z</time>
      </trkpt>
      <trkpt lat="50.70683" lon="3.81201">
        <ele>53.97</ele>
        <time>2017-02-12T14:48:07Z</time>
      </trkpt>
      <trkpt lat="50.70684" lon="3.812">
        <ele>53.97</ele>
        <time>2017-02-12T14:48:08Z</time>
      </trkpt>
      <trkpt lat="50.70686" lon="3.812">
        <ele>54.93</ele>
        <time>2017-02-12T14:48:11Z</time>
      </trkpt>
      <trkpt lat="50.70688" lon="3.812">
        <ele>54.93</ele>
        <time>2017-02-12T14:48:12Z</time>
      </trkpt>
      <trkpt lat="50.70703" lon="3.81194">
        <ele>54.93</ele>
        <time>2017-02-12T14:48:25Z</time>
      </trkpt>
      <trkpt lat="50.70711" lon="3.81191">
        <ele>53.97</ele>
        <time>2017-02-12T14:48:31Z</time>
      </trkpt>
      <trkpt lat="50.70716" lon="3.81189">
        <ele>53.49</ele>
        <time>2017-02-12T14:48:35Z</time>
      </trkpt>
      <trkpt lat="50.70717" lon="3.81188">
        <ele>53.49</ele>
        <time>2017-02-12T14:48:36Z</time>
      </trkpt>
      <trkpt lat="50.7072" lon="3.81185">
        <ele>54.45</ele>
        <time>2017-02-12T14:48:39Z</time>
      </trkpt>
      <trkpt lat="50.70738" lon="3.81175">
        <ele>55.41</ele>
        <time>2017-02-12T14:48:56Z</time>
      </trkpt>
      <trkpt lat="50.7074" lon="3.81172">
        <ele>55.41</ele>
        <time>2017-02-12T14:48:58Z</time>
      </trkpt>
      <trkpt lat="50.70758" lon="3.81168">
        <ele>53.97</ele>
        <time>2017-02-12T14:49:14Z</time>
      </trkpt>
      <trkpt lat="50.70764" lon="3.81159">
        <ele>53.97</ele>
        <time>2017-02-12T14:49:21Z</time>
      </trkpt>
      <trkpt lat="50.7077" lon="3.81132">
        <ele>53.97</ele>
        <time>2017-02-12T14:49:36Z</time>
      </trkpt>
      <trkpt lat="50.70776" lon="3.81119">
        <ele>53.97</ele>
        <time>2017-02-12T14:49:44Z</time>
      </trkpt>
      <trkpt lat="50.70777" lon="3.81099">
        <ele>53.49</ele>
        <time>2017-02-12T14:49:58Z</time>
      </trkpt>
      <trkpt lat="50.70778" lon="3.81105">
        <ele>54.93</ele>
        <time>2017-02-12T14:50:02Z</time>
      </trkpt>
      <trkpt lat="50.70779" lon="3.81108">
        <ele>53.49</ele>
        <time>2017-02-12T14:50:09Z</time>
      </trkpt>
      <trkpt lat="50.70779" lon="3.81117">
        <ele>53.49</ele>
        <time>2017-02-12T14:50:31Z</time>
      </trkpt>
      <trkpt lat="50.70778" lon="3.81126">
        <ele>52.53</ele>
        <time>2017-02-12T14:50:42Z</time>
      </trkpt>
      <trkpt lat="50.70769" lon="3.81151">
        <ele>52.53</ele>
        <time>2017-02-12T14:50:59Z</time>
      </trkpt>
      <trkpt lat="50.70766" lon="3.81166">
        <ele>53.01</ele>
        <time>2017-02-12T14:51:08Z</time>
      </trkpt>
      <trkpt lat="50.70767" lon="3.81195">
        <ele>52.53</ele>
        <time>2017-02-12T14:51:25Z</time>
      </trkpt>
      <trkpt lat="50.70762" lon="3.81205">
        <ele>52.05</ele>
        <time>2017-02-12T14:51:37Z</time>
      </trkpt>
      <trkpt lat="50.70764" lon="3.81213">
        <ele>52.05</ele>
        <time>2017-02-12T14:51:43Z</time>
      </trkpt>
      <trkpt lat="50.70774" lon="3.81226">
        <ele>52.05</ele>
        <time>2017-02-12T14:51:55Z</time>
      </trkpt>
      <trkpt lat="50.70773" lon="3.8123">
        <ele>52.05</ele>
        <time>2017-02-12T14:51:57Z</time>
      </trkpt>
      <trkpt lat="50.70772" lon="3.81232">
        <ele>52.05</ele>
        <time>2017-02-12T14:51:59Z</time>
      </trkpt>
      <trkpt lat="50.70767" lon="3.81241">
        <ele>52.05</ele>
        <time>2017-02-12T14:52:09Z</time>
      </trkpt>
      <trkpt lat="50.70767" lon="3.81245">
        <ele>52.53</ele>
        <time>2017-02-12T14:52:11Z</time>
      </trkpt>
      <trkpt lat="50.70769" lon="3.81248">
        <ele>50.61</ele>
        <time>2017-02-12T14:52:17Z</time>
      </trkpt>
      <trkpt lat="50.70769" lon="3.81248">
        <ele>55.41</ele>
        <time>2017-02-12T14:52:18Z</time>
      </trkpt>
      <trkpt lat="50.70769" lon="3.81248">
        <ele>53.49</ele>
        <time>2017-02-12T14:52:19Z</time>
      </trkpt>
      <trkpt lat="50.70767" lon="3.81245">
        <ele>52.53</ele>
        <time>2017-02-12T14:52:33Z</time>
      </trkpt>
      <trkpt lat="50.70767" lon="3.81247">
        <ele>53.97</ele>
        <time>2017-02-12T14:52:49Z</time>
      </trkpt>
      <trkpt lat="50.70766" lon="3.81246">
        <ele>53.97</ele>
        <time>2017-02-12T14:52:52Z</time>
      </trkpt>
      <trkpt lat="50.70755" lon="3.81241">
        <ele>53.97</ele>
        <time>2017-02-12T14:53:06Z</time>
      </trkpt>
      <trkpt lat="50.70738" lon="3.81236">
        <ele>54.45</ele>
        <time>2017-02-12T14:53:21Z</time>
      </trkpt>
      <trkpt lat="50.70735" lon="3.81236">
        <ele>55.41</ele>
        <time>2017-02-12T14:53:24Z</time>
      </trkpt>
      <trkpt lat="50.7072" lon="3.81242">
        <ele>55.41</ele>
        <time>2017-02-12T14:53:38Z</time>
      </trkpt>
      <trkpt lat="50.70701" lon="3.81253">
        <ele>55.41</ele>
        <time>2017-02-12T14:53:53Z</time>
      </trkpt>
      <trkpt lat="50.70683" lon="3.81261">
        <ele>55.41</ele>
        <time>2017-02-12T14:54:08Z</time>
      </trkpt>
      <trkpt lat="50.70667" lon="3.81268">
        <ele>53.97</ele>
        <time>2017-02-12T14:54:21Z</time>
      </trkpt>
      <trkpt lat="50.70662" lon="3.8127">
        <ele>53.97</ele>
        <time>2017-02-12T14:54:25Z</time>
      </trkpt>
      <trkpt lat="50.70655" lon="3.81287">
        <ele>50.13</ele>
        <time>2017-02-12T14:54:37Z</time>
      </trkpt>
      <trkpt lat="50.70655" lon="3.81286">
        <ele>51.57</ele>
        <time>2017-02-12T14:54:38Z</time>
      </trkpt>
      <trkpt lat="50.70655" lon="3.81285">
        <ele>52.53</ele>
        <time>2017-02-12T14:54:40Z</time>
      </trkpt>
      <trkpt lat="50.70656" lon="3.81285">
        <ele>54.45</ele>
        <time>2017-02-12T14:54:46Z</time>
      </trkpt>
      <trkpt lat="50.70651" lon="3.81305">
        <ele>52.53</ele>
        <time>2017-02-12T14:54:57Z</time>
      </trkpt>
      <trkpt lat="50.70654" lon="3.81311">
        <ele>52.05</ele>
        <time>2017-02-12T14:55:09Z</time>
      </trkpt>
      <trkpt lat="50.70652" lon="3.81318">
        <ele>52.05</ele>
        <time>2017-02-12T14:55:13Z</time>
      </trkpt>
      <trkpt lat="50.70649" lon="3.81343">
        <ele>52.05</ele>
        <time>2017-02-12T14:55:26Z</time>
      </trkpt>
      <trkpt lat="50.70648" lon="3.81352">
        <ele>51.57</ele>
        <time>2017-02-12T14:55:31Z</time>
      </trkpt>
      <trkpt lat="50.70645" lon="3.81384">
        <ele>52.05</ele>
        <time>2017-02-12T14:55:47Z</time>
      </trkpt>
      <trkpt lat="50.70642" lon="3.81408">
        <ele>51.09</ele>
        <time>2017-02-12T14:56:00Z</time>
      </trkpt>
      <trkpt lat="50.70637" lon="3.81437">
        <ele>50.61</ele>
        <time>2017-02-12T14:56:15Z</time>
      </trkpt>
      <trkpt lat="50.70627" lon="3.8147">
        <ele>50.13</ele>
        <time>2017-02-12T14:56:31Z</time>
      </trkpt>
      <trkpt lat="50.70619" lon="3.81493">
        <ele>49.65</ele>
        <time>2017-02-12T14:56:44Z</time>
      </trkpt>
      <trkpt lat="50.70609" lon="3.81518">
        <ele>48.68</ele>
        <time>2017-02-12T14:56:58Z</time>
      </trkpt>
      <trkpt lat="50.706" lon="3.81537">
        <ele>47.72</ele>
        <time>2017-02-12T14:57:10Z</time>
      </trkpt>
      <trkpt lat="50.70589" lon="3.81563">
        <ele>47.24</ele>
        <time>2017-02-12T14:57:24Z</time>
      </trkpt>
      <trkpt lat="50.7058" lon="3.8159">
        <ele>46.76</ele>
        <time>2017-02-12T14:57:37Z</time>
      </trkpt>
      <trkpt lat="50.70573" lon="3.81621">
        <ele>46.28</ele>
        <time>2017-02-12T14:57:53Z</time>
      </trkpt>
      <trkpt lat="50.70571" lon="3.81627">
        <ele>46.28</ele>
        <time>2017-02-12T14:57:57Z</time>
      </trkpt>
      <trkpt lat="50.70568" lon="3.81649">
        <ele>45.8</ele>
        <time>2017-02-12T14:58:11Z</time>
      </trkpt>
      <trkpt lat="50.70566" lon="3.81671">
        <ele>45.8</ele>
        <time>2017-02-12T14:58:24Z</time>
      </trkpt>
      <trkpt lat="50.70567" lon="3.81702">
        <ele>45.32</ele>
        <time>2017-02-12T14:58:40Z</time>
      </trkpt>
      <trkpt lat="50.70567" lon="3.81726">
        <ele>44.84</ele>
        <time>2017-02-12T14:58:54Z</time>
      </trkpt>
      <trkpt lat="50.70568" lon="3.81748">
        <ele>43.88</ele>
        <time>2017-02-12T14:59:05Z</time>
      </trkpt>
      <trkpt lat="50.70568" lon="3.81753">
        <ele>43.88</ele>
        <time>2017-02-12T14:59:08Z</time>
      </trkpt>
      <trkpt lat="50.70568" lon="3.81755">
        <ele>43.88</ele>
        <time>2017-02-12T14:59:09Z</time>
      </trkpt>
      <trkpt lat="50.70567" lon="3.81783">
        <ele>43.88</ele>
        <time>2017-02-12T14:59:22Z</time>
      </trkpt>
      <trkpt lat="50.70567" lon="3.81816">
        <ele>42.92</ele>
        <time>2017-02-12T14:59:39Z</time>
      </trkpt>
      <trkpt lat="50.70568" lon="3.81833">
        <ele>42.44</ele>
        <time>2017-02-12T14:59:54Z</time>
      </trkpt>
      <trkpt lat="50.70569" lon="3.81843">
        <ele>42.44</ele>
        <time>2017-02-12T15:00:16Z</time>
      </trkpt>
      <trkpt lat="50.70567" lon="3.81863">
        <ele>42.44</ele>
        <time>2017-02-12T15:00:28Z</time>
      </trkpt>
      <trkpt lat="50.70569" lon="3.81894">
        <ele>42.44</ele>
        <time>2017-02-12T15:00:43Z</time>
      </trkpt>
      <trkpt lat="50.70569" lon="3.81926">
        <ele>41.95</ele>
        <time>2017-02-12T15:00:59Z</time>
      </trkpt>
      <trkpt lat="50.70571" lon="3.81958">
        <ele>41.95</ele>
        <time>2017-02-12T15:01:14Z</time>
      </trkpt>
      <trkpt lat="50.70573" lon="3.82002">
        <ele>41.47</ele>
        <time>2017-02-12T15:01:35Z</time>
      </trkpt>
      <trkpt lat="50.70575" lon="3.82038">
        <ele>40.99</ele>
        <time>2017-02-12T15:01:52Z</time>
      </trkpt>
      <trkpt lat="50.70577" lon="3.8208">
        <ele>39.55</ele>
        <time>2017-02-12T15:02:12Z</time>
      </trkpt>
      <trkpt lat="50.70579" lon="3.8209">
        <ele>39.07</ele>
        <time>2017-02-12T15:02:21Z</time>
      </trkpt>
      <trkpt lat="50.70583" lon="3.82128">
        <ele>38.59</ele>
        <time>2017-02-12T15:02:41Z</time>
      </trkpt>
      <trkpt lat="50.70587" lon="3.82165">
        <ele>38.11</ele>
        <time>2017-02-12T15:02:59Z</time>
      </trkpt>
      <trkpt lat="50.70589" lon="3.82189">
        <ele>38.11</ele>
        <time>2017-02-12T15:03:14Z</time>
      </trkpt>
      <trkpt lat="50.7059" lon="3.82219">
        <ele>37.15</ele>
        <time>2017-02-12T15:03:30Z</time>
      </trkpt>
      <trkpt lat="50.7059" lon="3.82247">
        <ele>36.67</ele>
        <time>2017-02-12T15:03:45Z</time>
      </trkpt>
      <trkpt lat="50.7059" lon="3.82279">
        <ele>36.19</ele>
        <time>2017-02-12T15:04:02Z</time>
      </trkpt>
      <trkpt lat="50.70589" lon="3.82303">
        <ele>36.19</ele>
        <time>2017-02-12T15:04:14Z</time>
      </trkpt>
      <trkpt lat="50.70587" lon="3.82314">
        <ele>35.71</ele>
        <time>2017-02-12T15:04:20Z</time>
      </trkpt>
      <trkpt lat="50.70586" lon="3.82334">
        <ele>35.23</ele>
        <time>2017-02-12T15:04:31Z</time>
      </trkpt>
      <trkpt lat="50.70587" lon="3.82342">
        <ele>35.23</ele>
        <time>2017-02-12T15:04:35Z</time>
      </trkpt>
      <trkpt lat="50.70587" lon="3.82348">
        <ele>35.23</ele>
        <time>2017-02-12T15:04:38Z</time>
      </trkpt>
      <trkpt lat="50.70583" lon="3.82375">
        <ele>34.74</ele>
        <time>2017-02-12T15:04:51Z</time>
      </trkpt>
      <trkpt lat="50.70582" lon="3.82382">
        <ele>33.78</ele>
        <time>2017-02-12T15:05:04Z</time>
      </trkpt>
      <trkpt lat="50.70579" lon="3.82392">
        <ele>33.78</ele>
        <time>2017-02-12T15:05:23Z</time>
      </trkpt>
      <trkpt lat="50.70574" lon="3.82409">
        <ele>33.78</ele>
        <time>2017-02-12T15:05:34Z</time>
      </trkpt>
      <trkpt lat="50.70562" lon="3.82439">
        <ele>33.3</ele>
        <time>2017-02-12T15:05:52Z</time>
      </trkpt>
      <trkpt lat="50.7055" lon="3.82465">
        <ele>32.82</ele>
        <time>2017-02-12T15:06:07Z</time>
      </trkpt>
      <trkpt lat="50.7054" lon="3.82488">
        <ele>32.34</ele>
        <time>2017-02-12T15:06:22Z</time>
      </trkpt>
      <trkpt lat="50.70539" lon="3.8249">
        <ele>32.34</ele>
        <time>2017-02-12T15:06:23Z</time>
      </trkpt>
      <trkpt lat="50.70536" lon="3.82499">
        <ele>32.34</ele>
        <time>2017-02-12T15:06:28Z</time>
      </trkpt>
      <trkpt lat="50.70533" lon="3.82501">
        <ele>32.34</ele>
        <time>2017-02-12T15:06:30Z</time>
      </trkpt>
      <trkpt lat="50.7053" lon="3.8251">
        <ele>32.34</ele>
        <time>2017-02-12T15:06:36Z</time>
      </trkpt>
      <trkpt lat="50.7052" lon="3.82543">
        <ele>32.34</ele>
        <time>2017-02-12T15:06:53Z</time>
      </trkpt>
      <trkpt lat="50.70508" lon="3.82578">
        <ele>32.34</ele>
        <time>2017-02-12T15:07:12Z</time>
      </trkpt>
      <trkpt lat="50.70503" lon="3.8261">
        <ele>31.86</ele>
        <time>2017-02-12T15:07:28Z</time>
      </trkpt>
      <trkpt lat="50.70496" lon="3.82639">
        <ele>31.38</ele>
        <time>2017-02-12T15:07:44Z</time>
      </trkpt>
      <trkpt lat="50.70493" lon="3.82662">
        <ele>31.38</ele>
        <time>2017-02-12T15:07:58Z</time>
      </trkpt>
      <trkpt lat="50.70489" lon="3.82693">
        <ele>31.38</ele>
        <time>2017-02-12T15:08:14Z</time>
      </trkpt>
      <trkpt lat="50.70487" lon="3.82715">
        <ele>31.38</ele>
        <time>2017-02-12T15:08:26Z</time>
      </trkpt>
      <trkpt lat="50.70484" lon="3.82737">
        <ele>31.38</ele>
        <time>2017-02-12T15:08:37Z</time>
      </trkpt>
      <trkpt lat="50.70483" lon="3.82749">
        <ele>31.38</ele>
        <time>2017-02-12T15:08:43Z</time>
      </trkpt>
      <trkpt lat="50.70482" lon="3.82783">
        <ele>32.82</ele>
        <time>2017-02-12T15:09:00Z</time>
      </trkpt>
      <trkpt lat="50.70482" lon="3.82811">
        <ele>33.3</ele>
        <time>2017-02-12T15:09:15Z</time>
      </trkpt>
      <trkpt lat="50.70483" lon="3.82821">
        <ele>33.3</ele>
        <time>2017-02-12T15:09:21Z</time>
      </trkpt>
      <trkpt lat="50.70483" lon="3.82829">
        <ele>33.3</ele>
        <time>2017-02-12T15:09:25Z</time>
      </trkpt>
      <trkpt lat="50.70483" lon="3.82857">
        <ele>33.78</ele>
        <time>2017-02-12T15:09:39Z</time>
      </trkpt>
      <trkpt lat="50.70483" lon="3.82886">
        <ele>33.78</ele>
        <time>2017-02-12T15:09:53Z</time>
      </trkpt>
      <trkpt lat="50.70482" lon="3.82909">
        <ele>34.26</ele>
        <time>2017-02-12T15:10:09Z</time>
      </trkpt>
      <trkpt lat="50.70487" lon="3.82924">
        <ele>34.26</ele>
        <time>2017-02-12T15:10:23Z</time>
      </trkpt>
      <trkpt lat="50.70487" lon="3.82925">
        <ele>34.26</ele>
        <time>2017-02-12T15:10:24Z</time>
      </trkpt>
      <trkpt lat="50.7049" lon="3.82931">
        <ele>34.74</ele>
        <time>2017-02-12T15:10:30Z</time>
      </trkpt>
      <trkpt lat="50.70491" lon="3.82936">
        <ele>34.74</ele>
        <time>2017-02-12T15:10:46Z</time>
      </trkpt>
      <trkpt lat="50.70493" lon="3.82938">
        <ele>34.74</ele>
        <time>2017-02-12T15:10:59Z</time>
      </trkpt>
      <trkpt lat="50.70492" lon="3.8294">
        <ele>34.74</ele>
        <time>2017-02-12T15:11:14Z</time>
      </trkpt>
      <trkpt lat="50.70492" lon="3.82941">
        <ele>35.23</ele>
        <time>2017-02-12T15:11:23Z</time>
      </trkpt>
      <trkpt lat="50.70492" lon="3.82945">
        <ele>35.71</ele>
        <time>2017-02-12T15:11:26Z</time>
      </trkpt>
      <trkpt lat="50.70484" lon="3.82964">
        <ele>35.71</ele>
        <time>2017-02-12T15:11:38Z</time>
      </trkpt>
      <trkpt lat="50.70486" lon="3.82985">
        <ele>34.26</ele>
        <time>2017-02-12T15:11:51Z</time>
      </trkpt>
      <trkpt lat="50.70482" lon="3.83021">
        <ele>33.78</ele>
        <time>2017-02-12T15:12:09Z</time>
      </trkpt>
      <trkpt lat="50.70481" lon="3.83033">
        <ele>33.3</ele>
        <time>2017-02-12T15:12:22Z</time>
      </trkpt>
      <trkpt lat="50.70478" lon="3.83063">
        <ele>32.82</ele>
        <time>2017-02-12T15:12:38Z</time>
      </trkpt>
      <trkpt lat="50.70477" lon="3.83097">
        <ele>31.38</ele>
        <time>2017-02-12T15:12:55Z</time>
      </trkpt>
      <trkpt lat="50.70479" lon="3.83127">
        <ele>30.9</ele>
        <time>2017-02-12T15:13:10Z</time>
      </trkpt>
      <trkpt lat="50.70482" lon="3.83144">
        <ele>30.9</ele>
        <time>2017-02-12T15:13:21Z</time>
      </trkpt>
      <trkpt lat="50.70484" lon="3.8315">
        <ele>30.9</ele>
        <time>2017-02-12T15:13:25Z</time>
      </trkpt>
      <trkpt lat="50.70483" lon="3.83181">
        <ele>29.46</ele>
        <time>2017-02-12T15:13:40Z</time>
      </trkpt>
      <trkpt lat="50.70486" lon="3.83221">
        <ele>28.02</ele>
        <time>2017-02-12T15:13:59Z</time>
      </trkpt>
      <trkpt lat="50.70489" lon="3.8325">
        <ele>27.05</ele>
        <time>2017-02-12T15:14:14Z</time>
      </trkpt>
      <trkpt lat="50.70499" lon="3.83275">
        <ele>26.57</ele>
        <time>2017-02-12T15:14:29Z</time>
      </trkpt>
      <trkpt lat="50.70515" lon="3.83289">
        <ele>26.57</ele>
        <time>2017-02-12T15:14:44Z</time>
      </trkpt>
      <trkpt lat="50.70534" lon="3.83308">
        <ele>27.53</ele>
        <time>2017-02-12T15:15:01Z</time>
      </trkpt>
      <trkpt lat="50.70553" lon="3.83325">
        <ele>26.57</ele>
        <time>2017-02-12T15:15:18Z</time>
      </trkpt>
      <trkpt lat="50.70571" lon="3.8333">
        <ele>26.09</ele>
        <time>2017-02-12T15:15:33Z</time>
      </trkpt>
      <trkpt lat="50.7059" lon="3.83329">
        <ele>24.65</ele>
        <time>2017-02-12T15:15:48Z</time>
      </trkpt>
      <trkpt lat="50.70612" lon="3.83326">
        <ele>23.69</ele>
        <time>2017-02-12T15:16:04Z</time>
      </trkpt>
      <trkpt lat="50.70626" lon="3.83323">
        <ele>23.21</ele>
        <time>2017-02-12T15:16:16Z</time>
      </trkpt>
      <trkpt lat="50.70644" lon="3.83318">
        <ele>22.73</ele>
        <time>2017-02-12T15:16:32Z</time>
      </trkpt>
      <trkpt lat="50.70665" lon="3.83315">
        <ele>22.73</ele>
        <time>2017-02-12T15:16:47Z</time>
      </trkpt>
      <trkpt lat="50.70673" lon="3.83311">
        <ele>22.25</ele>
        <time>2017-02-12T15:16:58Z</time>
      </trkpt>
      <trkpt lat="50.70682" lon="3.83307">
        <ele>22.25</ele>
        <time>2017-02-12T15:17:09Z</time>
      </trkpt>
      <trkpt lat="50.70697" lon="3.83304">
        <ele>22.25</ele>
        <time>2017-02-12T15:17:21Z</time>
      </trkpt>
      <trkpt lat="50.70707" lon="3.833">
        <ele>22.25</ele>
        <time>2017-02-12T15:17:29Z</time>
      </trkpt>
      <trkpt lat="50.70715" lon="3.83301">
        <ele>22.25</ele>
        <time>2017-02-12T15:17:32Z</time>
      </trkpt>
      <trkpt lat="50.70728" lon="3.83303">
        <ele>22.25</ele>
        <time>2017-02-12T15:17:40Z</time>
      </trkpt>
      <trkpt lat="50.70746" lon="3.833">
        <ele>23.69</ele>
        <time>2017-02-12T15:17:53Z</time>
      </trkpt>
      <trkpt lat="50.70747" lon="3.833">
        <ele>23.69</ele>
        <time>2017-02-12T15:17:54Z</time>
      </trkpt>
      <trkpt lat="50.70752" lon="3.83299">
        <ele>23.69</ele>
        <time>2017-02-12T15:17:58Z</time>
      </trkpt>
      <trkpt lat="50.70758" lon="3.83294">
        <ele>23.69</ele>
        <time>2017-02-12T15:18:03Z</time>
      </trkpt>
      <trkpt lat="50.70777" lon="3.83283">
        <ele>24.17</ele>
        <time>2017-02-12T15:18:19Z</time>
      </trkpt>
      <trkpt lat="50.70796" lon="3.83282">
        <ele>26.09</ele>
        <time>2017-02-12T15:18:33Z</time>
      </trkpt>
      <trkpt lat="50.70812" lon="3.83271">
        <ele>26.57</ele>
        <time>2017-02-12T15:18:46Z</time>
      </trkpt>
      <trkpt lat="50.70824" lon="3.83273">
        <ele>27.05</ele>
        <time>2017-02-12T15:18:53Z</time>
      </trkpt>
      <trkpt lat="50.70854" lon="3.83268">
        <ele>27.05</ele>
        <time>2017-02-12T15:19:12Z</time>
      </trkpt>
      <trkpt lat="50.7086" lon="3.83263">
        <ele>27.05</ele>
        <time>2017-02-12T15:19:18Z</time>
      </trkpt>
      <trkpt lat="50.70875" lon="3.83254">
        <ele>28.02</ele>
        <time>2017-02-12T15:19:32Z</time>
      </trkpt>
      <trkpt lat="50.70887" lon="3.8325">
        <ele>28.5</ele>
        <time>2017-02-12T15:19:41Z</time>
      </trkpt>
      <trkpt lat="50.70894" lon="3.8325">
        <ele>28.5</ele>
        <time>2017-02-12T15:19:45Z</time>
      </trkpt>
      <trkpt lat="50.7091" lon="3.8324">
        <ele>28.5</ele>
        <time>2017-02-12T15:19:59Z</time>
      </trkpt>
      <trkpt lat="50.70922" lon="3.83231">
        <ele>28.5</ele>
        <time>2017-02-12T15:20:10Z</time>
      </trkpt>
      <trkpt lat="50.70932" lon="3.83227">
        <ele>28.98</ele>
        <time>2017-02-12T15:20:21Z</time>
      </trkpt>
      <trkpt lat="50.70941" lon="3.83228">
        <ele>28.98</ele>
        <time>2017-02-12T15:20:29Z</time>
      </trkpt>
      <trkpt lat="50.70963" lon="3.83216">
        <ele>29.46</ele>
        <time>2017-02-12T15:20:45Z</time>
      </trkpt>
      <trkpt lat="50.7098" lon="3.83195">
        <ele>29.94</ele>
        <time>2017-02-12T15:21:03Z</time>
      </trkpt>
      <trkpt lat="50.70994" lon="3.83179">
        <ele>30.9</ele>
        <time>2017-02-12T15:21:15Z</time>
      </trkpt>
      <trkpt lat="50.71009" lon="3.83158">
        <ele>31.86</ele>
        <time>2017-02-12T15:21:32Z</time>
      </trkpt>
      <trkpt lat="50.71013" lon="3.83155">
        <ele>31.86</ele>
        <time>2017-02-12T15:21:36Z</time>
      </trkpt>
      <trkpt lat="50.71031" lon="3.83133">
        <ele>31.86</ele>
        <time>2017-02-12T15:21:53Z</time>
      </trkpt>
      <trkpt lat="50.71041" lon="3.83118">
        <ele>31.86</ele>
        <time>2017-02-12T15:22:04Z</time>
      </trkpt>
      <trkpt lat="50.71045" lon="3.83106">
        <ele>31.86</ele>
        <time>2017-02-12T15:22:10Z</time>
      </trkpt>
      <trkpt lat="50.71061" lon="3.83092">
        <ele>31.86</ele>
        <time>2017-02-12T15:22:26Z</time>
      </trkpt>
      <trkpt lat="50.71075" lon="3.83072">
        <ele>31.86</ele>
        <time>2017-02-12T15:22:41Z</time>
      </trkpt>
      <trkpt lat="50.71081" lon="3.83048">
        <ele>30.42</ele>
        <time>2017-02-12T15:22:53Z</time>
      </trkpt>
      <trkpt lat="50.71088" lon="3.83037">
        <ele>30.42</ele>
        <time>2017-02-12T15:23:01Z</time>
      </trkpt>
      <trkpt lat="50.71094" lon="3.83027">
        <ele>30.42</ele>
        <time>2017-02-12T15:23:08Z</time>
      </trkpt>
      <trkpt lat="50.711" lon="3.83021">
        <ele>30.42</ele>
        <time>2017-02-12T15:23:14Z</time>
      </trkpt>
      <trkpt lat="50.71099" lon="3.83014">
        <ele>31.38</ele>
        <time>2017-02-12T15:23:18Z</time>
      </trkpt>
      <trkpt lat="50.71096" lon="3.83012">
        <ele>31.38</ele>
        <time>2017-02-12T15:23:23Z</time>
      </trkpt>
      <trkpt lat="50.71087" lon="3.82983">
        <ele>31.86</ele>
        <time>2017-02-12T15:23:38Z</time>
      </trkpt>
      <trkpt lat="50.71084" lon="3.82973">
        <ele>31.86</ele>
        <time>2017-02-12T15:23:50Z</time>
      </trkpt>
      <trkpt lat="50.71074" lon="3.82958">
        <ele>32.34</ele>
        <time>2017-02-12T15:24:03Z</time>
      </trkpt>
      <trkpt lat="50.71068" lon="3.82951">
        <ele>32.34</ele>
        <time>2017-02-12T15:24:13Z</time>
      </trkpt>
      <trkpt lat="50.7107" lon="3.8295">
        <ele>32.34</ele>
        <time>2017-02-12T15:24:29Z</time>
      </trkpt>
      <trkpt lat="50.71069" lon="3.82954">
        <ele>32.34</ele>
        <time>2017-02-12T15:24:41Z</time>
      </trkpt>
      <trkpt lat="50.71068" lon="3.82953">
        <ele>32.34</ele>
        <time>2017-02-12T15:24:47Z</time>
      </trkpt>
      <trkpt lat="50.71065" lon="3.82951">
        <ele>30.9</ele>
        <time>2017-02-12T15:24:56Z</time>
      </trkpt>
      <trkpt lat="50.71066" lon="3.82953">
        <ele>32.34</ele>
        <time>2017-02-12T15:25:07Z</time>
      </trkpt>
      <trkpt lat="50.71065" lon="3.8295">
        <ele>32.34</ele>
        <time>2017-02-12T15:25:25Z</time>
      </trkpt>
      <trkpt lat="50.71065" lon="3.82948">
        <ele>31.38</ele>
        <time>2017-02-12T15:25:38Z</time>
      </trkpt>
      <trkpt lat="50.71064" lon="3.82941">
        <ele>32.34</ele>
        <time>2017-02-12T15:25:50Z</time>
      </trkpt>
      <trkpt lat="50.71062" lon="3.82937">
        <ele>32.34</ele>
        <time>2017-02-12T15:26:04Z</time>
      </trkpt>
      <trkpt lat="50.71059" lon="3.82931">
        <ele>32.34</ele>
        <time>2017-02-12T15:26:10Z</time>
      </trkpt>
      <trkpt lat="50.71055" lon="3.82926">
        <ele>30.9</ele>
        <time>2017-02-12T15:26:14Z</time>
      </trkpt>
      <trkpt lat="50.71047" lon="3.82905">
        <ele>32.34</ele>
        <time>2017-02-12T15:26:35Z</time>
      </trkpt>
      <trkpt lat="50.71047" lon="3.82906">
        <ele>31.86</ele>
        <time>2017-02-12T15:26:53Z</time>
      </trkpt>
    </trkseg>
  </trk>
</gpx>